GFSSW_sfc_30mbdewp_000.txt.gz
Dewpoint
51 51 50 51 50 50 50 50 51 51 51 51 52 52 52 53 52 43 23 27 34 42 45 26 21 17 13 10 9 8 1 1 4 3 4 9 8 27 32 30 34 36 40 46 51
50 51 50 50 50 50 51 50 50 50 51 51 52 52 53 54 46 27 35 35 40 42 26 21 18 15 13 13 11 5 3 8 16 13 8 8 13 20 24 28 35 40 41 45 48
51 50 51 51 50 50 51 50 50 50 51 52 52 52 53 53 26 27 39 37 40 39 28 25 22 17 14 15 18 16 11 14 19 22 21 11 14 23 19 18 28 33 39 40 41
51 51 51 51 51 51 51 51 51 51 52 53 52 53 54 47 20 28 39 40 40 36 26 24 22 20 18 17 21 18 24 24 25 23 19 18 21 19 21 24 31 36 38 37 35
52 53 52 53 52 52 53 52 52 52 53 53 53 54 51 28 29 34 36 33 31 24 24 24 20 21 19 21 23 22 25 29 27 25 24 24 22 22 22 28 31 31 31 30 29
52 52 52 52 53 53 53 52 52 52 53 52 54 54 34 27 37 35 31 30 29 26 25 25 24 26 27 26 23 29 29 30 29 28 27 26 24 24 25 29 29 29 28 28 28
52 51 52 52 52 52 52 52 51 52 52 52 54 49 29 29 33 33 33 31 31 28 26 24 26 26 26 30 32 28 25 28 26 27 27 26 22 22 23 28 27 27 27 27 27
51 51 51 51 51 51 51 51 51 52 52 52 53 41 28 34 33 31 33 32 32 31 28 30 31 30 33 33 28 25 23 14 21 23 26 23 7 19 24 25 25 26 27 27 26
51 51 51 51 51 50 50 51 51 52 53 53 44 33 27 33 30 30 33 32 32 33 32 30 29 27 27 23 18 17 10 14 14 21 20 19 13 12 23 24 21 20 24 26 26
51 51 50 50 50 51 51 51 52 52 47 41 34 29 29 29 30 29 32 33 31 32 29 27 25 18 17 13 9 14 14 16 16 14 18 15 14 12 13 15 19 20 21 24 26
50 51 50 50 50 50 49 45 34 29 32 30 30 30 28 30 30 28 32 33 29 29 25 27 19 20 21 22 21 20 18 14 13 17 20 16 16 15 15 16 17 21 22 23 25
50 50 49 49 49 47 49 40 44 43 28 35 31 29 30 30 25 26 31 29 26 22 27 24 22 23 23 22 21 19 18 16 16 19 20 19 16 15 15 15 20 22 22 24 25
50 50 47 47 47 50 47 48 52 50 26 30 32 29 27 27 26 26 27 30 25 21 21 22 23 23 23 21 20 19 18 17 18 20 18 18 10 12 15 19 21 22 24 25 25
49 49 46 45 44 46 44 49 52 52 22 25 26 27 26 26 24 28 27 28 25 22 22 21 26 23 21 20 21 18 21 20 20 19 12 19 9 13 15 16 18 22 23 23 24
49 48 44 48 45 40 45 48 53 50 23 30 27 29 27 25 27 27 28 27 24 23 24 22 22 21 20 22 22 20 22 21 21 19 18 17 15 14 18 15 16 19 22 23 24
49 48 43 40 47 46 49 53 50 37 21 27 26 26 25 26 28 27 26 26 24 21 20 21 25 24 22 23 22 22 23 23 22 20 18 17 16 14 15 17 19 19 23 25 24
49 49 46 47 44 51 54 49 35 26 30 24 24 27 27 26 26 26 25 25 21 17 19 19 21 24 25 23 24 24 23 22 19 18 16 19 18 17 19 20 21 22 24 25 26
49 49 49 49 50 53 49 42 23 28 27 26 27 27 26 27 26 25 23 22 26 25 21 21 17 19 26 24 25 22 22 22 22 17 18 19 17 15 20 21 23 24 24 26 27
49 51 47 49 51 50 43 32 29 28 27 25 27 25 26 27 26 25 25 24 25 27 25 25 22 27 25 28 27 25 24 24 21 22 20 19 19 20 20 22 24 24 26 26 28
49 46 44 50 52 44 41 27 27 28 28 29 24 27 23 25 24 25 25 26 25 27 28 28 27 28 27 28 26 26 25 25 24 24 21 17 18 17 20 22 23 25 26 28 29
50 39 47 51 48 37 34 30 28 29 30 28 28 27 27 26 27 26 27 27 27 28 29 29 29 28 30 27 28 28 27 23 23 23 23 22 20 22 23 24 25 26 27 29 30
47 35 47 49 36 37 33 30 30 29 32 31 31 30 29 29 29 27 27 29 29 28 30 31 32 29 28 30 28 29 28 26 25 24 26 27 25 26 26 26 27 27 28 30 31
40 39 45 48 36 38 35 34 34 31 32 30 32 32 33 31 31 30 31 33 31 29 33 33 32 28 25 25 27 27 27 27 29 31 27 27 25 26 26 26 28 28 29 30 30
39 36 41 42 41 36 35 36 36 38 35 35 34 35 34 33 33 32 32 34 36 33 34 35 33 31 26 25 28 28 29 29 30 29 28 28 27 28 28 28 28 28 29 31 30
40 38 38 36 38 38 38 36 36 36 37 35 35 35 34 33 31 32 33 32 34 36 37 36 32 31 31 30 30 30 29 29 29 30 29 29 27 28 28 28 29 30 30 30 29
40 40 40 39 37 34 35 35 34 34 34 33 34 36 35 33 33 32 33 34 34 35 35 35 32 33 31 31 31 30 30 30 30 29 29 29 30 31 30 29 28 29 30 28 32
43 41 43 36 37 34 33 34 33 35 36 36 36 36 36 35 36 36 37 37 36 35 35 35 34 33 29 30 31 29 31 30 28 29 30 28 29 29 27 28 28 29 30 34 35

GFSSW_sfc_30mbdewp_003.txt.gz
Dewpoint
51 51 51 51 51 51 51 51 51 51 51 52 52 53 53 54 52 45 23 28 31 40 41 29 18 11 8 5 5 5 -1 -2 -1 1 1 4 5 15 19 16 19 25 28 45 53
51 51 51 51 51 51 51 51 51 51 51 52 53 53 53 53 42 24 36 39 40 41 26 15 11 9 6 5 5 5 2 4 7 4 3 3 4 11 14 18 23 29 39 47 50
51 51 51 51 51 51 51 51 51 51 51 52 53 53 53 54 31 25 40 40 41 39 29 21 17 10 9 11 12 12 6 6 10 14 11 8 7 13 12 12 15 23 33 43 45
52 52 52 52 52 52 52 52 52 52 52 53 54 53 54 49 22 29 36 36 37 36 26 18 17 15 14 13 14 13 15 15 18 19 16 15 17 15 16 16 23 25 31 38 40
52 53 53 53 53 53 53 53 53 52 53 53 53 54 52 30 28 32 34 32 29 25 21 18 16 17 15 16 19 19 20 22 22 22 23 23 20 21 19 21 25 30 34 35 35
52 52 52 53 53 53 53 53 52 52 52 53 53 55 46 25 32 32 33 31 29 27 25 24 23 24 22 21 21 22 24 25 25 24 23 23 16 19 19 24 26 28 29 29 29
52 52 52 52 52 52 52 53 53 52 53 53 54 52 29 29 31 31 32 32 31 28 25 23 26 27 26 27 29 25 23 22 22 20 20 21 13 19 16 23 22 25 27 27 27
51 51 51 51 51 51 51 51 51 51 53 54 54 47 28 32 31 30 31 30 30 30 28 27 28 27 30 29 26 20 20 6 12 17 18 15 4 9 15 19 20 20 23 25 26
51 51 51 51 51 50 49 50 50 51 53 53 47 32 27 33 30 30 31 30 30 30 30 27 22 22 27 21 18 11 7 10 11 12 14 11 10 8 11 15 18 17 15 20 24
51 51 50 50 50 50 50 50 49 52 49 40 29 28 28 28 30 30 32 32 28 28 28 24 21 19 14 13 8 10 13 14 13 11 14 15 15 14 14 13 11 12 16 16 18
50 50 49 50 49 49 50 43 36 29 31 28 27 25 25 27 29 27 30 30 27 26 21 21 19 16 18 20 19 18 17 17 16 17 19 18 17 15 13 12 13 15 18 18 19
50 49 47 48 48 47 52 38 44 42 27 28 26 25 27 27 24 23 26 26 24 18 18 23 20 21 21 21 19 17 17 17 18 19 20 19 16 14 13 15 16 17 19 21 23
50 48 45 46 46 50 45 45 49 49 26 25 28 25 26 26 23 24 25 24 20 17 15 16 22 22 20 18 18 17 19 18 19 21 20 18 13 12 16 17 17 21 23 22 23
50 47 46 45 44 46 44 49 52 52 27 22 24 26 25 24 23 26 25 26 23 19 17 20 23 20 19 17 21 18 22 22 22 21 15 18 8 13 14 14 16 20 22 23 24
50 47 43 48 46 41 46 48 54 53 30 26 24 27 25 23 24 25 26 26 23 21 21 23 18 17 18 20 22 21 24 24 23 22 20 17 14 12 15 13 15 18 22 24 25
49 48 43 43 48 47 48 53 52 39 26 25 25 24 24 24 24 24 24 25 22 19 18 16 20 22 20 23 24 24 25 23 24 22 20 20 15 11 13 15 17 19 22 24 25
49 48 47 49 44 51 54 50 36 30 30 23 24 24 25 24 24 23 23 25 22 21 19 18 20 22 24 24 26 26 23 23 21 18 17 19 18 15 16 18 18 20 22 24 26
50 52 51 50 51 55 50 36 32 29 26 26 25 24 24 26 25 23 22 22 26 26 23 20 20 20 26 25 26 26 24 24 22 18 18 19 16 15 18 18 20 22 24 26 27
49 51 47 52 54 53 42 34 30 26 27 25 24 23 25 25 25 24 24 24 26 28 26 25 22 27 25 28 27 27 27 27 24 25 24 21 18 19 20 19 22 24 25 27 29
47 45 45 53 54 50 39 28 27 27 27 26 23 24 22 24 22 24 25 26 26 29 31 30 26 28 28 30 28 28 28 27 28 26 22 20 20 19 20 21 22 24 26 28 30
51 41 48 52 51 38 34 30 27 28 28 28 26 25 25 24 26 25 26 27 29 29 31 31 31 29 30 28 27 28 28 27 25 25 24 22 21 23 24 26 26 26 27 29 29
46 37 48 49 40 36 32 29 29 29 31 31 30 28 29 30 30 28 27 30 31 31 30 33 31 30 29 29 27 27 28 28 26 25 27 28 27 27 27 27 26 28 28 29 30
38 37 47 49 41 39 33 33 33 31 32 31 32 33 33 32 31 30 31 34 33 31 33 33 32 28 24 27 28 28 27 27 28 29 29 28 27 26 26 28 28 27 28 30 30
39 39 41 41 40 35 34 34 34 36 34 34 34 35 33 33 33 32 32 33 35 34 36 35 32 31 27 27 29 28 28 28 29 30 30 30 29 28 28 27 28 28 30 30 30
36 38 38 39 39 37 36 34 34 35 36 35 34 34 33 33 33 30 32 32 34 35 36 36 32 31 31 30 29 28 28 28 26 28 28 29 27 27 28 27 28 29 30 30 31
40 39 40 37 36 34 35 33 32 33 32 32 33 34 34 33 33 32 33 33 33 33 35 35 34 34 32 31 30 29 28 27 27 27 27 27 27 28 28 29 28 30 31 33 33
42 40 45 38 36 34 33 31 31 33 36 34 34 34 35 36 36 36 37 37 35 35 35 36 36 34 29 30 32 29 31 30 29 27 26 25 27 26 26 28 30 33 34 34 35

GFSSW_sfc_30mbdewp_006.txt.gz
Dewpoint
51 51 51 51 51 51 51 52 52 52 52 52 53 54 54 54 52 46 26 31 34 40 43 32 26 10 10 3 4 5 1 -2 -1 2 1 3 3 13 15 13 17 18 30 48 54
51 51 51 52 51 51 52 52 52 52 52 52 53 54 54 54 46 22 34 40 41 40 32 18 11 9 6 5 7 8 4 4 4 3 6 3 3 8 8 11 16 24 30 42 49
52 52 51 51 51 52 52 52 52 52 52 53 53 55 54 54 38 25 38 38 37 38 31 25 18 11 11 11 12 11 5 7 10 14 8 9 8 12 10 10 19 19 29 35 40
53 53 52 52 53 53 52 52 52 52 53 53 54 55 55 48 23 28 34 35 35 35 28 21 16 15 14 13 15 14 13 15 17 17 16 18 19 17 16 15 21 22 26 32 36
52 52 53 53 53 54 54 53 53 53 53 53 54 55 52 33 27 31 33 34 33 26 22 19 18 20 15 15 18 17 18 20 21 22 20 20 18 18 17 17 23 23 30 31 34
52 52 52 53 53 53 54 54 53 53 53 53 54 54 47 25 30 31 31 30 28 26 23 24 23 23 22 22 21 21 21 20 21 19 18 20 16 14 13 18 21 23 28 30 32
52 52 52 52 53 53 53 53 52 52 52 53 55 51 32 27 29 30 30 30 28 27 23 22 25 25 26 26 23 21 21 22 21 16 12 18 11 11 18 21 20 20 24 26 27
52 52 52 51 51 51 51 50 50 51 51 53 55 50 28 31 31 29 29 28 29 28 25 24 26 25 28 24 26 20 19 9 11 14 15 13 7 9 14 15 18 19 20 24 25
51 51 51 50 50 50 50 50 50 51 52 53 52 46 27 31 29 28 29 28 28 29 30 26 24 22 26 25 19 14 10 12 15 13 12 12 11 12 14 11 14 18 18 19 24
51 51 50 50 50 51 50 50 51 50 51 47 39 28 27 27 28 28 29 30 29 27 27 24 24 22 17 17 14 15 16 17 16 16 17 18 18 17 17 15 14 14 16 17 17
51 50 49 49 47 47 49 44 35 36 29 28 25 25 24 26 28 22 23 27 27 25 20 18 23 17 17 19 18 16 16 16 18 17 18 19 19 17 14 12 13 15 18 19 19
50 49 47 47 47 49 52 42 44 46 27 25 24 23 24 25 23 22 23 23 21 18 16 16 22 19 19 18 17 13 15 18 19 20 20 20 19 17 14 17 16 17 20 22 23
50 48 46 45 45 52 45 44 48 50 37 24 26 23 24 26 21 22 22 22 19 16 14 13 23 18 18 17 18 14 21 20 21 22 20 18 13 15 15 17 18 21 23 23 24
50 48 46 45 42 45 44 48 53 54 34 23 24 26 23 22 24 26 22 23 23 18 15 19 20 18 17 17 19 17 22 23 24 23 19 21 13 12 14 16 18 21 24 25 26
50 48 44 46 48 41 47 49 53 55 34 26 23 26 24 22 21 23 25 24 21 19 19 24 20 14 16 19 21 21 24 25 24 23 22 19 14 13 14 13 16 20 22 25 27
49 49 47 45 51 48 49 54 53 44 30 25 24 24 24 24 23 22 24 25 22 19 16 14 19 20 19 21 23 25 25 24 24 23 22 21 19 16 14 16 15 18 22 25 27
49 50 49 51 49 51 55 52 40 32 28 23 24 23 23 23 23 22 23 25 24 23 21 20 19 21 24 23 24 26 25 25 24 21 22 20 19 19 19 18 19 20 23 26 27
48 51 53 53 53 56 53 39 34 27 25 26 24 23 23 24 25 22 23 23 27 27 24 23 21 21 26 25 26 26 26 26 23 20 23 23 18 16 18 19 19 22 24 26 28
48 54 48 54 56 55 46 36 31 27 27 25 24 22 25 25 23 23 25 24 27 28 27 27 24 26 27 27 27 26 26 28 25 26 27 25 23 23 21 20 23 25 25 28 29
51 46 47 54 56 54 43 31 28 27 27 25 23 24 23 24 23 24 25 27 27 30 31 30 28 29 28 30 29 28 29 27 28 27 22 20 22 22 23 26 28 29 28 31 32
55 44 49 52 54 44 37 30 27 27 29 29 26 25 25 25 27 25 26 29 30 29 31 32 32 31 31 29 27 26 26 29 27 27 25 26 24 27 28 29 29 29 30 32 32
48 41 49 51 43 39 33 29 29 29 31 31 31 30 30 30 30 28 28 31 32 31 31 35 32 31 30 30 28 26 27 28 27 29 29 29 28 30 29 28 30 30 30 31 32
39 40 49 51 42 39 33 32 32 30 32 31 32 33 33 32 32 32 32 35 34 31 34 34 32 28 25 27 29 29 28 28 28 31 29 30 29 30 31 31 30 30 31 32 32
40 39 43 42 39 35 33 33 33 36 34 34 33 34 33 32 33 32 31 34 36 35 36 35 32 30 29 29 30 29 29 29 28 27 28 28 28 28 28 28 29 31 32 32 32
38 38 39 41 38 37 36 33 33 34 35 34 33 33 32 33 33 30 31 33 34 36 35 35 33 32 32 31 31 31 30 29 28 27 26 27 26 26 27 27 30 32 33 34 33
43 40 39 36 35 34 34 32 31 32 31 32 32 32 33 32 33 32 34 34 34 34 34 36 34 35 33 33 31 29 31 30 28 27 27 27 26 27 27 30 32 33 34 35 37
42 41 47 39 37 35 35 31 31 32 36 33 34 34 34 36 38 38 38 37 37 36 36 36 36 34 30 31 31 29 29 29 29 27 26 25 26 27 27 33 35 36 36 39 39

GFSSW_sfc_30mbdewp_009.txt.gz
Dewpoint
51 51 51 51 52 52 52 52 53 53 53 53 53 54 55 54 50 45 27 29 32 36 48 35 32 27 25 12 5 6 5 3 4 2 2 2 7 14 15 13 17 34 47 47 52
52 52 52 51 52 51 52 52 53 52 53 53 54 55 55 54 47 28 30 35 38 44 32 30 26 21 12 9 13 9 4 4 12 10 7 10 7 8 8 9 19 36 50 54 55
52 52 52 52 52 52 53 53 52 53 53 54 54 55 55 54 43 26 34 40 41 45 35 30 27 23 11 13 15 13 12 15 16 16 15 15 19 15 11 12 22 26 42 51 53
53 53 52 52 53 54 53 53 53 53 53 54 54 55 54 49 24 29 33 35 36 41 32 26 24 20 15 14 16 16 17 20 18 19 19 20 20 19 17 18 22 23 34 37 39
53 53 53 53 53 54 54 53 53 53 53 53 54 54 49 38 28 31 33 34 36 32 28 24 23 23 19 20 21 18 19 20 21 21 21 20 18 18 18 18 23 24 31 33 36
53 52 52 53 53 53 54 54 53 53 53 53 55 54 43 28 30 31 31 31 28 27 22 23 25 26 25 22 22 22 22 22 22 21 19 19 20 19 15 18 22 24 29 31 33
52 52 52 52 52 52 53 52 52 52 53 53 54 52 45 27 30 30 31 29 29 27 24 24 26 26 28 26 23 23 20 23 21 18 13 14 12 12 15 21 21 22 26 28 30
52 52 52 51 51 51 50 50 50 52 53 53 54 51 29 31 32 29 29 29 29 29 25 25 25 26 26 26 25 23 22 17 21 18 17 13 10 12 15 21 21 20 23 25 26
52 52 51 51 50 49 48 50 50 51 53 53 51 44 27 30 29 28 30 29 30 30 29 29 26 25 26 25 25 19 16 17 18 16 15 15 16 19 20 18 18 19 19 23 25
51 51 50 49 49 49 49 49 50 47 51 48 46 38 28 26 27 28 25 25 29 30 28 30 27 24 21 18 13 15 15 17 18 18 20 20 20 20 21 20 18 18 20 20 23
50 49 48 48 48 47 48 48 36 39 41 25 24 25 24 25 28 23 24 23 26 28 24 19 21 18 17 19 18 16 15 17 20 22 22 21 21 21 20 17 17 19 22 23 24
49 47 46 46 47 48 52 46 46 48 34 25 24 23 23 25 24 23 23 22 22 19 17 19 21 19 18 19 19 17 20 22 22 24 24 23 21 21 17 17 20 22 22 23 24
49 47 46 45 44 52 45 46 52 54 43 24 25 23 24 24 22 23 21 22 22 19 16 18 20 18 18 20 19 18 22 22 23 25 26 23 18 16 17 18 22 22 23 23 23
50 48 47 45 41 47 46 48 55 57 41 23 27 26 24 22 24 25 24 23 26 19 16 20 19 16 17 20 20 17 24 24 25 25 22 25 18 17 16 17 20 22 24 25 26
49 49 48 45 52 46 47 51 53 56 33 26 24 25 24 22 22 23 24 23 19 17 18 23 16 13 19 19 20 21 24 25 26 26 25 22 19 14 17 16 19 24 26 27 28
49 51 51 48 52 50 53 56 54 44 31 24 24 24 24 24 23 23 25 26 22 23 19 17 20 21 19 23 25 26 28 27 29 25 22 23 21 19 18 16 20 25 26 28 28
48 50 51 53 50 54 57 54 42 33 29 24 24 24 23 24 24 22 25 28 27 26 25 26 21 22 26 24 27 27 27 24 16 21 21 23 20 17 23 21 22 23 24 26 27
48 48 55 56 57 56 56 44 34 28 25 26 25 24 25 23 24 24 26 26 29 29 27 26 24 26 27 27 26 27 26 27 22 22 23 25 21 21 23 23 25 23 24 29 29
49 52 53 55 57 57 50 38 30 27 27 27 25 23 25 26 22 25 26 27 29 30 28 30 26 31 27 27 27 26 28 29 26 27 25 26 26 23 26 28 29 30 30 30 31
49 54 48 54 55 55 46 29 28 28 27 28 26 25 25 25 26 26 27 29 29 31 32 31 29 32 33 32 30 28 30 27 28 25 24 24 24 23 27 27 29 31 31 31 33
54 48 49 53 55 49 37 28 26 27 30 30 29 28 28 29 30 28 28 32 32 32 33 34 33 31 32 31 30 28 27 29 30 29 29 27 27 29 29 30 31 30 31 32 33
51 43 49 53 45 45 34 30 29 30 31 31 33 33 31 32 31 31 32 33 33 32 34 34 32 30 29 31 32 27 30 29 28 30 30 30 29 31 31 32 31 31 32 33 32
47 46 52 51 39 35 32 33 36 34 33 33 33 33 33 33 32 33 33 35 33 34 33 34 30 27 24 28 32 31 31 32 31 30 27 27 27 31 30 30 32 32 33 34 35
47 35 45 46 44 35 33 33 34 36 34 34 34 34 34 33 34 31 31 35 36 35 36 35 33 30 26 28 32 30 31 31 31 28 28 28 28 28 28 29 32 34 35 35 37
45 39 40 38 38 37 37 34 34 35 35 34 34 33 33 32 33 33 35 36 37 37 35 35 32 33 33 33 32 30 30 30 30 29 28 28 28 28 28 33 35 36 37 36 39
43 44 44 38 36 36 34 33 32 31 31 34 32 35 35 34 36 36 37 37 36 36 37 38 33 35 33 34 34 31 31 31 30 30 29 29 27 29 31 38 38 37 38 39 39
46 45 48 41 37 35 36 33 33 34 36 34 35 35 34 38 39 40 40 39 38 37 36 36 35 33 30 33 32 29 26 28 29 28 28 27 31 37 36 37 38 38 39 39 39

GFSSW_sfc_30mbdewp_012.txt.gz
Dewpoint
51 51 51 51 52 53 53 53 53 53 53 53 54 54 55 55 50 41 22 27 30 40 43 34 29 27 25 19 10 7 4 7 6 5 7 7 11 13 14 15 24 44 42 46 52
52 51 52 52 51 52 52 53 53 53 53 54 54 55 55 54 45 27 28 33 37 47 27 27 26 26 14 11 13 9 6 11 11 9 11 14 15 9 8 20 40 46 51 52 57
52 52 52 52 52 52 53 53 53 53 53 54 54 55 54 53 35 26 31 36 41 49 35 33 30 24 13 14 13 14 15 16 17 16 17 20 19 18 14 19 40 44 50 54 55
53 53 53 52 53 54 54 54 53 53 54 53 54 55 54 47 20 28 33 36 40 46 32 27 24 22 16 20 18 16 19 18 19 19 19 20 19 19 18 18 23 49 52 53 51
53 53 53 53 54 54 54 54 53 53 53 53 54 53 44 32 28 30 34 32 30 29 25 23 25 25 24 22 20 18 19 20 20 21 20 20 17 17 18 19 23 42 47 50 50
52 52 52 52 53 53 53 53 53 53 53 53 54 53 41 26 30 30 31 30 28 26 24 23 24 26 25 22 21 23 22 22 22 21 22 20 20 20 19 19 23 32 34 36 37
52 52 52 52 52 52 53 53 53 53 53 52 53 50 44 27 31 32 30 30 28 28 24 23 24 24 25 27 26 23 21 21 22 20 17 15 12 12 14 19 21 27 29 30 32
52 52 52 51 51 51 52 52 52 52 52 53 53 50 27 31 32 28 30 29 30 30 27 26 26 24 26 27 28 24 21 18 20 22 17 13 11 13 17 20 21 22 26 29 30
51 51 51 51 50 51 50 49 49 51 53 53 49 44 29 30 27 28 27 27 27 31 31 29 27 25 25 21 19 18 15 16 18 19 21 15 16 19 22 20 20 21 22 25 26
50 50 50 49 49 47 45 47 49 47 52 51 46 36 30 26 27 27 24 23 23 28 29 28 28 23 20 17 12 15 14 15 18 20 24 21 20 23 23 19 19 19 20 20 22
50 49 47 47 47 48 45 46 43 35 39 24 24 25 23 24 28 23 23 24 25 27 25 22 20 16 17 18 19 17 19 21 22 22 25 24 24 23 21 19 20 22 23 26 28
49 48 46 45 45 48 52 45 47 48 32 27 24 23 24 26 23 24 23 22 23 18 16 23 19 19 19 21 19 19 21 21 23 24 26 25 23 19 19 18 21 23 23 25 27
49 48 46 44 44 50 46 47 54 53 40 24 25 23 23 24 22 24 22 22 22 20 19 20 19 18 19 20 19 18 21 22 23 26 27 24 20 16 18 22 23 23 23 24 25
49 49 47 46 41 49 45 48 52 55 34 23 26 26 25 22 24 26 24 24 22 19 17 20 19 15 20 19 20 17 21 24 25 25 22 25 21 19 17 19 21 23 23 24 25
50 51 48 48 50 45 48 52 56 52 26 26 23 25 24 22 22 23 24 24 19 19 18 22 16 14 19 18 22 21 23 26 26 26 25 23 20 18 17 17 20 24 26 27 28
49 50 50 52 49 50 54 56 53 41 28 23 24 24 24 25 22 25 30 30 29 27 25 18 20 21 20 24 27 28 28 28 29 26 22 23 21 18 21 21 24 26 26 27 28
47 49 51 54 47 55 57 50 39 27 31 24 24 23 25 23 24 26 29 29 26 20 25 27 24 23 26 26 27 28 28 23 17 21 21 26 23 20 24 26 24 23 26 27 28
47 48 55 56 57 56 52 40 29 30 26 26 24 24 25 23 23 27 27 26 30 29 29 29 25 29 27 27 26 27 28 25 19 22 23 26 21 22 28 30 29 26 27 29 29
49 53 51 52 57 57 44 31 29 28 27 26 26 24 25 26 23 27 28 28 30 31 27 29 26 32 31 31 28 27 27 29 26 27 26 26 26 25 25 29 31 31 32 32 33
48 52 45 53 55 52 36 28 27 28 30 31 26 27 25 28 28 27 28 32 30 32 33 32 29 32 33 33 30 28 30 26 28 24 24 26 25 24 26 30 31 32 32 33 33
54 42 45 53 54 41 29 27 26 28 30 30 31 31 31 31 32 29 31 32 32 31 35 33 32 29 30 31 30 28 30 30 30 30 28 27 27 29 29 31 31 31 32 32 34
50 33 43 53 39 42 30 29 30 30 33 33 34 33 32 32 32 32 32 32 33 34 33 34 32 29 28 32 32 31 31 31 28 27 29 28 27 30 31 30 31 32 34 35 35
45 44 50 48 32 31 33 34 35 33 34 34 33 34 34 33 32 33 34 35 33 34 32 33 30 24 21 25 31 31 31 31 32 30 27 26 24 29 29 30 34 35 36 36 38
41 34 42 44 44 33 32 33 32 36 34 35 33 35 34 33 33 30 33 36 36 35 36 35 32 27 24 24 32 31 31 30 30 28 28 28 28 29 30 35 37 37 38 37 39
43 36 40 36 36 36 37 36 34 34 35 34 34 33 33 31 32 36 37 37 37 37 36 35 31 32 32 32 33 32 32 33 31 30 29 29 28 29 36 37 37 38 38 38 39
41 41 42 37 39 33 35 32 33 31 34 33 35 35 35 35 35 35 37 36 35 37 36 37 33 34 33 34 34 33 33 33 32 31 30 29 28 37 38 38 38 38 38 38 39
48 48 41 39 36 33 34 33 33 35 35 35 35 34 33 37 39 39 40 39 38 37 36 36 34 33 27 33 33 30 30 29 28 29 28 27 30 37 37 38 39 39 39 39 40

GFSSW_sfc_30mbdewp_015.txt.gz
Dewpoint
53 52 51 51 51 52 53 53 53 53 53 53 54 54 55 56 53 45 20 26 29 44 44 30 29 27 25 18 9 8 8 6 5 5 9 12 11 14 16 34 30 46 42 45 56
52 52 52 52 52 52 52 53 53 53 53 53 53 54 55 55 46 26 27 34 40 41 31 30 26 26 12 14 13 9 10 10 11 8 12 16 13 11 20 36 42 43 50 52 58
53 53 52 52 52 53 53 53 53 53 53 53 53 54 55 54 26 23 30 35 44 48 36 33 30 23 17 16 15 17 14 15 17 15 16 20 19 18 18 29 41 33 48 55 57
53 53 53 53 52 53 54 54 53 53 53 54 54 54 55 46 13 25 36 38 39 47 29 26 26 23 21 18 20 15 19 18 17 19 20 18 19 18 18 17 35 39 48 55 56
52 53 53 53 54 54 54 54 53 53 53 53 54 55 46 28 28 30 34 32 29 27 24 24 25 25 23 22 21 19 19 20 21 20 20 20 18 17 17 19 26 46 52 53 54
52 52 52 52 53 53 53 53 53 53 53 53 54 53 39 25 30 31 31 31 29 28 24 23 24 26 26 26 20 23 23 22 22 21 22 20 20 20 19 19 23 47 50 51 48
52 52 52 52 52 52 52 52 53 53 53 53 53 49 37 28 31 30 30 30 31 30 27 24 25 24 26 26 27 24 21 22 22 22 20 19 13 13 16 19 23 39 48 48 46
52 52 51 51 51 50 50 51 51 52 52 52 51 48 26 31 32 29 28 28 28 30 30 27 28 25 25 27 27 21 19 16 19 22 18 13 13 13 16 19 20 28 36 39 43
51 51 50 50 50 50 50 51 52 52 53 51 46 42 28 32 26 28 24 22 24 29 30 31 28 25 23 15 15 17 14 15 17 22 24 18 16 18 21 21 19 21 26 29 30
50 50 50 49 49 49 50 50 52 52 50 48 45 31 27 25 27 24 24 24 23 26 28 29 26 22 19 17 12 15 13 17 18 22 25 24 22 24 25 21 20 21 21 23 25
49 49 48 47 47 50 48 47 40 31 38 26 25 24 23 24 27 24 24 24 26 23 21 24 20 15 17 18 19 17 20 21 22 23 25 25 25 24 22 19 19 20 20 24 27
49 47 46 45 45 51 48 45 47 45 27 31 24 23 24 26 22 24 23 22 22 18 18 22 18 19 21 21 19 20 20 19 23 25 27 25 24 17 18 20 23 25 26 27 29
49 48 46 44 47 47 47 50 55 51 32 25 25 24 24 24 22 24 23 23 23 18 22 20 19 18 20 20 18 18 19 20 22 25 26 25 21 17 20 22 23 24 25 27 28
50 49 47 48 47 48 45 49 53 50 26 24 25 25 24 23 22 26 24 24 20 17 19 20 17 17 20 19 21 20 20 23 24 25 22 25 18 19 17 20 23 24 24 25 26
50 50 49 51 48 45 48 53 56 47 13 26 23 26 25 22 22 25 31 23 23 25 19 22 15 19 19 22 23 23 27 27 27 27 25 23 19 20 22 17 23 25 25 26 27
49 51 49 51 48 50 55 56 51 36 22 22 24 24 24 26 24 29 31 31 31 28 27 24 22 22 23 24 27 28 28 28 28 26 20 24 22 22 22 22 24 25 27 28 28
48 53 52 54 41 55 56 47 35 25 31 23 24 24 25 23 25 28 29 29 27 17 26 29 28 27 27 26 28 28 28 19 17 20 20 26 22 23 25 25 24 24 27 28 28
47 53 55 55 56 56 47 39 26 30 26 27 25 25 23 23 26 29 28 28 30 30 30 27 23 30 29 27 27 27 28 23 14 19 22 26 21 23 27 31 29 31 31 32 31
50 54 48 51 56 54 41 30 27 30 27 25 27 25 26 28 26 27 29 29 31 32 27 29 25 32 32 33 29 28 27 30 26 27 26 26 27 27 28 30 32 32 33 34 34
51 47 45 53 55 43 31 28 27 28 30 31 25 28 25 30 28 27 29 32 31 34 33 33 29 32 32 32 31 29 30 27 28 23 22 25 25 24 26 30 30 32 32 33 35
54 33 44 54 49 36 28 26 26 28 31 31 30 30 31 30 31 30 30 32 32 32 34 32 32 28 29 28 28 30 30 30 30 29 27 26 26 31 29 30 30 33 35 35 35
46 30 43 50 38 37 29 28 31 33 34 33 34 33 33 32 32 32 32 32 33 34 31 34 31 26 27 31 33 31 31 30 27 26 29 27 25 29 30 32 34 36 37 37 36
43 42 48 44 34 30 33 34 36 33 34 33 33 34 35 33 31 33 33 35 33 34 33 33 29 24 22 25 28 30 31 32 31 30 27 24 23 30 30 33 37 37 38 38 37
38 33 40 42 41 32 32 33 33 36 35 34 34 35 34 33 33 32 34 37 38 36 36 35 31 27 22 23 29 29 31 32 31 28 27 27 27 29 31 35 37 38 38 38 38
40 35 40 35 36 36 36 35 33 32 34 35 35 34 33 31 32 35 36 36 36 37 36 34 31 31 31 31 32 32 32 33 32 32 30 29 30 31 33 37 38 38 39 38 38
41 38 40 39 39 34 34 33 35 33 34 34 34 35 35 33 33 34 36 35 34 36 36 37 31 34 32 33 34 32 33 33 33 33 32 30 28 32 38 38 39 39 39 38 39
47 46 37 37 35 32 33 33 32 34 35 35 36 34 32 36 39 39 39 38 37 36 35 35 33 32 26 32 31 24 27 30 30 28 28 27 29 38 37 37 37 38 39 39 39

GFSSW_sfc_30mbdewp_018.txt.gz
Dewpoint
53 53 53 51 51 51 52 53 53 53 53 53 54 54 55 55 52 45 22 25 28 40 46 32 28 27 23 13 8 9 5 3 3 4 10 13 11 14 23 37 34 46 46 47 57
53 52 52 52 53 53 52 53 53 53 53 53 54 54 54 55 46 26 29 34 44 46 34 29 23 20 14 14 15 10 8 9 10 8 14 16 12 11 23 34 38 41 49 54 57
53 52 52 53 53 52 53 53 53 53 53 53 54 53 55 55 26 25 37 39 46 48 35 31 27 21 19 18 17 18 12 15 17 14 15 19 19 17 26 28 35 29 47 56 57
53 53 54 53 53 53 53 54 53 53 53 54 53 54 55 46 22 26 36 37 42 38 26 27 26 23 21 18 20 16 18 17 17 19 20 17 19 18 19 16 27 38 51 56 56
52 53 53 53 54 54 54 53 53 53 53 53 53 54 49 28 27 30 34 31 30 27 24 25 25 25 22 22 21 19 20 20 21 20 20 20 19 17 18 19 23 42 53 56 56
52 52 52 52 53 53 53 53 53 53 52 52 53 54 38 26 30 31 30 30 30 29 25 25 25 26 27 24 22 23 22 22 22 22 22 21 20 19 18 19 22 44 47 54 55
52 52 52 52 52 52 52 53 52 51 52 52 53 52 30 28 31 30 26 29 29 30 27 25 26 24 27 25 28 24 20 19 21 21 18 19 15 14 18 17 20 34 47 49 52
52 51 51 51 51 51 51 51 51 51 52 52 53 46 27 31 33 27 24 22 25 31 30 28 28 26 23 27 21 18 18 14 19 22 20 15 16 16 16 19 20 22 43 48 49
51 51 51 50 50 50 50 50 51 52 53 52 44 38 26 31 26 27 24 22 24 27 31 30 28 23 21 13 13 17 12 14 17 23 25 24 21 21 22 23 23 21 25 41 43
50 49 49 48 48 48 50 50 50 51 49 45 40 26 25 23 26 25 25 26 24 27 26 26 22 17 19 16 8 14 14 18 19 21 25 25 24 25 24 24 22 21 21 27 32
49 48 47 47 47 50 49 46 33 27 33 24 24 23 23 25 26 25 25 24 24 20 20 25 18 16 18 19 18 17 19 20 21 23 25 25 25 19 19 21 21 20 21 22 25
49 48 46 45 47 51 48 45 46 43 24 29 24 24 25 26 23 25 24 22 21 17 20 21 17 19 22 21 19 19 19 17 22 24 26 25 23 19 21 23 24 26 27 28 29
50 49 46 45 48 47 49 50 54 49 24 25 26 25 25 24 23 24 23 25 20 20 21 20 18 21 20 20 22 21 17 19 21 25 26 24 20 20 19 22 23 24 26 28 28
50 48 48 46 44 48 43 50 54 43 24 24 24 24 24 24 22 27 29 24 20 17 20 21 17 20 23 21 22 21 20 23 24 25 21 25 17 20 22 21 23 23 24 25 27
50 49 51 44 47 45 48 53 56 41 7 25 22 26 26 22 23 29 32 23 25 23 21 20 17 21 24 23 24 24 28 28 27 26 25 24 18 20 22 20 23 25 26 26 27
51 49 51 47 48 51 55 54 48 27 16 22 24 24 24 26 26 30 31 32 31 28 29 26 24 24 24 25 28 29 29 26 28 26 21 24 22 23 23 23 25 27 28 28 28
51 53 53 53 42 54 54 45 31 22 30 23 23 24 24 24 27 29 29 30 27 17 26 29 28 30 28 28 29 29 26 16 19 20 20 26 22 25 27 27 29 30 32 33 33
53 53 54 54 55 55 45 37 23 29 26 27 24 26 23 24 28 29 29 28 31 30 29 27 20 30 31 28 27 28 28 22 13 18 22 26 21 25 29 31 31 33 34 34 34
54 49 47 52 55 50 39 29 26 29 27 25 27 25 26 29 27 28 30 29 32 33 27 29 24 32 33 33 30 28 27 30 26 27 25 25 27 27 30 31 32 33 33 34 35
52 41 46 53 53 39 31 28 27 29 30 31 25 28 25 30 28 27 29 32 30 34 33 33 27 31 31 32 31 29 30 26 27 21 20 24 24 23 28 29 31 33 35 35 35
50 34 43 53 44 33 28 26 26 31 32 31 30 30 30 30 30 30 30 32 32 33 33 32 31 25 28 28 29 29 29 30 30 29 26 24 24 30 29 31 32 35 37 37 35
40 31 45 48 33 34 28 28 32 33 35 34 34 33 32 33 32 32 31 32 33 35 32 34 30 25 25 30 33 32 29 29 23 24 28 27 24 30 31 33 35 37 37 38 38
41 42 46 42 30 30 34 34 35 33 34 33 33 34 35 33 31 33 33 35 35 34 33 33 29 20 15 26 29 30 32 31 30 29 27 23 22 29 30 32 37 37 38 38 39
38 36 39 42 39 32 32 33 33 36 34 35 34 35 34 32 34 33 34 37 38 37 36 35 31 25 18 21 27 29 31 32 31 29 27 26 26 28 30 31 37 38 38 39 39
37 37 40 32 35 35 35 33 33 32 34 36 34 34 32 31 33 34 36 35 35 37 36 34 31 31 31 31 32 32 32 32 32 31 29 28 29 31 32 35 37 38 39 39 38
37 39 39 38 38 34 33 33 35 34 33 34 33 35 34 32 31 32 35 35 33 36 36 36 30 33 31 33 32 31 32 32 33 33 33 32 32 33 37 38 36 37 38 38 39
46 45 38 37 34 30 32 33 34 34 35 35 35 33 32 34 37 38 38 37 37 35 34 35 33 31 22 30 30 21 23 29 30 31 28 25 26 35 36 34 35 37 37 38 37

GFSSW_sfc_30mbdewp_021.txt.gz
Dewpoint
53 53 53 53 53 51 52 53 53 53 53 53 53 54 54 55 54 47 26 28 30 44 44 32 28 28 18 12 9 11 5 3 3 5 10 13 12 14 30 40 35 43 47 48 59
53 52 52 52 53 53 53 53 53 53 53 53 54 54 54 55 46 27 30 42 49 49 32 25 22 18 16 15 17 11 9 9 9 9 14 17 12 12 24 34 40 43 49 54 59
53 52 52 52 52 54 53 53 53 53 53 54 54 54 54 55 28 27 35 41 46 45 33 30 24 22 19 20 19 17 13 15 16 13 18 19 18 18 25 22 30 27 45 56 59
53 53 53 53 53 53 53 53 54 53 53 54 54 54 55 47 23 28 36 37 39 38 28 27 25 22 21 15 19 17 18 17 18 19 19 15 19 18 24 16 23 37 50 56 57
52 53 53 53 54 54 54 54 53 53 53 53 53 54 49 28 28 30 34 31 30 26 25 25 24 25 21 21 22 20 20 20 21 19 19 20 19 18 18 20 23 41 54 55 56
52 52 52 53 53 54 54 53 52 52 53 53 53 54 33 26 30 31 29 28 29 28 26 27 25 28 27 24 24 23 23 23 22 22 20 21 20 19 18 19 26 43 51 55 56
52 52 52 52 52 52 53 52 52 52 52 52 53 52 29 28 31 30 24 28 27 29 27 26 27 25 28 25 28 23 18 20 22 21 21 19 18 15 17 17 20 35 46 53 55
52 52 51 51 52 52 52 52 52 51 51 52 54 43 27 30 33 26 24 23 27 30 30 29 28 26 23 27 20 18 17 14 18 23 24 21 18 19 21 21 20 23 31 47 52
51 51 51 51 50 51 51 51 50 50 52 53 43 32 26 28 26 27 24 24 25 30 30 28 26 23 21 15 12 17 9 14 18 24 25 24 20 24 24 25 26 25 23 34 47
50 50 49 50 50 50 50 50 49 49 48 44 35 23 24 23 25 26 25 27 25 26 25 24 20 19 20 14 5 14 15 18 19 22 26 25 25 24 21 22 22 22 22 24 35
50 49 48 48 47 50 47 45 29 26 31 23 24 23 23 25 26 26 25 24 23 23 21 24 19 17 19 19 19 17 19 20 21 24 25 26 24 21 23 25 26 27 26 24 27
50 48 47 47 48 50 49 42 40 39 23 27 24 24 24 25 24 26 26 21 21 18 22 20 17 19 21 20 19 20 18 17 22 24 27 25 21 20 23 24 26 27 28 29 30
49 48 47 48 49 48 49 50 53 47 23 25 26 25 25 25 26 27 26 26 21 21 21 20 17 22 20 23 23 22 19 20 21 24 27 24 21 22 21 24 25 25 27 29 30
49 48 50 47 44 47 43 50 53 42 22 23 24 24 25 24 23 31 32 24 22 18 21 20 19 23 24 22 23 21 22 27 26 25 21 25 16 22 22 23 25 27 27 27 28
50 51 48 42 46 42 47 53 55 36 4 24 24 26 28 23 24 29 33 28 24 22 23 18 20 24 25 23 25 25 29 28 27 27 25 25 19 22 23 24 27 29 31 32 33
51 50 50 46 48 51 54 52 46 21 13 22 25 25 24 27 29 30 31 32 30 28 29 26 27 25 26 25 28 30 29 27 28 26 22 25 22 24 24 27 29 31 34 35 34
54 53 52 49 42 54 52 43 27 17 29 23 22 25 25 26 28 29 30 31 27 18 25 28 28 30 29 27 29 30 25 17 20 21 20 26 22 26 29 30 31 33 34 35 36
53 52 53 54 55 53 44 35 19 29 26 27 25 26 23 26 28 30 29 29 32 30 29 25 20 29 32 29 27 29 28 22 11 16 21 27 23 26 31 32 34 34 35 36 37
52 46 48 51 54 47 39 28 25 27 27 26 27 25 26 30 27 29 30 30 32 34 26 28 23 32 33 33 30 28 28 30 26 27 25 25 27 30 32 32 33 34 36 35 36
45 43 46 52 51 38 32 27 27 30 30 29 25 27 25 30 27 28 29 32 30 34 33 32 26 31 31 32 31 29 31 26 28 20 18 22 25 23 29 30 32 35 36 37 36
43 40 43 53 42 33 28 27 27 33 33 30 30 29 30 30 30 30 30 32 32 33 33 31 30 24 27 30 30 30 29 30 30 29 25 23 22 30 29 31 32 35 37 38 38
37 37 46 48 32 33 28 28 32 33 35 34 33 33 32 33 32 32 32 31 34 34 32 33 30 23 24 32 33 32 29 28 21 22 28 28 23 29 32 33 35 37 38 39 39
41 42 45 42 29 31 34 34 34 33 34 33 33 34 35 33 31 33 33 36 36 34 33 33 28 16 11 27 29 31 31 30 29 29 27 24 21 28 32 32 36 37 38 38 39
38 37 40 39 37 33 32 33 34 36 34 36 35 35 33 32 35 33 34 37 37 37 36 35 31 22 13 15 25 27 30 31 31 29 26 26 25 27 29 31 35 36 36 38 39
38 38 39 32 34 34 33 33 33 32 34 36 34 33 32 31 33 34 36 34 35 37 37 35 29 31 30 30 31 31 31 32 31 31 29 27 28 29 31 33 36 35 37 38 38
37 39 39 37 36 34 33 33 33 34 33 34 33 34 33 30 30 31 34 34 31 36 35 36 30 32 30 32 31 29 30 31 32 32 32 32 31 33 35 38 36 36 36 37 39
46 43 39 36 32 32 32 34 34 34 36 36 35 33 32 35 36 37 37 37 36 34 34 34 33 31 21 29 29 21 22 28 30 32 30 26 26 33 36 35 34 35 37 38 36

GFSSW_sfc_30mbdewp_024.txt.gz
Dewpoint
54 53 52 53 53 54 52 52 53 53 53 54 54 54 55 55 54 46 28 31 36 43 39 30 28 27 14 12 12 12 3 4 5 5 8 12 11 15 30 32 36 38 39 46 54
54 53 52 53 52 53 53 54 54 53 53 54 54 54 55 55 43 27 32 43 50 50 32 23 18 16 13 15 15 7 4 5 8 10 8 10 9 15 21 22 27 36 44 51 56
53 53 52 52 52 52 54 54 53 53 54 54 53 54 54 54 29 27 36 41 47 45 30 25 21 18 15 17 17 13 7 11 10 13 11 11 12 13 14 14 16 18 36 50 55
53 53 53 52 52 53 54 53 53 54 54 54 54 54 54 45 20 28 34 36 42 38 30 26 21 16 13 10 14 11 14 8 12 16 13 11 13 14 15 13 21 27 36 47 49
53 53 53 54 54 54 54 53 53 53 54 53 54 54 50 28 26 28 31 29 30 27 24 23 17 17 12 15 17 17 20 21 19 19 20 21 18 18 16 17 21 32 41 43 44
52 52 53 53 54 54 54 54 53 53 53 53 53 54 38 23 30 29 25 26 29 27 26 25 24 21 22 22 20 23 22 22 22 22 21 20 20 20 18 19 22 32 36 41 43
52 52 52 52 52 53 53 53 53 52 53 53 53 52 28 26 29 27 25 26 28 30 27 28 28 24 26 26 27 24 20 21 22 22 23 20 16 15 21 19 19 29 34 39 42
52 52 52 52 52 52 52 52 52 52 52 52 53 46 26 31 30 25 23 26 30 31 31 30 28 26 27 24 20 18 17 12 21 23 24 23 15 19 25 23 22 21 27 38 42
51 51 51 51 51 51 51 51 51 51 51 52 46 34 23 27 24 26 26 26 29 31 31 28 26 24 21 17 13 12 5 9 16 23 23 22 16 23 22 23 25 25 26 27 35
50 50 50 50 50 51 51 50 50 50 48 44 32 24 23 23 25 26 25 28 27 29 26 25 22 18 16 8 0 8 9 16 14 19 21 22 21 21 24 24 24 24 24 25 30
50 49 48 48 49 50 50 47 34 30 28 25 24 23 24 25 27 25 26 25 24 25 20 23 17 17 18 19 17 15 15 15 16 23 24 24 19 21 23 24 25 25 26 28 30
50 49 48 47 49 50 52 38 42 40 24 28 26 25 26 27 23 26 28 22 23 19 24 19 19 21 21 20 19 19 17 17 21 24 26 23 19 21 23 25 26 26 27 28 29
49 48 47 49 50 52 50 50 54 49 23 26 28 25 25 28 28 28 27 25 20 19 20 17 19 22 21 24 23 22 20 23 22 24 26 23 21 20 23 24 25 27 27 28 30
50 49 50 48 47 47 46 51 56 47 19 22 23 25 26 25 26 31 31 25 23 20 20 19 22 24 24 24 25 20 24 28 26 24 15 25 16 21 22 24 27 30 33 34 32
51 50 48 46 48 41 49 54 57 45 14 25 24 27 28 25 26 29 33 27 22 23 24 19 22 24 24 25 28 26 30 28 28 25 23 22 17 22 22 25 28 32 34 35 34
51 51 49 49 53 53 55 55 51 29 16 23 25 25 26 29 29 29 30 30 31 27 24 24 27 28 28 28 28 31 29 28 29 27 22 25 22 21 23 27 29 32 34 36 36
53 52 51 51 46 56 55 47 25 19 29 22 24 25 27 27 29 29 30 31 26 22 23 24 26 29 31 26 30 28 26 19 22 22 20 26 22 26 29 30 31 32 34 36 37
52 53 54 54 56 57 49 36 19 28 26 26 26 26 25 28 29 30 28 27 31 28 24 22 22 28 32 29 28 29 28 24 18 16 19 26 18 25 30 31 32 33 35 36 37
50 51 51 55 57 52 37 30 27 26 27 24 26 24 26 29 28 29 30 29 31 32 26 25 23 32 32 32 31 29 28 30 28 29 25 20 26 29 31 31 32 33 33 34 36
45 46 49 56 54 47 38 28 29 30 30 28 24 27 25 28 28 28 29 32 31 34 34 31 26 30 29 32 32 30 31 28 27 24 16 13 20 19 29 30 31 32 33 35 36
46 36 50 55 49 39 33 31 29 33 34 29 29 29 30 29 29 30 30 32 33 33 33 29 29 25 27 28 29 29 29 30 28 29 23 19 13 28 28 30 31 33 35 36 37
45 36 51 53 37 36 31 30 33 34 35 35 34 33 32 33 32 32 31 32 35 35 29 34 30 21 20 30 33 31 29 27 25 24 27 25 19 27 28 32 33 34 36 37 37
43 44 48 48 37 37 35 35 35 33 34 33 34 35 36 34 32 33 33 37 36 35 33 33 28 16 18 27 31 29 30 30 28 30 25 24 20 26 31 32 30 34 34 33 34
42 42 42 40 39 34 33 34 34 36 36 36 35 35 34 34 35 34 34 37 39 37 36 36 30 19 12 14 21 20 22 26 27 28 24 23 22 23 24 25 30 33 34 34 34
42 42 43 40 37 35 35 34 33 33 36 36 34 34 33 33 33 34 35 36 36 37 38 35 27 28 26 26 25 26 26 25 26 27 26 25 22 24 25 28 31 34 34 34 34
42 43 42 40 39 35 36 34 32 34 33 33 33 34 31 30 27 31 31 32 29 36 36 37 31 33 30 28 27 27 26 26 27 28 27 27 27 28 29 31 34 34 34 34 35
48 44 45 38 38 37 35 34 33 35 37 37 35 34 34 34 35 38 38 37 35 33 35 36 35 32 26 28 28 26 26 25 27 27 28 26 25 28 29 33 34 34 35 36 37

GFSSW_sfc_30mbdewp_027.txt.gz
Dewpoint
55 55 53 53 53 53 54 54 53 53 54 54 54 54 55 55 54 47 28 31 36 42 37 31 28 23 15 11 11 10 6 6 6 6 5 8 7 10 18 19 25 28 36 40 50
54 54 54 53 53 52 53 54 54 54 54 54 54 54 54 55 45 25 34 41 47 51 33 23 19 13 12 11 8 8 3 4 5 5 5 6 6 11 19 17 21 28 34 45 49
54 54 53 53 53 53 53 54 54 54 54 54 54 54 55 54 39 24 37 39 45 46 30 20 13 12 11 10 8 7 6 6 5 6 4 3 4 8 10 13 17 21 30 42 45
54 53 54 53 53 53 53 54 54 53 54 54 54 54 55 48 21 27 32 35 41 41 26 19 15 12 10 10 9 6 4 3 5 9 9 7 9 8 8 12 17 21 31 38 41
53 53 53 54 54 53 54 54 53 53 54 54 54 54 50 37 23 27 29 29 32 27 21 17 13 11 7 7 7 8 8 7 10 13 14 16 12 10 11 14 16 23 31 37 41
53 53 53 53 54 54 54 54 54 54 53 53 54 54 45 24 27 25 26 24 25 21 18 17 15 13 9 10 13 15 17 18 18 18 19 18 15 17 16 17 17 22 28 34 35
53 52 52 53 53 53 53 53 53 52 53 53 54 50 34 25 26 24 23 24 26 27 20 22 19 15 17 20 19 18 17 19 20 20 21 19 13 12 17 17 18 23 25 30 34
52 52 52 52 52 52 52 52 52 52 52 53 53 46 28 27 27 23 22 23 27 29 27 25 25 23 21 23 17 16 16 14 19 20 21 20 16 15 21 21 20 18 25 29 33
51 51 51 51 51 51 52 51 51 52 52 52 48 44 23 26 23 21 23 22 27 29 28 25 25 20 24 18 14 13 10 8 16 19 19 17 16 21 22 22 20 19 20 24 30
50 50 50 51 51 51 50 50 51 51 48 43 34 26 20 20 21 24 25 28 27 27 25 23 20 19 16 12 7 5 4 8 8 17 16 15 16 19 23 22 23 24 23 24 26
51 49 50 50 50 50 49 44 36 37 29 25 21 22 20 21 26 23 25 25 26 25 21 21 18 14 15 15 13 9 8 10 13 18 18 19 17 20 23 22 24 24 25 27 32
51 50 49 48 48 49 52 39 41 36 23 25 25 25 26 25 20 24 26 23 23 18 20 14 16 20 18 16 14 15 15 15 18 20 20 20 17 21 23 25 25 26 27 29 31
50 50 49 48 49 53 46 46 49 44 21 24 25 23 25 25 25 25 25 21 17 15 12 15 19 20 19 19 18 19 18 21 20 21 21 21 18 20 22 24 26 26 28 29 30
50 50 50 50 49 47 44 49 52 50 21 18 21 23 24 25 24 28 29 24 19 13 14 18 21 21 20 21 23 19 23 24 23 21 16 21 14 20 21 24 28 31 33 32 31
51 50 49 48 45 38 47 51 55 50 15 23 22 27 24 25 25 26 29 23 17 19 22 19 20 22 22 24 26 24 28 26 25 23 19 19 13 20 21 24 28 31 33 35 36
51 51 49 49 52 50 51 54 52 33 18 21 23 24 25 26 27 28 26 28 28 20 20 21 25 26 26 27 27 28 28 25 26 23 20 17 18 20 21 24 29 32 34 35 36
52 52 51 51 43 54 56 48 23 24 25 21 22 24 24 25 27 27 26 28 25 22 22 23 24 28 30 25 28 26 24 21 21 21 20 24 20 24 28 29 30 32 34 35 36
52 53 55 54 54 57 49 30 23 26 20 23 23 24 23 26 27 28 25 25 28 25 21 20 24 26 28 27 26 26 25 25 19 18 17 22 14 25 29 31 32 32 34 35 35
51 53 50 56 57 54 35 26 21 20 24 22 23 22 23 26 26 28 28 27 29 30 25 23 23 29 29 30 29 27 27 28 25 30 23 15 24 29 29 30 31 32 32 34 34
43 42 45 57 57 49 33 28 27 28 26 23 21 26 23 25 25 26 27 30 29 30 31 27 25 28 26 29 31 26 29 26 27 24 17 10 14 16 29 29 31 31 32 34 35
42 34 52 56 53 32 30 29 29 31 30 26 26 25 26 27 27 27 28 31 31 30 29 24 25 24 22 25 21 24 26 27 25 24 22 17 14 24 25 26 28 30 32 33 35
43 34 52 53 31 30 32 30 31 31 34 32 31 29 29 29 29 29 29 32 34 32 27 29 26 21 17 25 29 27 26 25 23 21 24 26 22 25 24 28 29 29 32 35 35
37 41 50 51 34 32 35 33 32 32 31 32 33 33 34 31 30 31 32 37 34 33 32 31 27 20 18 26 30 26 25 26 25 28 22 20 21 24 27 29 31 31 32 33 33
40 40 40 42 39 30 32 31 33 36 34 34 34 34 33 32 32 33 33 36 38 36 35 35 26 21 18 17 19 19 20 20 21 24 25 23 21 22 23 25 27 27 30 32 33
40 41 42 37 36 34 33 32 31 31 34 34 33 32 31 31 31 32 33 36 36 36 35 33 29 25 25 22 20 20 21 22 21 21 23 23 23 24 26 27 28 29 32 32 32
37 41 42 41 37 35 35 32 30 32 31 31 31 31 31 32 27 29 29 28 28 34 33 34 31 32 28 24 20 19 21 22 22 23 24 24 23 27 28 27 28 31 31 32 34
46 46 43 40 37 35 34 32 31 34 37 32 32 30 31 31 34 35 36 34 32 31 33 34 35 31 28 30 28 27 27 21 22 24 24 24 26 26 27 30 32 35 35 37 39

GFSSW_sfc_30mbdewp_030.txt.gz
Dewpoint
55 55 55 55 53 53 53 54 55 54 54 54 54 55 55 55 54 51 35 31 36 40 37 31 29 26 23 15 13 11 13 14 13 16 11 11 11 12 19 17 23 34 34 46 50
55 54 54 55 55 53 53 53 54 54 54 54 54 55 55 55 49 37 35 37 40 49 35 29 23 21 15 13 9 8 7 5 6 6 5 6 5 12 19 18 23 32 44 48 48
54 55 54 54 55 54 54 54 54 55 54 54 55 55 55 54 43 27 37 37 41 48 40 29 16 13 12 10 8 8 7 5 5 7 3 5 5 12 12 14 22 25 40 45 46
54 55 54 54 55 54 54 54 54 55 54 54 55 55 55 51 25 26 32 34 40 40 35 18 13 12 9 8 8 6 3 1 5 8 5 4 4 6 9 14 17 25 31 43 43
54 54 54 53 54 55 54 54 54 54 53 54 54 54 52 40 26 26 27 30 38 36 29 19 14 11 8 7 6 4 0 5 6 9 14 11 9 7 10 14 17 26 31 38 39
54 54 53 53 54 54 55 54 54 54 53 53 54 54 49 31 25 23 23 23 23 22 17 16 14 12 6 6 9 9 10 11 13 15 14 13 14 14 12 15 15 23 30 36 39
54 54 53 53 53 53 54 53 53 53 53 53 54 52 40 30 23 22 21 22 23 24 21 20 17 12 14 17 15 14 15 16 17 18 19 16 14 13 16 17 18 20 23 31 34
54 53 52 52 53 53 53 52 52 52 53 52 54 49 36 27 25 22 19 19 22 24 24 21 22 22 21 18 14 12 15 15 16 18 20 19 16 12 17 18 18 18 22 25 33
53 52 52 52 52 52 52 52 51 52 52 52 51 46 31 24 22 19 20 20 23 25 26 23 23 16 20 15 14 14 12 14 17 17 19 17 16 18 22 22 20 19 20 25 28
51 51 51 51 51 51 51 50 51 50 50 47 42 32 23 18 20 20 21 27 23 25 21 22 22 19 18 16 13 9 5 6 9 16 13 13 13 19 21 21 20 20 19 23 25
51 50 51 51 51 50 50 45 38 38 36 26 21 23 17 16 20 20 23 25 26 25 22 20 18 17 15 14 10 8 7 6 10 17 15 12 16 19 21 22 23 24 25 32 37
51 51 50 50 49 50 50 43 41 38 26 24 23 23 22 23 19 20 25 24 22 21 21 14 15 19 16 14 11 10 13 14 17 18 16 18 16 20 23 25 25 28 31 33 35
50 51 50 49 49 50 46 46 47 47 22 22 24 21 24 25 22 21 25 22 19 19 13 19 20 17 15 16 16 15 16 22 19 20 20 18 18 20 23 25 27 29 30 31 33
50 50 50 50 49 47 44 46 50 51 20 16 20 20 23 23 22 24 24 24 16 12 11 20 18 17 18 19 22 17 25 24 21 20 16 19 14 19 22 24 28 31 32 31 33
51 50 50 49 53 40 46 49 51 48 20 20 20 24 21 24 23 23 23 20 17 17 19 19 19 20 21 25 24 23 26 24 23 22 20 17 19 18 22 23 29 32 34 35 36
50 51 50 49 55 49 51 53 50 36 24 19 20 23 21 23 25 24 22 25 26 16 20 21 24 26 26 25 26 25 27 25 25 23 22 20 16 19 21 24 30 32 34 35 36
50 52 50 51 48 53 56 49 25 27 21 20 20 22 23 23 24 24 24 25 25 21 21 22 24 27 27 25 27 26 24 24 25 23 22 24 21 25 27 28 31 33 34 36 37
51 52 55 54 53 57 51 35 27 25 18 19 21 23 23 24 25 26 24 24 26 28 21 20 24 26 26 26 25 26 23 26 22 25 26 23 17 27 30 31 32 33 34 35 36
52 55 52 58 58 55 42 29 24 19 22 21 21 20 23 25 26 26 27 26 28 30 26 21 24 27 27 27 26 25 28 25 22 29 28 18 26 29 30 30 31 32 33 34 35
46 44 45 57 58 53 40 30 28 27 22 21 19 22 20 22 24 25 25 29 28 28 28 25 25 26 23 26 31 25 24 23 28 23 20 14 16 26 28 29 31 31 32 33 34
50 36 54 56 55 38 31 32 29 28 28 23 22 22 23 23 25 25 27 29 30 28 27 24 25 24 22 24 19 23 23 25 23 22 22 21 18 21 23 27 29 30 30 32 34
46 36 53 54 32 31 30 30 30 29 33 31 29 25 26 27 26 27 28 33 32 30 27 27 25 24 18 22 25 25 25 24 24 24 28 26 25 24 24 27 28 30 32 33 34
37 45 51 51 33 31 34 31 30 29 28 30 31 31 32 29 30 30 34 35 33 35 34 31 27 23 22 26 29 21 21 21 24 28 26 24 20 23 26 33 32 31 33 34 35
44 39 38 42 42 32 32 32 32 35 33 32 32 32 31 31 31 31 34 36 36 36 33 36 27 22 20 18 19 17 17 18 19 23 25 25 24 24 25 30 30 29 31 32 32
44 39 35 34 36 33 30 29 31 32 33 33 31 30 30 30 30 31 33 35 36 35 34 34 29 26 25 21 20 17 16 16 17 21 21 23 21 24 28 28 28 34 34 34 35
43 40 41 38 34 34 33 30 29 29 32 30 30 30 31 32 29 30 31 30 30 33 32 33 32 34 28 22 21 19 18 22 20 21 20 23 23 27 28 33 34 35 36 35 39
45 47 42 40 38 35 35 32 30 33 36 33 31 31 34 34 37 36 35 32 30 32 32 34 36 33 28 31 29 27 28 22 21 23 24 24 25 26 31 34 35 35 37 37 37

GFSSW_sfc_30mbdewp_033.txt.gz
Dewpoint
56 56 56 56 56 54 53 54 54 55 55 54 55 55 55 55 54 53 35 37 37 36 37 31 31 33 31 27 25 18 13 11 12 15 14 13 12 15 21 27 40 40 48 50 50
54 54 55 55 55 55 54 54 54 54 55 55 55 55 55 55 51 42 41 35 40 46 32 29 28 29 25 19 19 13 10 6 9 9 7 8 8 14 19 25 43 48 50 50 48
53 53 54 55 55 55 55 54 54 54 54 55 54 55 55 54 47 36 35 37 42 48 35 35 31 24 21 17 11 6 4 5 8 5 5 9 11 16 17 23 39 47 48 48 47
53 53 54 55 55 55 55 54 54 54 55 54 54 55 54 52 31 26 34 40 39 45 38 35 29 15 12 12 8 1 4 6 9 9 3 3 4 8 15 22 30 47 47 47 46
52 53 54 54 54 55 55 54 54 54 54 54 54 54 52 47 37 27 34 42 42 35 34 33 23 13 12 9 4 1 5 6 8 14 13 9 5 10 14 21 28 44 45 45 45
54 54 54 54 53 54 54 55 54 54 54 54 54 54 49 33 29 24 23 24 30 34 30 31 21 15 9 12 7 5 5 7 9 15 14 12 13 14 13 16 28 34 42 42 43
54 54 54 53 53 53 53 54 54 53 53 53 54 52 47 39 29 25 22 22 22 23 23 22 22 22 20 17 12 15 12 13 15 16 15 16 16 13 14 14 22 28 36 38 40
54 54 53 53 53 53 53 53 52 52 53 53 53 51 38 33 26 24 21 20 21 25 27 26 25 25 23 16 14 13 16 14 17 18 19 18 16 13 17 17 18 21 21 33 39
53 53 53 52 52 52 52 52 52 52 52 53 49 49 36 25 21 20 20 24 24 24 26 23 21 21 19 14 14 13 12 16 16 18 20 18 17 17 20 21 20 20 22 24 37
52 52 52 52 52 51 51 51 52 50 52 48 46 40 39 21 20 20 22 26 25 25 22 23 23 21 19 18 16 10 11 17 16 14 12 12 19 21 21 21 22 27 33 40 41
51 51 51 51 51 51 49 45 39 39 44 35 29 33 18 17 19 20 23 25 26 25 23 22 21 19 14 13 10 10 12 12 16 17 14 14 18 21 23 25 33 36 37 39 41
51 51 50 51 51 51 49 48 44 44 32 35 26 23 21 22 19 23 25 24 23 23 25 22 19 17 15 14 13 12 16 20 18 19 15 15 19 23 25 28 32 34 36 38 41
51 51 51 50 50 48 45 48 49 51 29 23 24 20 24 26 23 22 25 26 23 22 22 20 17 15 16 21 20 23 22 21 20 20 21 19 19 23 26 28 30 32 35 38 41
51 51 51 49 47 49 45 47 51 54 22 20 21 21 24 24 22 24 23 24 20 20 21 20 19 19 19 23 23 24 28 25 22 21 19 21 15 22 24 26 30 32 33 37 40
51 50 50 51 46 50 48 51 51 49 19 17 22 21 21 24 23 22 22 25 21 18 22 19 20 25 25 24 24 24 25 25 25 24 23 22 18 20 24 30 32 34 35 37 38
51 50 50 49 51 54 56 56 50 36 20 21 22 23 18 24 24 22 22 25 26 20 22 22 27 27 26 26 26 26 26 27 27 26 22 27 24 20 23 30 33 34 35 36 37
50 50 49 52 52 55 57 51 26 31 24 19 20 22 24 23 23 23 21 26 27 21 20 22 25 28 26 26 27 27 25 25 23 26 23 31 29 32 31 32 33 34 36 36 37
51 52 57 59 59 58 54 38 29 24 19 20 22 24 24 24 25 25 25 26 28 32 25 24 23 26 27 26 25 27 26 26 21 22 25 24 26 29 31 34 35 36 36 37 37
52 57 56 59 59 56 46 36 31 24 22 21 21 23 23 26 27 27 27 27 27 29 26 27 24 27 26 26 27 22 27 25 22 30 27 25 28 30 31 32 33 34 34 35 36
51 50 52 58 58 54 42 37 30 27 23 22 20 22 22 23 25 27 28 30 28 29 29 25 24 24 23 25 31 28 24 22 29 22 21 21 26 29 30 30 31 32 34 35 35
52 40 55 59 55 44 35 35 29 28 33 30 24 21 26 23 25 27 29 30 32 27 26 28 28 24 21 22 23 25 25 25 25 25 21 21 20 27 30 32 30 33 34 35 35
50 37 56 57 30 38 32 33 29 29 32 32 31 25 27 26 28 28 31 32 32 32 28 27 26 22 22 25 27 25 25 26 23 23 27 26 23 29 33 34 34 33 33 35 36
45 48 55 55 27 33 33 31 30 29 29 30 31 33 32 31 30 35 35 36 37 35 34 29 25 23 24 27 29 21 21 20 26 28 23 22 21 27 32 32 34 34 31 35 36
50 39 46 48 46 40 33 31 32 35 33 32 32 32 32 31 33 35 35 37 37 32 32 36 27 23 21 21 20 17 18 17 19 23 24 25 25 26 33 35 35 36 35 38 39
49 40 37 32 29 37 35 33 33 33 34 34 32 32 32 30 32 34 36 36 37 33 34 34 29 30 29 24 22 20 19 19 17 18 19 21 24 28 32 35 36 37 36 39 39
47 45 40 34 29 36 35 30 33 33 33 32 31 31 33 32 34 34 35 33 33 33 34 34 33 31 23 30 26 20 22 25 23 22 24 25 25 33 35 35 36 37 37 37 37
48 48 48 42 30 36 35 33 32 34 35 36 33 37 36 35 36 37 36 34 35 33 34 37 34 31 19 30 27 26 25 22 23 25 25 24 30 34 35 35 36 37 37 36 35

GFSSW_sfc_30mbdewp_036.txt.gz
Dewpoint
55 55 55 56 56 56 56 54 54 54 54 55 55 55 55 55 54 52 36 31 42 43 34 30 32 33 33 29 25 18 16 12 11 18 15 13 20 23 36 41 45 45 50 49 46
54 53 54 54 55 56 56 55 54 54 54 54 55 55 55 54 51 43 40 41 45 40 31 27 23 28 28 23 23 19 14 12 12 15 9 9 18 22 38 45 48 49 51 49 44
53 53 53 53 54 56 55 55 55 54 54 55 55 54 54 54 45 34 40 43 43 46 32 32 28 28 25 22 16 12 5 7 8 7 8 14 16 18 37 44 48 48 49 46 43
53 53 53 53 54 56 55 55 54 54 54 55 54 54 54 52 27 28 32 40 46 49 35 35 35 30 18 13 12 4 7 9 10 7 9 9 10 13 21 39 49 49 48 46 43
53 52 52 53 54 55 54 55 54 54 54 54 54 54 52 45 35 35 36 44 49 40 33 33 30 21 13 9 5 4 6 8 15 13 6 5 11 15 20 40 49 49 48 46 44
55 54 54 54 54 54 54 54 54 54 54 54 53 54 46 30 34 27 31 44 35 32 30 33 28 22 19 13 3 6 6 6 13 14 14 12 13 14 19 42 47 47 46 47 45
55 54 54 54 54 53 53 53 53 53 53 53 53 52 47 33 39 35 24 21 23 28 25 25 25 23 21 9 10 8 9 11 14 14 11 17 15 12 19 41 45 46 46 46 45
54 54 53 53 53 53 53 53 52 53 53 53 53 51 34 37 34 26 22 20 22 25 26 25 22 24 18 16 15 13 15 13 15 16 18 16 14 14 15 29 39 42 43 43 43
53 53 53 53 52 52 52 52 52 52 52 52 49 49 24 37 21 20 20 22 25 24 25 23 23 22 19 14 13 15 12 14 16 19 19 18 17 17 16 19 23 27 38 41 44
52 52 52 52 52 51 51 51 51 51 52 50 47 40 38 32 20 20 22 25 25 25 25 22 24 21 20 16 11 13 10 16 16 17 17 17 18 18 21 30 36 40 41 43 44
51 51 51 51 51 51 49 46 39 39 43 26 31 35 27 24 20 19 21 25 26 25 22 25 20 18 14 16 14 12 14 16 16 16 14 16 19 22 33 36 39 40 41 42 43
51 51 51 51 51 51 49 45 43 44 28 31 36 35 34 18 20 22 25 23 23 23 25 22 18 17 17 22 22 18 17 17 18 20 14 19 22 26 32 35 38 40 41 42 43
51 51 50 50 51 48 43 46 48 50 39 23 29 26 23 25 23 22 25 25 23 21 22 20 18 15 23 23 24 26 23 22 20 22 21 20 22 27 30 34 37 39 41 42 42
51 51 51 50 45 48 38 42 48 50 24 21 21 21 23 25 21 24 23 23 23 20 19 18 20 23 24 22 24 25 26 24 22 20 11 21 17 24 28 31 35 38 40 42 42
51 51 50 50 46 50 49 55 52 48 14 19 21 22 22 24 23 21 22 26 20 19 20 20 26 26 24 24 24 24 25 23 24 23 24 23 20 21 31 31 34 36 39 41 42
51 51 50 49 49 54 57 56 44 30 15 18 23 20 20 24 23 21 22 26 27 22 23 24 28 26 26 26 25 27 27 29 28 27 22 27 26 21 29 32 34 36 38 40 41
51 51 49 53 51 56 56 43 20 30 24 19 21 19 22 23 23 22 26 28 28 20 20 24 27 28 27 27 27 27 27 23 23 25 23 30 29 30 32 33 35 36 37 38 39
52 51 54 58 59 56 49 31 28 28 22 21 23 25 23 25 25 26 26 26 28 32 23 23 24 26 27 26 24 26 28 24 19 19 19 28 28 30 34 36 36 36 37 37 37
52 54 56 57 58 54 40 28 31 27 22 21 23 24 25 25 25 27 27 26 27 28 24 25 23 28 24 26 27 23 26 25 24 28 24 26 29 30 34 34 35 38 39 41 38
50 51 51 58 57 47 40 36 33 29 27 23 21 24 22 24 25 27 28 31 27 28 30 27 24 26 24 26 28 26 25 24 26 19 18 22 27 29 31 33 34 34 36 36 37
51 37 50 58 49 37 31 35 30 31 33 26 26 22 24 23 26 29 30 32 31 29 27 28 27 23 26 22 23 24 25 25 26 26 20 21 20 31 31 32 33 35 36 37 36
48 35 54 49 24 38 30 31 30 29 32 31 32 32 26 26 30 32 31 31 36 35 25 29 25 21 22 25 27 26 26 26 19 19 27 25 21 33 32 32 33 33 36 36 37
43 49 55 48 17 30 31 33 31 29 30 30 31 33 32 31 31 35 34 38 34 34 32 30 25 20 23 27 29 23 24 25 29 27 21 18 19 29 33 34 35 36 37 38 38
47 38 44 49 43 31 29 31 32 36 33 33 32 33 32 32 36 35 34 37 33 30 33 36 28 22 19 22 22 17 18 19 22 21 22 24 23 28 34 35 36 38 39 39 38
49 37 33 26 33 40 36 32 32 31 34 33 31 32 32 32 34 35 37 36 36 32 33 33 27 30 28 26 24 21 20 19 17 18 17 22 27 32 35 35 36 38 38 37 36
45 44 41 30 27 29 37 33 33 33 33 32 30 33 33 32 33 34 34 34 31 32 34 36 30 29 21 31 27 21 20 26 25 22 24 29 32 35 36 37 37 37 37 36 35
51 50 39 42 28 34 35 32 34 34 36 38 36 35 33 35 37 37 37 36 35 32 35 35 32 24 5 29 24 17 25 22 24 27 26 24 31 35 35 36 36 36 36 35 35

GFSSW_sfc_30mbdewp_039.txt.gz
Dewpoint
56 54 54 53 54 54 56 56 55 54 54 54 54 55 55 55 54 52 35 32 40 41 36 31 32 32 33 30 26 19 15 17 36 30 31 31 23 28 43 49 47 46 47 51 55
56 55 53 53 53 53 54 56 55 55 54 55 54 55 54 55 51 43 39 40 45 41 31 28 25 28 27 25 24 20 16 14 34 37 35 20 34 37 45 47 49 48 48 52 52
56 55 53 53 53 53 54 56 55 55 54 54 54 54 54 54 43 30 38 46 48 39 31 31 28 28 25 24 18 16 10 9 13 32 27 17 23 33 46 46 48 47 46 48 49
56 55 53 52 53 53 54 55 55 54 54 54 54 54 54 52 24 31 39 52 49 40 33 31 33 29 26 19 17 8 7 8 9 11 12 14 17 37 35 45 50 48 45 46 46
55 55 53 52 52 53 55 54 54 54 54 54 54 54 52 44 33 33 49 52 47 39 30 32 32 27 17 12 7 6 10 12 11 8 8 10 13 18 26 48 50 48 44 44 44
55 55 55 54 54 55 54 53 54 54 54 54 54 54 47 28 31 33 38 43 37 36 31 32 27 28 19 9 5 6 7 12 14 14 13 13 15 18 28 49 48 48 45 43 43
55 55 54 54 54 54 54 53 53 53 53 53 53 52 47 29 38 38 33 29 34 32 27 29 29 24 19 13 9 10 7 12 14 12 13 16 13 18 34 48 48 47 47 45 43
55 54 54 54 53 53 53 53 52 52 52 53 53 51 34 36 39 36 25 20 25 31 26 25 25 23 17 16 16 13 15 11 14 16 17 15 9 15 39 47 47 47 46 45 45
54 53 53 53 53 52 52 52 52 52 52 52 50 49 25 33 28 23 21 20 26 25 25 24 25 21 18 14 13 15 13 14 16 17 19 17 16 18 29 43 38 40 41 44 46
53 53 52 52 52 52 51 51 51 51 51 51 48 39 34 26 25 20 21 25 26 26 21 24 24 20 19 13 6 10 12 14 14 17 18 17 18 21 22 33 38 41 43 44 45
53 52 52 51 51 51 49 45 39 39 45 27 28 32 33 28 19 18 21 25 27 25 22 25 18 18 14 16 16 16 13 15 16 16 14 17 21 29 37 39 40 42 43 44 45
52 51 51 51 51 51 49 42 38 43 32 36 37 36 35 34 22 21 25 23 23 22 25 22 19 18 23 23 19 19 16 16 20 22 17 21 25 31 35 39 41 42 42 43 44
52 51 51 51 51 48 42 43 49 46 39 30 28 27 27 26 22 22 25 25 23 21 22 19 19 22 23 25 22 25 20 20 19 21 21 23 24 30 35 38 40 42 42 42 42
51 51 50 50 45 43 36 41 51 44 25 21 22 22 23 25 21 24 24 23 23 20 21 18 25 24 22 22 26 23 26 23 22 19 12 21 19 28 32 35 39 41 41 42 43
51 51 50 48 46 49 48 56 52 43 13 18 21 23 23 24 22 20 23 25 19 20 19 20 25 24 23 24 24 24 25 23 24 22 23 25 19 23 32 33 36 39 41 42 43
51 52 50 48 48 50 56 52 42 28 13 17 22 19 21 24 22 21 23 30 27 24 24 25 28 26 26 26 26 27 27 30 30 27 22 27 27 22 30 32 35 38 40 42 42
52 52 48 51 51 56 55 35 20 26 24 19 20 19 22 23 22 22 28 28 24 19 22 26 27 28 28 26 27 28 27 23 23 23 22 29 28 29 31 33 36 38 40 41 42
52 51 49 50 59 56 43 26 20 29 21 22 22 21 22 25 26 27 27 26 28 27 24 23 23 26 26 26 25 27 28 21 19 20 19 28 27 29 34 36 37 38 38 38 39
52 51 55 56 58 50 31 20 29 30 22 22 24 23 25 26 27 27 27 26 27 28 24 24 23 28 25 28 26 24 24 26 27 27 23 27 29 32 35 35 36 36 37 38 39
50 52 50 57 55 44 31 26 35 32 27 24 22 24 22 24 26 27 28 30 26 28 30 29 24 26 24 26 26 22 26 24 24 15 15 22 27 28 33 34 36 37 38 39 38
48 37 48 57 42 31 24 31 35 30 32 23 24 24 24 24 27 29 29 31 31 31 28 29 24 22 26 22 23 24 23 26 27 25 19 19 21 27 32 33 34 35 37 35 37
44 29 53 41 24 35 29 34 33 29 32 32 32 29 26 27 31 30 30 31 37 34 24 30 25 21 21 26 28 26 26 24 11 18 27 24 20 33 33 34 35 36 36 36 36
42 49 54 40 20 30 32 31 32 28 30 31 31 33 33 33 30 34 34 37 33 33 29 29 23 19 21 26 27 24 23 29 27 25 20 15 16 32 34 35 36 36 37 38 38
44 41 45 47 36 27 25 29 32 35 33 33 32 33 32 34 36 34 34 36 31 30 34 33 29 20 13 21 23 17 18 24 23 20 22 22 22 32 34 35 37 38 38 37 36
46 36 37 31 38 38 30 32 32 30 33 33 31 32 32 32 34 34 36 35 33 33 34 30 26 29 27 26 23 20 19 19 17 18 16 16 23 29 35 36 37 39 38 36 35
46 40 40 29 32 38 36 33 31 33 32 31 30 35 33 32 31 33 34 31 24 33 34 35 28 27 25 30 27 21 21 21 23 21 21 27 30 35 36 37 37 37 36 34 34
49 51 37 37 31 33 35 33 33 34 38 37 35 34 33 35 37 38 37 36 34 32 35 32 29 23 12 28 20 14 19 23 23 26 25 27 29 35 35 36 36 36 34 32 33

GFSSW_sfc_30mbdewp_045.txt.gz
Dewpoint
56 55 54 54 54 55 53 53 52 53 55 55 55 55 54 55 54 51 36 31 40 42 37 33 31 30 32 29 25 20 16 30 34 34 38 41 38 42 48 48 49 49 55 59 61
55 55 55 54 53 54 54 52 52 52 55 55 55 55 55 54 51 43 40 43 44 43 31 29 27 31 29 27 26 20 15 24 36 39 42 41 39 40 46 47 47 51 57 60 60
55 55 55 55 54 54 54 52 52 52 55 55 55 55 55 54 43 28 44 49 47 41 32 30 28 27 26 24 23 20 15 21 35 36 40 40 34 44 46 46 46 49 57 59 59
55 55 55 55 54 54 53 51 51 54 55 55 54 54 54 52 22 29 52 53 48 37 32 32 28 27 25 20 22 15 15 21 35 37 30 32 32 43 45 41 48 54 58 58 57
54 55 55 55 54 53 53 52 53 54 54 54 54 54 50 42 33 47 56 55 44 34 31 29 29 28 25 22 15 15 11 12 17 31 23 26 31 39 39 48 50 55 56 56 55
54 54 54 55 55 55 55 54 54 53 53 54 54 54 47 27 30 47 46 43 38 34 32 32 29 30 23 16 9 11 12 11 16 27 22 21 20 33 35 47 50 54 54 53 52
54 54 55 55 55 54 54 54 53 53 53 53 53 52 45 31 35 41 40 38 38 33 29 31 32 26 25 10 10 13 12 13 14 16 19 17 16 19 44 46 47 51 51 49 47
54 54 54 54 53 53 53 53 53 52 52 53 53 51 34 38 40 36 36 29 36 35 30 29 32 29 18 16 18 13 13 8 15 15 17 15 13 18 49 47 45 46 46 46 46
54 54 54 53 53 53 52 52 52 52 52 52 50 49 29 36 30 28 28 20 26 31 30 27 27 22 17 14 13 15 8 11 14 19 17 15 15 28 42 48 46 45 45 46 46
54 54 53 53 52 52 52 51 51 51 51 51 49 41 33 26 32 24 21 24 26 26 25 24 24 19 16 11 10 12 13 14 14 17 18 18 25 33 39 44 43 44 45 46 46
53 53 53 52 52 52 50 46 40 39 46 32 30 32 31 33 32 18 20 25 26 26 21 24 16 12 13 14 12 13 13 13 16 18 24 26 30 35 40 42 43 44 45 46 47
53 53 52 52 51 51 48 40 36 36 36 39 38 37 37 35 26 21 26 22 23 22 24 19 15 18 23 18 18 17 16 18 21 22 22 29 32 37 39 41 42 44 45 46 48
52 52 52 51 51 50 45 41 47 44 42 33 37 32 25 31 24 21 25 25 23 22 21 19 18 23 24 24 22 23 20 20 19 23 25 25 25 32 39 42 43 44 45 46 46
52 52 51 51 44 43 38 39 42 45 26 21 26 26 27 26 21 24 25 24 22 21 20 23 26 23 24 25 24 22 25 22 20 16 17 22 14 26 36 40 42 43 43 44 44
52 52 51 48 44 40 39 55 52 37 10 20 22 24 25 22 21 21 31 23 21 21 20 23 24 23 23 23 24 25 26 25 24 23 21 26 18 22 36 38 40 41 42 43 44
50 52 51 49 48 48 52 47 39 27 19 19 22 20 23 23 22 23 28 28 26 27 27 26 28 27 26 28 27 31 29 29 29 27 20 26 26 25 30 34 39 40 41 42 43
50 51 50 48 44 56 51 38 25 21 25 19 19 21 23 22 23 26 27 27 22 21 23 26 27 27 28 27 28 28 25 18 18 21 18 28 27 27 31 33 39 39 40 42 42
51 51 51 49 53 53 39 26 21 23 25 22 21 23 22 24 27 28 27 27 28 25 25 22 19 25 26 26 25 28 25 21 15 21 23 27 26 27 34 36 37 39 40 41 42
51 50 48 50 50 48 32 20 22 23 28 22 23 22 24 26 26 27 27 26 27 27 20 23 22 26 26 30 27 28 25 27 25 27 22 22 28 30 35 36 37 38 40 41 42
48 47 48 56 55 40 28 22 21 33 30 24 17 24 23 26 25 26 27 30 26 28 30 27 22 25 24 27 28 26 29 24 24 12 6 17 23 23 32 34 37 38 39 40 40
49 43 48 56 43 35 25 24 30 37 33 24 24 25 25 26 27 27 27 31 30 29 30 27 24 22 25 22 25 26 25 27 27 23 7 6 11 29 31 35 36 38 39 40 39
45 38 52 43 32 32 25 27 35 31 33 32 27 26 25 28 29 29 28 30 36 33 27 28 24 21 22 25 28 26 25 25 15 16 25 23 15 32 34 35 37 37 38 38 36
40 47 53 35 27 27 30 29 32 30 30 31 31 30 33 32 28 32 33 35 33 30 28 27 23 20 20 22 27 25 27 24 23 26 22 13 6 32 35 36 37 37 36 36 35
46 40 45 38 32 27 26 26 28 35 33 33 34 35 34 33 35 33 33 34 31 32 34 28 25 20 18 16 24 22 25 25 22 17 17 18 15 25 33 35 36 36 36 36 35
42 40 42 35 28 27 25 28 24 31 33 32 32 32 32 32 33 33 35 31 32 36 35 28 22 25 26 27 24 19 20 26 22 20 14 14 18 20 28 34 36 37 36 35 34
40 37 35 35 34 27 28 29 27 33 33 29 31 34 33 31 30 32 33 28 23 34 33 32 25 26 25 28 26 22 22 20 22 20 21 20 20 23 32 36 37 37 36 34 33
49 43 32 35 36 25 26 31 31 35 38 36 34 33 32 34 37 37 36 35 31 32 32 28 27 25 18 23 18 17 20 22 22 23 20 19 21 34 35 36 37 38 36 34 32

GFSSW_sfc_30mbdewp_048.txt.gz
Dewpoint
56 55 54 54 53 54 53 55 52 52 52 54 55 55 55 55 54 49 35 30 37 41 40 31 29 27 25 20 25 22 15 25 31 32 40 42 40 40 45 46 48 49 52 56 62
55 55 55 55 55 53 53 55 52 52 52 54 55 55 55 55 48 39 34 38 43 45 29 29 23 25 18 17 23 18 17 20 28 38 40 38 38 38 40 45 45 50 58 61 61
55 55 55 55 55 54 53 54 52 51 52 55 55 55 55 53 42 27 44 45 46 43 30 31 24 21 16 18 21 18 17 21 31 38 35 39 40 37 39 36 42 45 57 58 59
55 55 55 55 55 53 53 54 52 52 53 55 55 55 54 51 23 29 52 54 51 39 31 30 26 18 12 16 17 16 16 23 34 36 36 34 34 36 40 38 44 48 57 58 57
54 54 54 54 55 54 54 53 53 53 54 54 54 54 50 40 31 47 53 53 42 34 29 29 25 18 12 13 18 17 15 28 31 35 32 36 33 34 40 44 47 54 56 56 54
54 53 54 54 55 55 55 55 54 54 53 53 54 54 47 31 28 44 43 40 36 32 30 29 25 21 24 20 16 17 15 26 22 33 27 30 33 32 38 46 50 54 52 51 49
53 53 54 54 55 55 54 54 54 53 53 53 53 50 43 33 33 41 40 35 35 33 29 30 29 28 28 14 13 14 12 13 15 28 29 24 25 23 40 45 48 48 49 49 47
53 53 54 54 54 53 53 53 53 53 52 52 53 49 36 34 36 36 33 34 36 34 30 30 30 29 27 18 16 12 13 16 17 26 19 20 14 24 44 42 44 46 47 47 46
52 53 53 53 53 53 53 52 52 52 52 52 50 47 32 33 30 28 30 22 30 33 33 30 31 26 19 13 12 12 9 11 14 18 17 16 14 27 45 42 43 46 46 47 46
52 53 53 53 53 52 52 51 51 51 50 49 46 44 37 25 29 30 22 25 27 29 28 27 25 19 15 10 7 9 7 9 9 17 15 15 23 30 43 44 43 44 45 46 46
52 53 53 53 52 52 50 47 41 40 44 32 28 33 29 31 31 20 20 26 28 26 17 25 19 12 11 12 12 14 10 8 12 19 18 16 25 29 41 44 44 45 45 46 47
52 53 52 52 52 51 48 37 35 44 35 36 35 35 33 33 27 21 25 19 19 17 25 22 16 20 20 18 16 15 14 16 20 19 22 25 28 32 38 42 44 45 46 47 49
52 52 52 52 51 50 44 37 47 44 42 33 34 29 26 32 23 19 24 24 19 20 23 16 21 25 21 20 19 20 18 19 16 21 24 24 25 31 37 41 43 44 45 47 48
52 52 52 51 47 44 40 37 40 43 32 21 25 25 27 28 22 24 26 24 24 22 22 23 25 24 22 22 23 18 23 21 19 17 13 23 10 25 34 37 40 43 45 46 46
52 52 51 50 48 38 43 43 48 47 13 19 24 26 26 23 21 23 31 25 19 22 23 23 23 23 21 24 25 24 25 22 21 19 19 20 15 22 33 34 38 42 44 46 46
51 52 51 50 48 48 51 54 50 34 16 20 22 21 22 23 22 24 27 27 28 26 25 25 28 26 26 28 27 29 27 27 26 23 16 18 20 8 24 29 37 42 44 45 45
50 52 50 48 38 58 55 48 33 22 24 20 20 20 18 21 22 23 24 23 20 21 22 24 26 27 28 26 30 28 23 14 15 15 11 27 23 14 29 31 36 40 42 43 40
49 51 51 47 49 54 49 39 24 18 20 23 20 19 17 22 24 26 25 23 27 24 21 18 19 24 27 26 23 24 21 14 6 11 15 27 20 25 33 34 36 40 41 39 39
50 51 49 49 51 51 43 32 22 23 25 21 21 18 21 24 22 25 26 23 26 28 16 20 20 26 28 29 27 27 22 28 25 28 23 17 24 29 33 34 35 39 38 38 39
48 47 43 51 51 45 41 29 25 31 27 22 16 19 19 22 20 21 24 28 27 29 32 27 22 25 27 28 29 28 28 22 23 17 9 8 14 12 30 33 34 37 36 38 40
46 40 52 57 53 46 35 29 26 34 32 22 17 22 21 25 22 19 23 30 30 29 31 28 24 25 25 23 22 27 25 25 23 22 7 3 3 27 28 32 33 35 37 38 41
44 37 56 54 41 40 34 29 30 32 35 29 26 22 22 25 26 21 23 26 35 30 28 30 28 25 23 26 28 26 24 24 16 17 25 22 9 26 33 34 36 36 38 40 41
41 46 54 47 38 37 32 28 32 30 31 31 28 28 32 28 28 30 31 36 34 31 30 29 26 24 23 24 28 25 26 24 24 26 20 21 6 27 33 34 36 37 39 39 38
40 40 49 45 37 34 30 27 26 36 33 34 34 35 34 32 35 33 34 35 34 33 31 28 28 24 20 19 24 23 25 23 19 18 12 14 5 20 29 32 35 37 38 38 37
43 35 40 41 37 32 30 26 25 32 34 35 33 31 31 32 32 33 34 32 34 36 35 32 26 25 25 25 24 22 22 24 20 17 17 10 10 7 19 27 32 37 38 37 36
41 39 41 39 35 30 29 27 24 33 33 31 30 33 34 31 29 32 33 31 30 35 34 33 28 28 27 28 26 23 22 21 23 21 20 17 17 18 22 25 34 37 37 36 35
50 43 38 38 33 28 28 26 27 34 39 36 34 35 35 36 39 39 36 33 31 34 34 32 31 27 21 24 22 21 23 21 20 22 21 17 19 26 28 30 34 36 36 36 35

GFSSW_sfc_30mbdewp_051.txt.gz
Dewpoint
55 56 56 56 55 55 54 54 54 54 52 52 53 55 55 55 54 47 39 30 34 41 37 30 28 23 18 16 14 16 14 13 33 34 33 42 41 50 44 39 44 45 47 48 61
55 55 55 55 56 56 54 54 54 54 52 52 54 55 55 55 48 36 31 37 41 42 28 25 22 17 14 13 13 13 13 21 29 41 47 42 37 37 37 39 41 48 57 60 60
54 55 55 55 55 56 54 53 54 53 52 52 55 55 55 53 41 28 42 41 42 41 28 27 19 15 14 12 14 12 15 23 24 39 37 33 37 38 36 32 36 41 56 57 56
55 55 55 54 55 55 54 54 53 53 53 54 54 54 55 49 28 32 51 54 47 35 31 27 20 15 13 11 13 16 17 16 31 39 30 32 34 33 35 44 33 51 52 55 53
54 54 54 54 54 55 55 55 54 54 54 54 54 54 49 38 30 44 48 55 43 32 29 24 22 16 12 11 15 15 20 31 40 27 31 32 30 41 35 35 38 49 50 52 51
54 53 53 54 54 55 55 55 54 54 54 54 53 54 47 31 26 35 39 38 33 31 29 25 22 18 18 16 14 19 26 30 28 30 31 32 32 33 35 37 45 48 48 48 47
53 53 53 54 54 54 54 54 54 54 53 53 53 49 39 31 29 35 38 32 33 31 28 27 25 24 26 23 16 16 26 25 22 30 29 29 26 27 36 39 42 43 43 43 41
53 53 53 53 53 53 53 53 53 53 53 53 53 46 36 30 30 30 30 31 32 33 30 30 29 29 28 18 18 20 18 17 18 23 28 25 19 26 37 38 38 39 40 40 39
53 52 52 53 53 53 52 52 52 52 52 52 50 45 32 33 27 26 27 25 28 31 31 28 30 28 25 16 15 12 14 15 16 21 20 22 16 27 35 37 38 39 39 40 40
52 52 52 53 53 52 52 51 51 51 50 46 42 41 38 25 27 28 24 22 27 30 29 28 29 22 20 15 10 9 10 12 14 19 16 12 17 31 35 33 38 40 41 41 42
52 52 53 53 53 52 50 45 41 43 41 30 29 27 27 29 28 24 21 22 24 27 25 25 22 19 17 12 12 9 6 6 7 9 9 10 19 24 33 35 38 40 42 43 44
52 52 53 52 52 51 50 37 36 44 39 32 27 29 30 29 26 21 21 20 21 24 23 22 21 21 15 12 11 13 12 9 11 12 16 15 19 25 36 37 38 39 41 43 46
51 52 52 52 51 50 43 38 44 45 41 30 26 27 27 26 23 17 21 20 19 17 21 21 23 22 16 13 13 13 14 16 14 16 15 18 20 27 32 35 39 40 41 44 47
51 52 52 51 47 42 40 40 40 44 35 24 24 23 24 26 21 20 21 20 19 16 18 29 29 17 15 13 16 15 21 16 16 17 12 18 11 24 30 35 38 41 42 44 46
51 52 52 51 49 39 45 42 44 50 25 18 15 23 21 21 19 18 23 19 18 17 21 18 19 17 15 20 22 24 22 18 15 13 20 17 9 23 30 31 35 40 42 44 45
52 52 52 50 48 46 47 53 51 36 23 16 19 21 21 21 18 20 19 21 24 20 20 28 26 23 24 25 24 26 23 21 19 16 14 12 14 15 25 25 32 37 40 43 45
51 51 51 46 41 45 53 52 34 26 21 14 16 19 20 17 18 17 18 17 15 14 17 21 21 26 26 23 25 22 20 17 17 12 12 20 18 11 26 28 30 37 40 44 45
50 50 51 47 47 55 51 43 26 20 21 17 16 18 17 16 16 16 16 13 15 17 15 15 19 22 24 23 22 21 19 15 10 7 9 22 9 18 31 31 34 38 41 43 42
49 50 49 49 50 54 45 34 27 22 18 18 18 15 15 16 17 18 17 15 16 18 16 17 17 25 25 25 23 22 18 23 19 23 19 9 18 30 31 31 34 38 40 42 38
45 46 45 50 51 51 42 32 26 23 23 20 16 15 14 17 18 17 16 18 20 26 26 19 17 23 25 27 27 24 26 19 18 17 10 5 7 14 26 28 32 36 39 38 38
44 42 42 49 50 44 37 31 26 25 30 22 18 16 15 16 18 16 15 25 25 27 30 20 18 24 24 22 16 24 21 20 21 20 14 3 5 19 20 27 29 33 37 37 38
44 39 51 52 35 39 36 31 28 23 33 31 25 18 18 19 20 17 14 20 28 27 23 24 21 17 21 23 25 24 20 21 19 16 18 20 12 21 24 27 29 31 35 36 38
43 44 55 48 32 39 36 32 28 25 27 29 23 20 21 21 21 21 19 36 32 30 24 28 18 15 20 24 25 22 21 20 21 24 20 18 13 24 27 26 28 29 33 36 39
41 40 49 50 35 37 35 32 27 28 29 30 25 23 25 21 22 24 26 34 35 32 31 31 20 19 18 18 21 24 22 22 21 21 17 10 11 17 22 22 24 29 33 37 40
42 35 42 38 35 39 34 31 27 23 31 33 29 28 26 23 24 27 30 34 35 35 31 31 25 22 21 24 23 21 20 21 21 19 16 15 11 4 11 19 23 27 31 37 38
42 34 38 33 33 39 36 32 25 21 26 31 28 24 26 26 28 26 30 31 30 35 33 32 26 28 27 26 25 23 22 20 18 18 14 12 12 13 16 18 21 26 31 35 36
47 43 38 36 35 35 35 31 24 23 37 35 29 23 28 32 37 37 34 32 32 34 33 33 29 28 22 24 22 21 23 19 17 18 18 17 17 22 22 22 21 27 32 34 36

GFSSW_sfc_30mbdewp_054.txt.gz
Dewpoint
55 55 56 56 56 56 56 55 55 54 55 53 53 54 55 55 54 46 42 35 34 40 36 32 29 25 23 18 15 12 10 12 15 29 41 44 48 53 49 45 43 48 47 53 59
55 54 55 55 55 55 56 55 54 54 55 53 53 54 55 55 50 41 36 39 38 39 29 28 24 22 18 13 13 12 12 13 24 38 42 45 45 48 46 47 48 54 53 56 60
55 55 55 55 55 55 55 55 54 54 54 54 54 55 55 53 44 32 47 44 40 38 28 23 22 18 13 12 12 11 12 16 41 41 43 44 45 48 35 38 33 51 56 58 59
55 54 54 54 54 55 55 55 55 55 54 55 54 54 54 49 33 32 47 44 43 33 31 29 24 16 12 13 12 11 13 25 40 42 39 41 46 37 36 36 42 54 54 54 56
55 54 54 53 54 54 55 55 55 55 55 54 54 54 48 40 35 41 49 55 43 31 28 24 21 16 13 11 12 13 17 35 37 35 34 32 36 35 39 41 48 52 50 51 53
54 54 53 53 53 54 54 54 54 54 54 54 54 54 47 35 29 34 36 41 34 29 27 26 21 20 16 15 13 19 21 34 34 36 37 35 38 39 40 43 43 44 48 49 52
54 54 53 53 53 54 54 54 53 53 53 53 53 48 42 34 31 30 35 33 30 31 28 26 24 23 23 23 18 23 26 27 26 34 27 34 35 34 38 42 41 41 43 42 43
54 53 52 52 52 53 53 53 53 53 53 53 53 46 38 34 30 28 29 30 30 30 30 29 29 27 29 25 16 21 25 20 17 22 29 31 28 32 37 39 39 40 40 41 41
54 53 52 52 53 53 53 52 52 52 52 52 50 46 36 33 28 27 27 25 26 30 31 28 29 28 27 23 20 20 22 19 19 18 25 27 24 31 35 36 37 38 38 37 37
53 53 52 52 53 52 52 52 51 51 50 45 43 38 39 29 23 23 25 24 26 30 30 29 29 26 22 20 17 15 16 16 15 15 21 21 20 27 34 36 37 37 38 38 36
53 52 51 52 53 52 50 48 44 45 41 31 30 29 26 26 28 26 26 21 22 27 24 26 24 22 22 21 17 16 15 16 17 15 14 12 18 24 27 32 38 37 38 39 40
53 52 51 52 52 52 50 41 37 43 41 39 31 28 28 29 26 22 22 20 21 23 28 25 25 24 24 21 18 11 13 7 8 7 9 10 16 18 25 27 35 38 39 41 42
53 52 52 52 52 50 45 39 39 43 40 34 35 21 23 27 25 20 19 20 24 26 22 29 33 33 26 13 10 17 22 21 14 10 11 15 12 21 26 29 33 36 40 43 45
52 51 52 52 48 45 42 42 40 43 37 27 28 21 25 25 23 23 18 18 19 26 28 30 30 29 24 15 16 23 25 22 19 20 10 22 18 28 25 30 33 37 38 41 45
52 51 52 51 49 44 44 39 43 47 30 22 24 21 24 22 19 18 19 18 19 17 18 26 27 25 17 16 23 23 20 26 14 11 21 21 23 27 27 27 33 36 39 42 45
52 51 52 50 49 48 49 54 44 41 24 17 15 18 19 20 19 16 16 20 20 18 20 22 29 28 24 20 21 27 27 22 18 18 21 23 24 23 25 27 32 36 40 43 45
51 51 51 46 43 47 48 52 38 30 20 18 14 19 19 19 18 15 17 15 17 16 16 23 20 22 25 19 22 23 19 18 27 26 15 13 20 24 31 35 36 36 40 43 44
51 51 50 48 48 50 51 46 29 23 23 15 15 18 18 18 17 16 14 14 16 16 12 19 19 21 22 19 30 30 15 25 19 20 19 25 14 22 28 29 34 37 39 43 45
50 49 47 50 51 52 49 39 29 24 20 20 15 15 16 17 16 15 13 12 13 15 16 23 22 31 23 19 28 22 19 24 17 17 19 16 10 30 29 29 32 37 40 43 44
48 45 43 50 53 51 46 38 32 29 21 19 15 14 14 15 15 16 14 16 14 13 27 30 29 31 24 24 23 21 19 20 17 14 15 9 9 21 27 27 31 36 39 43 43
47 39 42 51 52 46 39 37 35 29 25 23 18 15 14 14 15 16 14 14 15 23 25 28 34 24 24 22 13 23 21 17 14 20 18 17 14 26 23 27 29 33 38 42 40
43 33 48 53 41 35 37 36 34 32 25 28 24 18 16 16 16 15 14 15 22 22 23 20 21 19 22 21 21 21 21 19 22 18 20 21 19 20 22 27 28 29 36 39 39
40 41 52 50 33 32 33 35 34 30 26 28 28 23 20 18 16 17 17 33 27 25 24 25 23 19 18 21 24 22 18 18 19 24 22 23 18 23 23 24 26 27 33 36 38
39 38 49 49 37 29 32 33 32 32 25 25 27 23 20 19 21 21 20 33 33 30 31 33 24 19 18 16 22 22 21 18 19 24 24 23 18 17 23 22 22 25 27 35 36
40 35 41 41 42 34 35 32 30 29 27 26 25 24 20 21 19 20 22 35 34 35 31 30 21 17 16 18 20 23 22 19 18 20 21 23 17 13 14 22 22 24 28 31 36
38 35 42 39 39 35 32 35 31 29 26 27 28 25 23 23 22 21 26 33 30 35 31 32 28 28 27 26 24 24 22 21 20 19 17 18 16 16 18 19 19 21 25 28 35
42 42 41 39 38 33 35 37 33 31 27 26 29 28 26 27 32 36 32 33 30 34 32 31 32 31 28 26 23 20 22 22 19 18 18 17 19 19 19 22 23 23 22 29 33

GFSSW_sfc_30mbdewp_057.txt.gz
Dewpoint
55 56 55 56 56 55 55 56 55 55 55 54 54 54 54 55 55 48 40 38 42 43 38 34 31 34 26 22 21 18 13 9 9 33 43 46 44 49 51 47 50 53 51 56 60
55 55 55 55 55 55 55 55 55 55 55 54 55 55 55 55 51 43 41 41 44 42 33 27 27 29 24 22 19 13 12 12 36 41 42 43 45 46 46 43 48 49 55 60 59
55 55 55 55 55 55 55 55 55 55 55 55 55 55 55 54 47 38 45 48 44 37 30 27 26 24 22 17 14 13 12 29 41 42 44 43 44 48 45 42 45 43 52 58 54
55 55 54 54 54 54 54 54 55 55 55 55 55 55 54 52 31 34 45 47 44 36 31 29 28 26 20 13 14 13 28 40 43 43 44 42 42 42 45 42 45 50 55 57 53
55 54 54 54 53 53 54 54 54 54 54 54 54 54 48 43 42 40 51 52 42 34 28 29 28 22 17 14 15 13 36 38 39 38 40 40 36 35 38 51 54 54 58 58 55
55 54 54 53 53 53 53 54 54 53 54 54 54 54 49 36 35 43 48 43 39 30 25 26 26 24 20 20 21 22 33 35 34 34 38 33 33 37 45 47 53 55 56 57 57
55 54 54 53 52 52 53 53 53 53 53 53 54 51 44 30 34 32 33 35 35 29 28 29 29 25 28 25 23 27 27 33 34 34 34 39 35 37 41 49 51 50 53 54 55
55 54 53 53 52 51 53 53 53 52 53 53 53 49 38 40 39 36 34 30 34 33 31 30 30 29 28 30 23 23 24 23 31 31 34 32 30 37 41 41 43 42 50 48 56
55 54 53 52 51 51 52 52 52 52 53 53 50 46 42 42 39 34 29 27 29 30 31 28 29 28 29 26 21 22 21 21 24 33 31 30 26 37 40 40 40 40 40 46 43
55 54 53 52 51 52 52 51 51 51 50 48 45 40 41 31 32 27 27 27 28 32 30 29 29 28 25 20 18 18 20 20 18 31 30 27 25 35 37 38 38 38 37 37 37
55 54 53 52 51 52 51 47 45 46 43 39 35 32 27 30 29 26 26 24 23 31 28 29 24 23 24 23 21 21 19 19 20 20 25 22 28 33 36 39 38 40 37 36 38
56 54 53 51 52 52 50 42 42 42 41 43 40 37 33 29 28 28 26 25 26 28 30 25 25 26 28 25 23 22 20 22 19 18 18 19 22 28 38 36 30 36 41 37 45
56 54 52 51 52 50 47 42 41 43 42 40 39 40 36 25 27 27 25 23 26 27 30 28 27 30 29 30 29 24 23 19 19 21 11 10 19 25 28 39 38 36 43 41 46
55 54 52 51 47 47 46 46 46 44 40 34 31 36 34 21 25 27 26 19 26 25 28 29 30 27 29 29 26 22 23 25 22 22 14 22 19 23 27 28 38 41 42 46 47
55 53 51 50 49 48 48 50 45 46 25 31 32 28 20 24 24 23 24 22 19 26 29 25 28 28 28 27 25 25 23 24 25 21 23 23 22 23 26 28 30 37 40 44 48
55 53 51 50 50 48 47 47 50 42 29 24 25 19 22 24 23 22 19 19 20 18 24 26 28 28 30 25 25 28 24 27 31 27 22 20 21 23 24 27 32 36 40 44 48
54 52 51 47 45 49 49 49 40 35 27 20 17 20 21 20 20 20 16 17 17 17 19 22 25 25 27 27 25 27 25 23 19 21 21 25 23 22 28 34 32 36 40 46 49
54 52 51 48 49 52 51 46 35 28 29 20 18 19 20 20 19 19 16 17 19 19 17 21 21 26 26 25 25 25 28 21 18 20 19 28 24 26 30 33 35 38 41 46 46
53 51 49 48 49 50 49 37 30 31 25 24 16 19 19 19 20 19 17 14 17 16 16 22 24 32 28 29 25 28 27 31 22 25 19 21 26 30 30 34 37 37 43 44 44
50 48 47 49 52 49 45 35 36 32 31 30 20 16 16 18 18 19 16 17 17 17 22 31 25 35 33 31 26 25 29 24 23 12 13 16 18 26 28 32 37 38 42 44 43
49 45 45 48 51 46 37 37 37 37 34 30 23 17 16 18 18 17 18 17 16 25 28 31 26 28 33 29 26 23 21 20 20 22 16 17 18 30 29 30 35 38 42 44 44
49 41 46 51 41 40 37 36 38 37 36 36 27 26 23 16 18 17 17 18 22 26 24 29 31 28 29 32 25 22 21 25 18 16 23 21 19 22 27 29 31 37 41 44 43
45 42 49 47 29 35 36 36 37 36 35 33 28 28 26 23 21 21 19 34 28 25 25 30 24 19 23 23 25 22 21 19 21 29 21 19 20 23 26 29 30 29 39 43 41
44 38 46 47 31 32 33 30 32 35 37 36 30 30 29 23 23 23 31 33 34 32 31 30 27 23 18 18 21 23 23 21 20 19 21 22 23 22 23 24 26 25 35 40 40
45 35 44 40 41 35 32 30 32 33 36 35 31 28 27 23 21 23 33 34 34 34 31 29 23 23 20 22 25 22 23 24 23 22 21 21 23 22 21 24 23 26 26 35 38
41 38 44 43 41 41 33 30 29 32 34 32 29 28 28 23 23 21 32 34 32 34 31 32 27 26 26 29 26 23 24 24 23 21 20 20 20 22 22 21 21 24 28 32 39
44 44 40 42 41 40 38 31 31 33 34 33 28 30 30 27 31 34 35 35 33 32 31 32 30 29 27 25 23 22 22 22 22 23 21 17 20 23 22 23 23 24 26 30 39

GFSSW_sfc_30mbdewp_060.txt.gz
Dewpoint
55 55 56 55 55 55 55 55 55 55 55 55 55 55 55 55 54 50 36 31 41 40 39 34 31 32 32 23 23 18 15 13 12 20 40 47 46 49 51 48 49 53 52 56 61
55 55 55 55 54 54 54 54 54 55 55 55 55 55 55 55 51 45 43 43 46 48 35 31 25 26 28 24 22 14 12 12 31 42 41 43 46 47 47 45 48 51 58 59 59
56 55 55 55 54 54 53 53 54 55 55 55 55 55 55 54 44 38 43 50 47 46 31 29 27 25 22 23 21 15 12 26 40 42 43 42 45 48 45 42 46 47 57 59 57
55 55 55 55 54 53 53 53 54 54 54 54 55 55 54 52 28 33 43 47 51 38 32 28 29 26 25 20 16 12 20 32 43 44 44 43 46 45 45 44 47 47 58 58 57
55 55 54 54 54 53 52 53 53 54 54 54 54 54 49 39 30 41 48 49 42 34 28 28 28 27 22 20 19 18 38 40 41 40 41 43 37 39 44 53 51 56 56 55 54
56 55 54 54 53 52 52 52 53 53 53 54 54 54 48 28 35 47 46 44 36 29 23 27 26 27 25 27 26 31 35 36 37 39 38 36 37 40 47 49 51 52 55 54 54
56 55 54 54 53 52 51 52 52 53 53 53 54 51 45 23 34 34 34 34 39 29 26 27 28 28 27 28 29 34 34 33 36 34 32 37 32 36 43 49 52 53 55 53 53
57 56 55 53 53 52 51 51 52 52 53 53 53 49 33 40 42 41 38 33 33 34 29 31 30 29 27 29 24 23 26 27 33 31 32 33 30 35 43 48 51 54 55 53 54
57 56 55 53 52 51 51 51 52 52 53 53 49 45 37 44 38 39 39 29 29 32 32 28 29 28 28 26 21 22 20 25 30 31 29 30 28 40 47 48 48 53 53 51 49
57 56 55 53 52 51 51 51 51 51 50 50 46 38 39 27 34 33 30 29 27 31 30 29 30 28 24 23 20 18 20 22 24 30 31 29 28 38 43 43 44 49 53 49 49
56 57 55 53 52 51 51 46 42 45 42 37 30 25 28 32 31 27 25 26 30 31 28 29 25 21 24 24 24 24 23 22 24 26 31 28 26 33 38 40 40 47 50 52 50
55 56 55 53 51 52 50 41 40 39 37 42 41 39 37 36 33 28 29 25 27 27 31 28 26 26 29 29 29 27 26 24 23 23 29 25 24 32 38 38 39 39 38 40 43
54 56 55 52 51 49 46 43 42 42 38 39 41 41 40 41 33 27 27 27 28 27 26 25 27 30 29 29 27 27 27 23 21 22 25 20 24 28 36 37 37 38 39 39 42
53 55 55 51 45 46 47 48 48 45 33 30 38 37 38 30 20 26 28 25 27 24 29 29 30 29 28 26 27 25 26 25 21 18 11 22 17 25 28 36 37 36 41 42 45
53 54 54 49 47 45 48 46 47 46 7 29 33 37 36 20 25 25 27 24 24 27 29 25 28 28 24 25 27 25 27 25 24 24 23 23 18 19 27 30 34 37 40 43 47
53 54 53 50 49 47 47 49 50 39 13 30 32 30 24 22 24 23 22 23 23 28 28 24 29 26 26 28 29 26 25 30 29 27 19 22 21 19 23 25 30 36 40 44 47
54 54 52 49 41 50 51 49 38 31 31 26 25 21 20 20 22 23 19 17 16 16 20 24 25 26 29 24 27 27 25 21 19 19 19 25 24 23 25 26 28 33 40 44 49
50 54 52 48 48 49 51 45 32 30 30 30 20 20 19 22 22 20 18 15 19 19 19 20 19 25 26 26 24 29 25 20 16 17 17 27 23 22 30 31 35 38 43 47 51
51 52 50 51 50 47 48 37 29 34 28 23 19 20 20 21 21 20 19 17 17 19 16 22 24 34 30 31 27 26 26 32 28 27 22 20 24 30 31 30 33 37 45 48 50
48 49 48 49 48 45 44 33 35 36 34 33 22 20 18 19 20 20 19 19 16 18 20 24 23 32 32 31 28 25 30 25 28 15 11 16 19 23 29 32 37 37 42 46 46
47 43 47 50 47 41 36 34 34 35 36 35 30 23 19 19 19 20 19 19 19 20 23 30 24 24 32 26 22 24 23 24 24 21 16 16 17 24 29 34 35 37 42 45 44
43 39 49 51 39 36 36 36 35 34 36 37 36 33 24 20 18 19 18 18 26 28 24 29 27 23 24 28 32 29 26 24 21 18 24 21 18 25 30 31 37 38 43 45 43
40 42 49 48 35 31 35 37 36 32 35 35 34 33 28 24 19 22 21 32 29 27 25 30 26 23 23 26 27 27 23 23 27 26 19 18 18 25 26 30 33 38 41 44 45
42 37 44 45 40 31 31 33 36 35 35 37 36 37 33 26 26 21 26 32 35 31 33 30 27 21 21 21 22 21 23 23 21 18 19 22 21 23 23 25 30 31 38 43 44
44 36 39 37 38 33 31 32 33 32 32 35 34 34 34 27 25 24 33 33 35 32 32 27 22 25 23 23 26 25 23 24 23 23 21 21 23 22 23 23 25 29 32 41 42
42 39 41 40 38 35 30 30 31 30 28 26 30 34 33 29 25 24 31 31 28 33 29 32 21 24 22 27 25 24 24 24 24 23 22 22 21 25 24 25 24 26 28 37 40
39 44 42 35 38 37 32 30 29 28 30 28 33 34 33 31 30 27 33 33 31 28 29 30 27 26 21 25 25 23 23 23 23 23 23 20 20 24 23 23 24 25 25 37 41

GFSSW_sfc_30mbdewp_063.txt.gz
Dewpoint
56 55 55 56 55 54 54 54 54 54 54 55 55 55 55 55 54 49 36 29 42 40 40 34 32 32 32 27 23 17 16 14 13 16 27 47 46 51 51 48 50 54 53 59 62
56 56 55 55 55 54 54 53 53 54 55 55 55 55 55 55 50 43 42 43 43 48 36 30 25 25 25 26 22 16 13 12 18 36 40 44 46 47 46 45 49 55 59 61 61
57 56 55 55 55 54 54 53 53 53 54 55 55 55 55 54 39 34 45 48 47 47 39 29 27 24 22 23 22 17 15 14 38 42 43 42 44 48 45 42 46 53 55 58 58
56 56 55 55 55 54 53 52 52 53 54 54 54 54 54 51 25 33 48 49 54 47 34 29 28 26 26 23 19 15 14 23 36 44 42 41 46 45 44 45 46 57 57 56 56
56 56 55 55 54 54 53 52 52 52 53 53 54 54 48 35 23 35 49 50 48 38 31 27 27 27 24 23 23 15 36 40 43 43 43 43 40 40 45 53 53 58 56 56 55
57 56 55 55 54 53 53 52 51 52 53 53 54 53 46 22 29 48 45 39 36 33 26 27 26 27 26 25 26 34 36 37 39 39 41 36 39 40 48 53 56 56 56 56 54
58 57 56 55 54 53 52 52 51 51 52 53 53 51 44 21 33 36 39 33 37 32 25 25 26 28 27 26 30 35 33 36 37 37 32 36 35 39 47 49 53 53 52 55 53
58 58 56 55 54 53 52 51 51 51 53 53 52 49 27 38 42 42 41 36 35 37 29 30 30 30 28 28 25 27 31 30 32 32 33 32 31 39 45 51 53 53 52 53 52
55 58 57 56 54 53 51 50 51 52 53 52 48 44 29 41 36 38 40 31 29 33 33 31 29 28 28 25 21 22 20 26 30 32 30 30 32 40 44 51 52 54 53 52 54
52 55 57 56 54 52 51 49 50 51 51 51 47 36 29 27 34 33 37 32 27 31 30 29 30 27 24 23 19 22 21 23 24 26 31 29 28 41 44 49 50 53 53 52 52
52 53 55 56 54 52 50 44 37 43 42 36 28 23 21 34 36 29 28 28 31 30 27 28 25 23 23 25 26 26 25 23 24 25 28 29 28 34 44 45 48 51 52 50 50
52 52 54 56 54 51 49 40 37 40 34 38 39 37 36 37 37 33 29 24 28 26 30 27 23 25 29 28 27 26 26 24 26 25 25 27 27 27 41 42 46 49 51 50 48
52 52 53 56 52 49 45 41 43 45 35 36 40 39 39 41 37 34 28 28 24 26 28 25 26 29 29 29 26 26 26 25 25 22 26 23 24 27 38 40 43 48 49 51 49
51 51 53 54 48 45 44 48 47 46 29 25 39 39 39 39 29 33 28 27 28 23 28 27 30 28 28 27 27 24 27 27 25 19 18 20 16 27 35 38 39 43 44 45 47
51 51 53 52 44 45 48 45 48 46 6 19 36 38 38 23 23 24 28 26 24 26 29 22 28 28 26 24 27 25 28 26 25 23 22 23 18 20 27 36 37 37 40 39 43
51 50 53 52 49 48 48 50 50 38 12 24 33 33 28 21 22 24 25 24 27 27 30 25 29 29 26 27 28 28 27 28 29 26 19 22 20 20 24 28 35 37 38 40 45
50 51 53 51 47 49 50 47 39 30 24 27 29 27 27 22 18 22 20 21 19 20 21 23 25 26 29 26 27 27 24 18 17 18 17 25 23 23 24 25 28 35 37 41 45
49 51 53 52 48 47 50 44 31 29 29 33 24 24 17 21 21 22 19 17 18 19 18 17 17 24 26 25 23 28 24 18 15 15 16 26 22 21 28 32 32 31 38 43 46
49 49 48 52 51 46 46 36 29 30 32 19 22 20 19 21 20 20 19 17 17 19 15 19 20 32 32 30 26 27 24 30 25 26 23 21 22 24 29 33 35 41 42 45 49
46 45 43 51 52 45 41 35 34 35 36 35 21 20 18 20 20 20 19 20 17 19 20 22 17 30 31 32 29 25 30 23 27 17 13 14 18 18 23 28 35 36 43 46 51
44 39 43 51 50 43 34 33 35 35 34 36 34 29 21 19 20 20 19 20 21 20 22 27 20 21 30 27 24 27 24 25 25 21 15 14 16 23 26 29 33 36 42 46 49
41 33 48 50 41 40 34 35 35 33 33 34 37 36 32 22 20 20 19 19 22 25 19 27 22 17 20 28 30 26 23 24 20 18 23 20 17 22 28 29 33 33 39 46 47
37 37 49 46 35 36 35 34 35 31 32 32 34 35 34 24 19 22 22 24 30 27 24 29 25 19 21 24 29 29 27 27 28 25 21 18 18 24 25 29 31 35 39 44 45
37 32 43 44 39 35 33 33 34 36 35 35 36 36 34 31 27 23 23 33 33 30 31 28 26 21 19 19 22 23 24 24 24 20 19 20 19 21 24 24 26 31 37 43 45
37 32 38 34 37 38 33 33 34 33 35 34 33 34 34 31 26 25 32 33 33 32 31 28 23 23 23 23 23 22 23 24 22 22 20 21 22 23 24 24 24 26 32 39 44
34 36 39 37 36 37 33 31 32 33 32 32 29 33 29 30 30 25 31 31 29 32 29 30 22 23 23 26 26 25 25 24 24 24 25 24 23 25 24 24 24 25 29 32 42
39 40 38 36 36 34 33 31 31 32 34 32 30 31 28 34 35 32 32 33 30 29 28 28 26 23 18 25 25 23 24 24 24 24 23 20 22 23 23 25 28 28 27 34 41

GFSSW_sfc_30mbdewp_066.txt.gz
Dewpoint
57 56 56 56 55 55 54 54 53 53 54 54 55 54 55 55 53 49 35 32 41 44 39 36 32 33 31 24 22 18 16 15 14 13 18 47 46 50 51 48 53 57 54 59 63
58 57 56 56 55 54 54 54 53 53 54 54 55 55 55 54 50 40 40 42 43 44 34 29 24 26 26 25 21 18 15 14 14 17 39 45 46 46 46 46 52 54 59 61 62
58 57 56 56 55 55 54 53 52 52 53 54 54 54 54 54 36 32 47 48 46 47 37 29 27 24 22 24 22 17 17 16 15 41 43 42 45 48 45 42 49 53 57 59 59
59 57 56 56 55 55 54 53 52 52 52 53 54 54 54 51 20 32 51 52 52 45 34 28 27 26 25 23 20 18 17 17 37 42 41 40 46 45 44 48 52 55 57 58 57
58 58 56 56 55 55 54 53 52 52 52 53 53 54 49 30 20 31 48 56 47 37 31 27 27 27 24 24 23 17 29 38 43 42 42 44 40 41 49 54 56 56 56 55 57
55 58 57 56 56 55 54 53 52 51 51 53 53 53 45 20 24 47 37 39 39 33 28 28 26 27 26 25 27 34 36 39 42 42 42 36 38 40 52 56 54 55 55 56 56
53 56 58 57 56 55 54 53 52 51 52 53 53 51 44 23 32 36 38 37 37 32 29 25 26 27 28 26 32 35 34 35 38 39 36 38 36 42 52 54 51 54 54 54 55
52 53 57 57 56 55 54 53 52 51 52 53 53 49 29 33 41 40 41 39 37 37 32 30 30 29 28 28 27 31 30 29 32 33 33 34 31 44 50 51 40 49 54 54 54
52 52 53 56 57 56 54 52 51 52 53 52 47 43 27 36 30 34 40 34 30 33 33 32 29 28 28 25 21 22 21 25 27 32 30 30 32 41 47 51 49 49 53 54 52
51 51 51 53 56 55 52 50 49 51 51 51 47 37 30 25 33 34 38 35 27 31 30 29 30 26 25 22 19 22 22 23 23 24 29 28 29 41 45 51 50 50 52 53 52
51 51 51 52 55 54 50 44 33 41 45 38 34 30 21 34 39 31 30 29 30 30 26 29 25 23 23 24 24 25 25 24 25 25 26 26 27 41 42 48 50 51 52 52 52
50 51 51 52 54 52 49 40 36 42 38 39 38 37 35 37 35 35 29 24 26 22 30 27 23 24 28 27 27 27 24 23 26 25 25 27 26 29 42 47 48 51 52 51 51
48 51 51 51 54 50 47 43 43 45 41 35 38 36 36 38 33 33 29 26 26 25 28 24 24 28 28 27 27 26 24 25 25 25 27 26 24 27 35 44 45 48 51 52 50
47 50 51 52 50 47 44 46 46 47 29 24 34 38 40 38 29 37 29 28 27 22 27 26 28 28 28 26 27 24 27 27 26 22 18 21 16 24 30 38 41 43 49 50 51
47 49 50 53 47 45 47 48 48 45 4 16 36 40 40 26 23 27 29 26 24 25 28 21 28 28 26 26 27 24 27 27 25 23 22 22 17 18 30 33 38 40 45 48 50
47 49 50 52 51 49 50 50 49 38 17 16 34 34 33 25 23 25 26 25 28 27 30 24 29 29 27 27 27 28 28 26 27 25 20 21 20 19 25 30 33 39 40 44 45
46 47 50 50 47 50 49 45 38 31 25 24 31 31 26 23 19 23 23 21 21 20 21 24 25 27 28 25 27 27 23 18 16 18 16 25 23 22 24 25 29 35 39 40 42
45 47 49 50 51 47 49 41 31 29 27 31 27 29 23 21 19 20 20 21 20 20 20 18 14 24 27 24 22 26 23 19 13 14 15 24 21 20 27 31 32 31 37 39 41
45 46 47 49 51 47 44 33 29 30 31 23 22 22 22 20 17 21 19 19 20 20 16 18 18 30 31 30 26 28 23 26 24 25 24 21 21 19 24 31 35 39 36 38 42
44 43 43 48 52 47 40 32 34 33 36 35 27 22 19 20 20 19 20 20 18 20 20 20 17 29 31 32 30 25 31 23 25 16 15 15 17 15 17 23 33 39 40 41 44
42 38 40 47 52 44 35 33 34 36 36 34 35 33 21 20 20 20 19 20 20 19 21 24 19 20 30 27 23 26 25 25 24 21 16 15 14 21 22 26 30 34 39 45 48
39 32 41 48 38 39 36 33 33 35 35 33 34 36 33 22 21 20 19 19 23 23 19 26 21 15 18 28 28 27 25 25 21 19 23 21 19 22 22 26 31 33 35 44 48
36 36 47 43 31 33 36 35 35 33 33 32 32 34 36 29 19 22 22 23 25 23 21 27 21 14 16 23 30 27 27 26 26 25 21 19 20 23 25 25 28 30 35 40 46
36 31 40 41 35 32 34 34 32 35 34 32 35 35 33 31 28 22 22 29 30 26 29 27 25 17 13 16 22 25 26 27 26 22 21 21 20 21 21 23 26 27 31 38 44
38 33 36 33 34 34 32 33 32 30 34 35 34 34 33 30 28 25 30 34 33 34 31 25 20 23 22 23 22 21 21 24 24 22 20 21 21 22 23 24 24 25 26 34 41
32 33 35 35 35 33 34 31 32 32 34 32 32 32 34 32 30 26 32 31 28 32 30 29 22 24 22 26 26 25 25 25 24 24 24 24 23 25 26 24 24 25 26 28 38
36 38 37 34 33 32 32 31 31 33 33 34 32 30 31 29 29 30 33 33 32 31 29 27 25 23 21 26 25 22 24 24 24 25 24 22 24 23 23 26 31 34 34 33 38

GFSSW_sfc_30mbdewp_069.txt.gz
Dewpoint
58 58 57 57 56 55 54 54 54 53 53 53 54 55 55 55 53 49 35 33 40 46 42 37 33 34 31 23 22 19 18 16 15 14 17 46 46 50 51 48 54 56 54 58 63
59 59 58 57 56 55 55 54 53 53 53 53 54 55 55 54 50 39 38 43 46 45 34 29 26 28 28 26 22 20 18 15 17 16 32 44 47 46 47 47 52 54 58 61 62
58 59 58 57 56 56 55 54 53 53 53 52 53 55 54 54 35 31 50 47 46 48 37 29 26 24 23 25 23 19 18 18 16 21 43 42 45 47 45 43 48 51 58 60 60
54 56 58 58 57 56 55 54 54 53 53 52 53 54 54 49 9 32 53 53 50 44 33 28 25 27 25 24 23 20 18 18 25 43 41 39 46 45 44 47 52 54 57 58 58
53 53 56 58 57 56 55 55 54 54 53 52 53 54 46 29 22 37 56 57 47 38 30 28 28 27 25 25 23 19 26 39 38 42 42 43 42 43 50 54 54 56 58 57 57
53 53 53 57 58 57 56 55 54 54 53 52 53 53 41 21 24 41 42 41 37 33 30 28 26 28 26 26 27 32 37 40 42 42 42 36 40 40 50 53 54 55 55 55 56
52 53 52 54 57 57 56 56 55 54 53 52 53 51 41 26 31 36 39 36 37 33 30 26 26 27 29 27 33 36 34 35 38 39 37 38 37 42 51 53 53 54 54 56 56
51 52 51 51 54 56 56 55 54 53 53 53 53 48 30 34 38 38 41 36 39 35 32 30 30 29 29 29 27 31 30 28 31 35 34 35 30 44 52 51 50 52 53 53 53
49 51 51 51 51 54 56 54 53 52 52 53 48 41 26 35 26 31 37 28 34 35 35 31 30 29 29 25 24 24 21 25 25 33 31 31 32 42 51 49 45 50 50 53 53
48 49 50 51 51 53 54 53 51 51 52 51 47 38 33 23 31 35 40 35 30 31 30 30 30 27 26 23 20 21 22 23 23 26 30 28 31 41 48 50 46 49 51 53 52
45 48 50 51 51 54 51 48 30 37 46 39 34 32 28 32 39 35 33 33 31 30 27 29 27 26 25 25 23 24 24 24 25 26 26 26 29 39 46 49 49 49 49 50 53
46 48 49 51 51 54 50 46 36 43 38 41 40 39 37 37 36 35 31 26 25 23 29 27 25 25 25 26 26 27 25 24 25 26 27 26 26 34 42 46 48 48 50 49 50
46 47 48 51 51 52 50 48 44 45 41 41 40 36 35 36 32 30 29 27 24 23 27 25 25 28 29 29 27 27 25 24 24 26 27 26 23 27 36 43 47 49 50 51 51
45 46 46 50 49 49 47 46 47 47 32 23 32 36 39 36 28 35 30 27 26 23 27 26 27 27 28 27 28 24 27 26 26 24 18 22 16 20 29 37 43 46 49 51 52
44 45 47 49 49 45 45 50 48 45 1 16 36 40 40 28 25 32 30 27 25 25 26 22 28 28 27 27 28 25 28 28 27 23 22 23 18 19 28 30 34 41 46 48 51
45 46 47 49 50 50 51 51 48 37 12 18 36 35 35 33 24 27 27 28 29 28 29 25 29 29 28 28 28 29 28 26 27 26 21 22 20 19 21 25 31 35 41 45 48
45 45 46 48 44 50 51 46 37 29 27 19 33 33 30 25 21 24 25 24 23 21 23 24 25 27 28 26 28 27 25 20 18 20 18 25 23 22 24 26 26 28 38 42 46
45 43 46 48 47 49 49 40 30 29 26 29 27 31 24 23 21 22 23 23 22 22 22 19 17 24 27 25 23 26 24 20 13 14 15 24 20 19 27 28 32 34 36 39 43
44 43 43 46 49 48 44 33 28 30 30 25 23 29 25 20 20 21 22 22 22 22 18 19 17 27 29 30 27 28 24 26 23 25 23 22 22 20 23 26 32 35 41 37 41
41 40 39 45 49 47 40 31 32 33 35 35 26 24 26 20 18 20 20 22 22 22 21 21 16 29 31 31 31 28 31 25 25 17 15 17 17 16 17 21 30 33 36 41 41
39 36 38 46 47 41 33 32 32 36 35 33 35 33 23 21 20 20 19 20 22 22 22 23 20 21 30 29 26 29 27 25 25 22 18 16 17 22 21 23 28 32 36 39 43
39 30 41 46 36 36 32 32 33 33 35 35 34 35 34 23 21 20 18 20 23 22 20 24 22 17 21 27 28 27 24 26 22 20 23 22 19 23 24 24 27 31 35 38 44
35 35 43 40 29 31 32 33 33 32 33 34 32 33 36 31 20 23 22 24 24 22 22 26 20 15 16 23 30 27 26 27 27 26 22 21 20 24 24 24 26 27 32 37 44
36 29 37 39 33 29 31 30 32 34 33 34 33 34 32 30 31 23 23 26 27 24 27 25 22 17 15 15 21 23 27 27 25 23 23 23 23 24 23 23 24 26 28 30 40
36 32 34 30 31 30 30 29 29 30 34 35 33 33 32 26 30 26 27 32 33 33 28 24 19 22 19 19 22 22 23 27 26 25 23 24 23 23 24 24 25 26 26 26 31
33 33 33 33 31 30 30 30 30 31 31 31 31 31 31 32 28 28 28 31 30 33 30 29 21 23 21 26 24 22 23 24 26 25 24 23 23 25 26 27 25 27 31 28 30
37 38 34 30 31 29 27 29 32 31 32 32 32 31 32 30 33 34 34 32 33 31 31 28 25 23 20 26 25 23 24 25 25 26 25 22 23 27 25 24 29 33 36 39 40

GFSSW_sfc_30mbdewp_072.txt.gz
Dewpoint
59 59 59 58 57 56 55 55 54 54 53 53 53 53 55 55 53 45 34 35 35 42 42 34 34 31 24 17 21 21 15 9 12 19 17 36 40 49 48 46 50 53 52 57 63
56 57 58 59 58 56 56 55 55 54 54 53 53 53 54 54 45 35 38 42 45 45 33 27 25 30 27 21 21 19 15 11 14 14 17 33 43 44 45 46 48 51 55 60 62
54 54 55 57 58 57 56 55 55 55 54 54 53 53 54 52 36 30 49 46 47 45 32 28 24 26 24 25 23 21 17 18 17 20 23 34 40 43 41 37 41 47 54 60 61
51 52 53 54 57 58 57 56 55 55 55 54 54 53 52 45 10 35 50 53 48 43 31 26 23 24 24 22 24 21 21 22 21 34 37 36 40 39 41 44 49 49 55 59 59
51 52 53 53 55 58 57 56 56 56 55 54 54 53 45 29 23 33 55 56 43 36 28 26 27 27 23 25 25 24 24 35 32 38 40 38 38 40 41 51 51 51 56 57 58
49 51 53 52 53 55 57 57 56 56 55 54 54 53 40 24 25 41 43 41 34 32 28 27 27 28 27 27 27 32 35 37 39 39 38 34 37 39 46 52 53 55 54 56 57
49 49 52 52 51 52 55 56 56 56 55 54 53 49 38 28 26 36 39 35 35 33 28 26 27 29 30 27 34 35 33 35 36 36 33 35 34 36 46 50 49 52 54 55 57
47 49 50 51 51 51 52 54 55 55 54 53 53 47 29 32 32 33 31 37 36 35 32 33 30 31 30 30 31 31 30 23 31 33 33 35 24 38 46 47 45 49 51 54 56
45 46 48 50 50 51 51 53 54 54 52 53 48 43 27 34 31 27 26 28 33 36 36 32 33 30 30 24 25 25 18 19 24 29 31 31 24 38 43 41 40 45 47 50 54
44 45 46 48 50 50 52 53 53 51 51 49 46 38 32 23 29 34 34 25 29 33 32 31 30 27 25 21 17 17 18 20 20 24 27 25 25 35 44 41 40 41 44 48 49
45 45 46 47 49 51 52 49 40 39 47 36 33 30 28 30 38 34 36 35 28 29 26 30 26 24 20 20 21 21 20 20 21 24 24 23 23 29 42 44 41 42 43 48 46
45 44 45 48 49 51 52 44 45 43 36 37 37 36 36 36 33 34 33 26 26 24 27 27 25 24 25 25 24 22 21 21 22 25 26 23 22 25 39 42 42 42 42 42 49
47 45 46 46 49 48 47 46 47 44 39 37 39 34 31 34 28 28 31 25 24 23 25 21 24 27 25 25 24 23 23 23 21 25 26 25 21 24 31 39 43 44 43 44 43
46 46 44 46 43 44 45 47 51 48 31 23 31 35 33 30 27 26 32 25 23 21 22 22 24 26 25 22 25 22 25 24 24 24 17 23 12 17 24 32 38 42 44 44 45
45 44 45 45 45 45 46 52 49 47 0 19 32 36 34 23 22 24 30 27 21 23 25 21 24 25 24 25 26 24 27 26 26 23 22 20 13 15 23 23 26 36 42 45 47
43 45 45 44 45 47 50 51 49 35 8 17 35 35 32 28 25 26 27 28 24 23 25 21 28 28 25 28 27 29 28 28 28 24 18 19 17 12 15 20 23 27 32 42 46
43 45 45 43 40 45 48 48 33 22 19 13 31 34 29 24 24 24 23 25 22 21 20 22 23 25 28 25 28 28 26 20 20 18 16 24 20 16 17 23 26 26 29 34 40
43 44 44 44 44 47 49 42 26 11 19 27 26 33 28 21 20 23 22 21 22 20 17 18 17 23 25 23 21 24 24 19 13 15 15 23 15 15 24 27 26 32 34 35 37
44 42 43 43 44 48 44 32 13 13 23 20 22 30 28 21 20 22 21 20 22 22 16 17 16 22 26 26 25 27 23 25 23 26 19 16 18 16 20 21 28 30 35 38 36
39 39 38 42 45 45 37 27 20 20 23 32 15 25 28 20 19 20 21 22 21 22 20 20 15 22 29 29 30 27 27 23 23 17 14 13 15 13 15 18 26 23 24 37 38
40 35 36 41 43 40 30 26 23 26 29 30 31 24 25 25 16 20 19 22 22 23 23 20 20 26 30 27 22 27 25 24 23 22 16 15 15 18 16 19 23 25 30 32 40
37 30 36 42 32 34 30 26 26 24 34 35 35 36 34 25 22 16 17 18 23 23 23 21 21 18 20 26 28 25 23 25 19 19 22 22 18 20 21 24 26 27 29 33 37
34 35 39 39 27 30 30 28 25 27 25 32 33 33 36 34 23 23 21 25 24 23 21 24 21 18 18 22 28 25 25 25 25 26 19 19 19 25 25 26 26 27 27 32 36
34 29 33 37 31 28 27 26 26 27 28 29 31 33 33 31 32 27 26 28 27 24 28 26 20 19 16 14 15 19 19 22 21 20 17 17 18 18 22 23 24 24 28 30 31
36 32 29 29 31 28 27 23 24 24 28 29 31 32 30 29 31 29 28 32 30 31 26 25 18 20 18 16 15 16 15 18 20 19 15 19 17 17 22 23 24 26 28 28 28
32 31 29 27 32 30 28 27 22 24 26 24 27 29 31 30 28 30 30 28 30 34 29 29 20 22 20 20 20 18 19 19 22 21 21 22 19 21 22 25 27 27 28 28 29
36 31 27 29 29 31 28 27 27 24 25 26 26 22 28 31 36 35 34 34 32 32 32 30 24 24 19 24 24 24 24 22 22 25 24 19 19 21 22 25 27 28 32 34 38

GFSSW_sfc_30mbdewp_075.txt.gz
Dewpoint
56 57 57 58 59 58 57 56 56 55 55 55 55 54 53 53 52 40 37 34 33 36 39 32 30 28 22 17 14 17 13 10 7 10 28 25 32 44 45 41 43 47 50 57 61
54 53 54 55 56 58 58 57 56 56 56 55 55 55 54 53 45 34 40 39 41 38 33 26 24 26 23 16 18 17 15 11 11 12 14 19 31 37 38 38 39 46 52 61 62
50 50 50 53 54 55 58 57 57 56 56 56 55 55 54 51 38 28 49 41 44 40 33 26 22 24 22 21 19 18 14 16 14 20 23 23 30 37 35 31 40 40 48 57 60
50 50 50 51 53 54 56 57 57 57 57 56 56 55 53 44 20 35 50 46 45 37 33 23 20 21 20 20 20 17 15 18 19 23 30 29 32 32 34 38 44 44 48 57 58
48 49 50 50 52 52 53 55 56 57 56 56 56 55 47 29 26 38 48 53 39 36 30 22 21 21 21 20 21 19 16 20 29 28 33 33 31 32 33 45 51 49 54 58 57
47 48 49 51 52 52 51 52 54 55 56 56 56 54 44 28 23 29 37 45 37 34 28 25 26 25 24 22 22 24 25 26 30 31 33 31 30 32 43 48 50 52 53 55 57
46 46 48 49 51 51 51 51 52 53 55 55 55 50 41 33 26 26 35 35 33 30 26 26 26 26 26 23 25 29 26 27 28 28 29 31 32 39 41 43 47 50 52 54 57
46 45 46 47 49 50 50 51 51 52 54 54 53 46 36 28 28 26 27 35 35 33 31 31 31 29 27 27 25 27 26 24 38 32 28 28 35 41 42 40 41 46 50 54 55
46 44 44 45 47 49 50 50 50 52 54 52 49 44 29 32 28 24 23 28 34 33 33 33 32 29 27 22 21 23 21 24 24 23 24 26 23 35 39 38 40 42 43 48 55
47 45 44 46 46 48 50 48 48 53 50 47 44 38 33 22 23 22 21 24 30 31 32 32 29 26 25 21 16 19 24 17 14 27 23 20 21 26 37 36 36 40 43 40 43
47 47 45 44 46 49 48 40 38 41 44 29 31 27 25 24 30 28 22 24 28 30 27 28 25 22 21 21 18 19 17 17 18 22 21 19 20 22 35 37 39 37 43 43 42
46 47 46 45 46 48 46 36 33 44 31 27 28 29 34 33 31 26 28 25 25 24 25 25 23 22 23 19 18 20 18 18 20 20 23 21 20 22 31 35 39 40 39 42 43
47 46 46 45 46 44 40 36 41 45 35 26 26 27 23 28 30 25 26 25 23 22 22 22 21 23 23 20 20 21 21 21 22 22 23 21 19 19 25 34 37 40 39 42 42
46 45 43 45 41 39 37 41 45 49 27 12 30 33 30 26 25 25 26 22 21 20 20 22 21 23 22 21 22 20 22 22 22 20 23 22 16 24 20 27 34 38 39 39 42
44 46 43 42 42 42 45 48 50 48 3 16 25 32 29 25 12 20 22 23 18 19 20 19 19 22 22 22 22 22 25 23 23 22 19 17 10 15 15 18 24 32 38 39 40
44 45 45 39 41 41 45 50 49 26 5 12 28 29 31 27 23 18 18 24 19 18 19 19 21 21 22 23 24 25 25 24 24 23 19 16 15 15 14 12 19 22 32 38 40
45 44 42 36 39 41 45 46 27 9 6 9 21 29 29 25 23 20 17 22 19 17 18 20 20 23 25 24 25 25 24 22 21 19 18 22 17 12 21 16 20 21 24 31 38
45 44 40 35 40 44 46 40 13 5 7 21 23 31 27 25 23 20 19 20 20 17 18 17 15 21 24 23 23 23 22 21 20 18 18 23 14 13 18 19 19 21 24 27 31
45 41 37 37 41 44 40 31 16 8 5 8 21 25 28 29 22 20 18 18 19 18 17 15 14 19 22 23 23 22 21 22 22 21 19 17 16 17 16 16 18 21 26 29 34
42 40 36 37 43 42 34 29 18 12 5 13 13 16 21 28 22 20 18 17 18 19 19 17 15 17 21 22 23 24 26 22 21 17 20 14 14 12 14 15 21 20 22 31 35
42 37 37 38 43 37 28 29 26 17 8 12 18 17 18 27 24 21 18 18 19 18 19 18 18 17 21 22 20 22 23 23 21 22 19 16 13 22 15 16 18 21 22 24 30
40 31 36 40 33 33 29 28 27 21 19 15 18 23 18 21 26 22 20 18 21 20 20 20 19 17 19 21 20 20 21 21 19 17 19 18 18 20 19 19 21 21 22 24 28
34 35 38 39 27 27 27 25 27 23 19 21 25 27 32 27 27 24 21 22 22 21 20 21 18 16 17 19 24 22 22 23 22 21 19 24 23 18 19 22 22 23 21 22 27
35 29 35 37 29 24 22 22 23 24 24 17 24 23 26 30 32 26 27 27 29 23 25 26 19 19 17 16 19 19 18 19 20 23 22 19 16 15 16 20 23 23 22 23 22
36 30 29 29 31 27 23 19 20 20 22 23 19 23 24 23 26 24 30 29 30 28 27 25 20 18 17 16 15 13 15 16 16 19 18 19 16 13 15 17 19 22 24 25 23
33 27 27 23 29 28 25 22 18 18 18 19 23 21 22 20 26 19 25 31 27 31 26 26 23 20 16 18 16 13 13 14 13 14 15 15 15 17 19 18 19 20 23 25 26
38 30 27 24 26 27 27 24 20 17 19 19 21 23 22 23 33 34 33 33 33 31 30 27 26 21 20 18 18 18 17 16 16 16 17 17 18 19 18 18 20 20 21 28 31

GFSSW_sfc_30mbdewp_078.txt.gz
Dewpoint
52 53 53 54 55 55 56 57 58 57 57 57 57 57 56 56 54 39 35 36 38 39 40 34 33 30 26 22 19 14 12 13 17 12 16 26 25 27 39 39 42 48 51 54 61
50 50 50 50 53 54 55 55 57 57 57 57 57 56 56 56 48 36 37 38 37 38 32 29 25 25 23 20 14 15 14 18 18 11 14 17 17 23 32 39 43 45 53 60 60
49 49 50 50 51 53 53 54 55 57 57 57 57 57 56 54 40 35 46 39 37 38 30 29 25 20 21 21 19 16 14 15 16 17 18 21 32 33 30 41 42 43 46 58 59
47 47 49 49 50 52 53 52 53 54 56 56 56 56 55 50 26 39 47 40 40 32 28 30 22 19 19 18 19 17 16 14 16 18 22 23 35 30 31 43 45 47 53 56 56
46 46 46 48 50 51 52 52 51 52 54 55 56 56 51 37 31 42 47 46 36 29 32 27 21 19 17 19 19 18 19 15 16 23 22 28 26 29 45 49 49 50 55 57 58
45 46 46 47 49 50 51 51 51 51 52 54 55 56 47 36 34 30 33 41 34 33 29 26 21 23 24 22 21 20 20 23 21 25 29 28 33 36 43 47 48 51 54 56 56
47 45 45 46 47 48 49 50 50 50 51 52 55 52 44 34 33 27 29 32 37 33 28 25 25 24 23 24 24 23 22 24 33 35 34 34 31 37 40 38 44 49 51 54 56
46 46 44 44 45 46 48 49 49 49 50 52 55 49 36 30 31 31 29 27 32 31 29 27 28 26 26 25 25 23 21 27 35 33 31 29 28 35 36 41 43 46 50 54 55
47 46 46 45 44 45 48 49 48 49 50 54 50 46 32 28 30 28 25 24 31 32 31 29 29 29 27 25 23 19 22 26 25 34 31 25 30 40 39 42 41 40 47 53 54
47 48 46 46 45 44 47 47 46 48 51 48 44 33 31 20 22 26 24 20 26 30 30 28 28 26 25 24 19 22 27 24 22 27 26 23 18 40 44 33 41 40 47 50 51
46 48 47 46 46 46 44 40 27 43 46 38 33 28 27 24 22 26 21 20 22 28 27 27 26 22 22 23 22 19 18 16 18 22 23 22 15 21 32 33 37 39 38 43 47
46 48 47 46 46 46 43 38 27 41 33 25 22 21 24 27 29 27 25 16 22 23 26 25 24 23 23 22 21 18 16 17 19 19 23 20 17 22 31 32 38 41 39 42 48
46 47 46 45 43 41 39 37 37 36 35 26 22 18 16 20 22 27 23 17 19 22 22 24 22 25 21 21 20 18 18 20 21 21 23 22 18 20 27 31 38 38 43 42 45
46 46 46 43 38 41 41 43 39 44 30 8 12 24 18 19 17 20 27 23 19 18 20 20 22 21 22 22 20 19 20 22 20 20 18 28 20 20 23 29 32 39 38 42 43
47 46 46 43 38 38 42 43 45 48 7 3 14 29 27 21 17 19 21 24 22 20 20 20 19 20 20 21 21 20 23 25 22 21 21 24 23 15 23 24 27 35 40 40 42
47 46 46 40 37 38 40 45 46 32 8 8 25 25 26 26 20 17 17 23 23 21 19 19 19 20 19 22 22 22 23 25 23 23 20 20 19 19 22 22 20 30 36 39 41
47 47 44 37 33 36 45 45 31 14 2 0 19 24 23 24 22 21 18 18 22 18 17 17 17 18 19 19 22 22 23 21 25 23 20 22 21 21 25 23 20 20 30 38 40
47 47 43 39 35 37 43 38 23 7 4 9 15 20 24 25 24 22 19 15 21 20 17 16 15 17 20 23 23 23 23 22 23 27 27 30 20 13 20 20 21 19 21 31 37
46 44 41 42 38 41 38 28 24 12 3 7 13 17 25 24 22 21 19 18 18 21 16 16 16 18 20 23 23 23 22 23 22 24 28 27 27 25 18 16 16 18 21 24 28
43 40 39 41 40 41 34 26 23 24 12 8 6 18 21 26 25 21 19 20 18 22 21 19 18 19 18 21 22 22 25 23 21 20 19 15 16 25 24 19 18 20 23 29 35
43 37 39 41 39 37 28 27 23 24 23 17 12 9 11 11 26 21 20 21 22 22 22 21 21 18 16 19 18 20 20 27 24 21 20 21 18 30 25 22 18 20 23 24 26
40 31 41 40 33 32 29 29 26 20 20 22 22 21 11 16 25 27 21 22 25 23 20 21 21 19 19 20 20 20 21 23 23 19 25 27 24 22 21 20 20 21 21 22 26
35 35 40 39 27 28 27 27 26 21 18 19 21 20 19 24 21 27 25 24 25 26 21 23 20 20 18 19 21 20 19 21 22 22 21 23 22 25 21 19 22 22 22 23 24
34 29 36 38 32 26 24 22 23 23 22 19 23 23 25 32 36 26 27 26 32 30 31 27 23 20 20 20 21 18 18 18 23 24 24 24 22 20 19 19 21 23 28 30 23
33 31 32 29 32 30 24 20 20 19 20 23 23 24 26 30 34 26 31 32 32 32 29 27 24 23 19 18 17 18 19 19 18 18 17 21 20 20 19 15 21 24 28 26 25
31 31 29 28 30 31 28 24 19 16 16 17 20 23 23 32 23 21 25 36 33 34 34 28 25 24 23 19 19 17 17 17 17 16 15 16 16 16 16 17 22 21 19 20 25
38 35 30 30 31 29 27 25 21 19 16 16 17 20 23 30 34 35 30 35 38 35 31 34 27 25 24 23 18 16 18 16 13 15 15 14 17 18 19 19 20 20 23 23 23

GFSSW_sfc_30mbdewp_081.txt.gz
Dewpoint
51 51 51 51 52 53 54 54 55 55 57 57 57 57 56 56 55 48 36 41 45 41 40 37 29 29 29 29 27 23 17 10 12 17 16 27 28 30 46 47 49 51 46 52 61
49 48 48 50 51 52 53 53 53 53 55 56 56 56 56 56 51 43 42 39 38 41 31 29 31 31 28 25 24 18 14 14 17 18 17 20 31 28 40 43 44 46 45 53 61
46 47 47 48 50 51 52 52 52 52 53 54 55 56 56 55 46 36 44 40 38 39 30 29 29 28 22 21 21 20 13 15 16 15 22 22 29 45 41 43 47 45 50 58 60
46 47 46 47 48 50 51 51 51 51 51 52 54 56 55 53 16 40 45 44 40 32 30 27 29 23 21 18 19 19 19 18 18 16 23 21 32 43 46 48 50 57 58 58 59
45 45 47 46 47 48 50 50 50 50 50 51 52 55 53 41 38 42 47 44 35 28 29 29 29 24 19 18 20 22 21 20 26 31 31 29 36 37 39 47 51 57 57 57 57
46 44 45 46 47 47 47 48 49 49 50 50 51 54 51 32 33 36 43 42 34 29 28 29 28 26 21 23 22 21 22 21 27 30 30 32 33 36 37 44 50 55 56 56 57
48 46 44 45 45 46 46 48 48 49 49 49 50 52 48 32 28 27 32 31 39 35 32 31 29 25 25 23 26 25 24 24 26 29 31 32 33 33 38 42 47 51 54 54 55
48 47 46 46 46 46 46 46 46 47 48 49 50 52 41 38 35 36 33 33 31 38 36 33 29 30 27 28 26 24 23 20 29 30 32 31 28 35 39 44 46 49 54 54 54
48 48 48 48 46 46 47 47 45 46 48 50 50 48 39 36 34 33 33 28 28 27 32 31 28 29 29 27 26 25 22 22 29 32 32 32 31 35 40 39 43 49 53 53 53
48 48 48 48 47 47 46 44 44 46 46 48 49 43 43 29 25 26 30 27 25 28 30 31 27 26 27 26 23 22 23 28 26 30 33 30 30 36 38 41 45 51 52 51 51
47 47 47 47 47 46 45 40 33 40 45 43 40 35 27 33 34 24 27 24 23 20 28 30 26 25 25 26 26 25 23 25 28 29 29 26 28 38 39 42 45 48 51 51 50
47 47 47 47 46 44 43 38 37 41 34 38 40 39 39 38 30 28 28 22 21 17 23 28 25 27 27 25 24 23 21 18 19 24 24 23 21 27 37 40 41 41 44 47 52
48 47 47 47 45 41 39 39 42 44 35 33 34 29 25 20 14 16 23 26 19 18 20 27 27 27 26 25 23 22 18 19 19 22 22 24 23 24 30 39 39 40 45 48 51
48 48 47 46 38 38 39 40 41 42 36 24 20 24 24 21 17 14 20 27 20 16 19 23 27 26 25 25 22 20 21 21 24 20 18 26 20 23 29 37 39 38 42 48 49
45 48 47 45 39 34 36 45 43 48 1 5 9 22 20 18 18 18 19 22 24 16 19 20 21 24 23 22 23 22 22 25 25 23 22 23 23 24 26 30 37 41 40 44 48
45 47 47 43 43 38 38 46 46 34 18 8 24 26 24 16 18 20 17 20 24 20 19 20 22 22 21 22 22 23 23 24 25 24 21 23 24 23 23 28 31 39 43 42 47
45 47 47 43 37 38 43 41 32 25 8 -1 13 25 25 24 17 21 19 16 17 20 21 22 21 21 20 20 21 22 21 21 23 24 23 33 29 24 24 24 27 38 40 43 44
45 46 46 44 42 40 40 35 24 22 18 7 5 16 23 23 25 25 22 19 18 22 21 20 18 20 19 19 19 20 22 22 20 23 30 35 28 23 26 25 24 26 38 41 43
46 44 44 44 43 40 36 25 21 22 19 14 10 6 7 24 25 23 22 21 19 20 21 18 17 21 19 22 23 23 22 25 27 33 29 30 28 27 24 23 20 18 20 39 41
43 41 39 43 44 39 33 22 22 23 21 19 19 18 14 21 25 24 23 23 22 18 23 23 18 20 19 20 23 22 26 23 25 23 26 24 26 23 23 23 22 21 29 33 36
43 37 39 42 43 37 25 24 24 24 21 21 19 20 21 23 25 32 31 23 22 20 20 21 22 21 23 19 20 22 22 26 26 26 20 19 20 28 25 23 22 22 24 28 34
39 30 41 42 33 33 27 25 26 24 23 21 20 20 21 23 22 23 29 27 23 23 20 24 24 21 21 23 22 22 22 23 25 25 26 24 23 29 25 24 22 23 24 25 27
34 34 42 40 27 28 28 27 28 27 25 23 22 21 21 21 23 25 32 29 25 26 24 24 24 22 21 22 22 21 22 22 22 26 25 23 23 26 27 25 22 22 23 24 27
32 28 36 38 35 30 29 26 26 28 27 27 24 22 20 20 24 27 34 34 30 30 31 28 25 23 21 22 23 22 20 21 22 22 22 24 25 26 25 23 22 23 27 26 29
34 30 34 29 32 30 29 26 26 24 25 24 23 23 22 19 24 28 36 37 33 33 34 30 25 24 24 22 22 23 21 21 19 22 22 25 26 26 24 21 22 26 25 28 28
30 31 33 29 32 32 30 28 27 25 23 20 22 21 22 23 24 27 35 36 36 33 34 33 26 26 24 25 23 21 23 20 20 20 19 19 22 22 22 20 21 22 27 28 28
38 36 32 31 31 30 29 27 28 27 25 22 20 19 19 21 26 34 42 42 40 36 32 33 32 26 25 26 25 23 20 21 23 22 19 17 18 19 19 20 20 22 23 25 26

GFSSW_sfc_30mbdewp_084.txt.gz
Dewpoint
49 48 49 49 51 52 52 52 52 52 52 52 54 55 55 55 55 47 37 37 45 43 42 35 29 28 28 28 29 23 20 17 16 13 15 23 28 43 48 45 48 51 46 47 60
47 46 47 47 49 50 51 51 51 51 52 52 52 53 54 55 52 39 40 43 48 46 32 27 30 32 30 28 26 22 18 18 18 15 17 21 33 38 43 45 44 47 49 51 57
46 46 45 46 48 49 49 50 50 50 51 51 51 52 53 54 45 30 47 46 45 43 30 29 28 29 26 23 21 20 18 20 19 17 19 22 39 46 43 45 49 48 50 53 60
45 45 46 46 47 48 48 48 48 49 49 50 50 51 53 53 -4 39 42 42 44 36 27 25 28 27 22 20 20 18 19 20 19 27 28 26 42 41 47 48 56 57 56 59 57
46 46 46 45 46 47 47 47 47 48 48 48 49 51 51 42 37 39 46 44 40 29 23 23 26 28 25 20 20 22 22 24 27 31 31 34 35 37 46 50 57 57 57 57 56
48 49 48 47 45 46 47 47 47 47 47 47 49 51 50 26 32 32 47 43 34 26 26 29 29 30 26 23 23 23 25 25 25 27 30 30 35 37 38 50 55 55 55 56 57
48 48 48 48 48 47 47 48 47 47 47 46 47 49 45 24 31 28 28 32 37 33 29 29 28 28 26 25 26 27 24 24 23 25 29 33 32 32 38 45 54 54 54 55 56
48 48 49 48 48 48 48 47 47 47 46 46 48 49 35 39 40 39 38 35 34 34 34 33 34 30 29 28 26 25 25 21 23 28 31 29 25 32 38 43 51 53 53 54 55
48 48 48 48 48 47 47 46 45 45 46 47 48 48 31 41 39 38 36 28 29 32 34 36 35 31 29 27 26 26 23 23 24 30 31 30 27 33 38 44 49 53 52 51 53
49 48 48 47 47 47 46 43 42 46 46 47 49 43 39 25 29 35 32 31 28 27 27 29 29 26 27 26 22 23 24 25 26 27 31 30 29 32 39 42 46 51 51 50 51
48 48 48 47 47 47 44 38 37 38 41 43 43 39 30 32 39 36 30 29 26 22 24 29 27 26 24 25 26 26 25 24 25 27 29 28 28 32 39 45 47 50 50 49 49
47 49 48 47 47 47 43 38 39 41 38 41 38 36 42 41 40 39 33 24 23 20 22 25 26 28 27 26 26 25 25 24 22 22 27 25 24 26 40 44 47 48 49 49 48
46 47 48 47 47 41 37 38 42 41 39 36 33 30 33 35 35 36 27 25 21 20 19 19 27 28 27 26 26 26 24 23 18 20 23 24 23 27 36 42 45 47 49 50 49
46 46 47 47 36 38 32 34 39 44 33 28 29 28 29 26 19 25 18 14 26 21 19 18 21 26 27 26 26 25 25 22 24 23 20 25 20 23 32 39 41 41 44 49 50
45 45 46 46 41 36 30 36 40 46 -5 2 17 25 27 19 16 17 15 10 18 20 18 18 20 23 26 25 27 25 26 22 24 24 23 23 23 23 33 38 38 40 43 48 50
44 44 45 44 43 41 40 41 45 32 3 11 17 20 21 21 17 20 15 20 19 24 22 17 19 23 25 26 26 26 23 25 27 25 22 30 29 23 25 30 38 38 43 47 49
45 45 45 44 37 41 41 39 30 23 19 4 10 23 24 18 17 17 17 14 18 20 21 22 17 19 22 21 22 23 21 19 19 21 20 34 29 27 27 27 36 39 39 46 48
45 45 45 45 44 42 39 33 23 22 18 16 18 17 13 10 21 16 15 19 16 18 21 19 18 20 22 21 20 22 21 19 17 20 25 34 25 26 29 28 29 39 41 41 48
45 44 43 43 45 42 33 22 9 14 21 19 18 13 10 20 26 29 23 18 21 16 19 20 19 22 21 22 21 21 21 24 25 33 28 29 30 30 27 24 24 33 39 43 43
42 40 38 42 44 40 29 17 17 13 14 17 17 19 17 19 22 29 32 27 24 22 19 23 20 21 20 21 21 22 26 23 27 23 23 26 28 25 23 21 23 22 38 41 43
42 36 39 41 43 36 23 21 19 17 15 19 14 15 15 17 21 23 30 31 29 27 22 20 23 21 22 20 18 23 23 26 25 26 23 22 21 26 24 24 22 26 30 38 42
38 31 41 42 31 31 27 24 23 23 24 22 22 18 18 15 17 20 21 27 28 33 29 21 21 20 21 23 23 23 22 24 24 25 27 25 23 28 26 26 26 23 25 33 39
35 34 42 40 26 27 28 29 28 24 25 26 23 22 23 22 20 18 25 28 35 38 27 23 20 21 19 22 23 22 22 24 27 28 26 25 24 30 28 27 27 26 24 25 31
32 28 35 38 34 26 26 28 28 27 28 27 25 25 25 24 23 23 22 28 36 34 38 30 25 19 18 19 22 22 23 23 25 24 23 26 25 25 27 26 26 26 24 25 27
32 30 33 28 31 30 28 26 26 25 27 27 27 26 24 24 22 22 22 35 35 36 39 34 24 25 24 23 24 23 23 23 22 23 22 22 24 26 27 27 27 24 25 27 28
31 32 35 29 29 32 29 27 26 25 26 24 24 24 23 23 22 18 26 33 33 36 37 36 27 26 24 26 25 27 27 23 23 22 23 23 24 26 25 28 25 23 26 27 27
38 36 33 29 29 28 28 29 26 27 27 27 26 24 23 23 23 23 28 37 40 38 36 37 32 25 22 25 25 25 26 26 25 26 23 20 22 24 24 23 21 22 24 26 28

GFSSW_sfc_30mbdewp_087.txt.gz
Dewpoint
48 47 47 47 49 49 48 49 50 49 49 49 50 51 52 52 52 48 28 29 44 48 42 32 29 29 28 28 28 23 20 18 17 15 14 17 26 44 47 43 47 50 46 52 60
46 46 46 46 48 48 49 49 49 49 48 49 50 51 51 51 50 39 35 41 46 47 32 30 29 31 29 29 27 23 19 19 19 17 18 20 28 40 43 43 45 45 51 51 59
46 44 44 44 47 48 48 48 48 47 48 49 49 50 51 52 41 15 45 46 50 47 30 28 28 27 27 26 24 22 20 20 19 20 20 18 36 43 42 43 48 47 52 51 59
46 46 46 46 46 46 46 47 48 47 47 47 47 49 51 52 -11 34 46 46 49 43 28 24 25 27 24 21 20 18 19 19 20 23 29 26 39 41 44 44 54 57 53 58 58
48 47 47 46 46 47 48 48 48 48 47 47 47 49 48 38 26 37 42 46 40 28 22 21 24 27 25 23 21 20 21 24 25 26 31 37 36 37 44 54 57 57 58 56 57
49 49 48 47 46 46 48 48 48 48 48 46 46 48 47 14 22 30 38 44 33 26 25 26 23 28 27 26 23 24 25 25 25 25 28 31 35 39 42 54 55 55 55 57 55
49 49 48 47 47 46 47 47 47 47 46 46 46 46 44 14 23 30 31 28 35 32 26 28 29 27 27 25 28 26 24 24 23 24 26 31 30 34 37 54 54 54 54 55 54
49 49 49 48 48 48 47 46 46 45 45 44 46 46 32 38 38 38 38 34 34 30 30 32 31 29 28 29 28 25 25 21 22 26 29 29 23 31 42 53 53 53 53 52 53
48 50 49 48 48 47 47 46 46 45 44 45 47 45 19 39 39 40 39 32 27 30 33 35 35 32 32 28 25 26 21 22 24 27 28 30 26 32 40 48 51 52 52 50 51
46 48 49 49 48 48 47 45 44 46 46 47 48 36 30 15 31 36 36 32 26 28 28 29 29 27 28 26 22 22 23 24 25 27 30 29 29 32 39 45 48 51 50 50 51
46 46 47 48 49 48 44 40 38 35 39 39 40 39 39 37 40 38 39 31 28 25 23 28 25 25 26 27 26 25 25 24 23 25 27 26 27 28 35 40 46 49 50 49 50
45 46 46 46 48 46 40 38 39 40 35 39 39 39 39 39 35 33 37 27 25 21 24 24 26 27 28 26 25 25 24 23 25 25 24 24 25 25 35 39 44 48 49 48 48
45 45 45 46 48 39 37 35 37 39 38 36 38 36 34 34 30 29 35 26 23 22 21 20 24 26 28 27 25 25 24 23 23 25 24 25 23 23 33 41 46 49 49 48 48
45 44 44 45 37 39 31 36 39 40 32 29 34 28 28 29 26 31 32 24 23 21 21 20 21 22 27 26 27 24 26 26 25 24 21 24 20 22 27 38 44 46 48 48 48
43 43 43 45 42 37 34 40 41 44 -8 5 20 29 29 19 15 20 29 24 17 23 20 19 18 19 20 25 28 25 27 26 26 24 23 23 22 22 33 33 38 42 45 47 49
43 43 43 41 42 42 42 41 44 31 5 6 17 24 22 23 20 19 15 14 12 13 23 20 21 20 19 21 26 27 26 25 28 25 22 26 26 23 25 28 34 40 42 44 49
43 44 44 43 37 42 41 37 31 23 22 12 17 19 16 16 18 17 14 13 10 6 6 18 22 22 23 22 24 26 24 21 19 19 20 30 31 26 27 28 30 34 40 42 47
44 45 44 44 44 43 39 26 22 20 21 21 19 17 13 21 22 27 17 11 13 19 18 3 9 22 20 19 20 21 22 20 17 18 19 32 27 25 30 30 30 35 38 41 46
44 43 42 43 44 42 32 12 13 17 19 15 12 16 18 20 22 24 28 28 19 14 17 20 17 21 20 20 19 19 19 23 21 32 27 27 29 30 29 29 25 33 39 40 46
41 40 37 42 44 40 27 14 13 15 12 12 9 15 16 14 14 22 27 32 28 28 26 19 16 22 21 21 21 20 25 21 26 21 22 25 26 24 25 23 23 31 38 40 44
40 34 35 43 42 34 22 19 18 17 15 13 17 9 8 12 16 19 25 28 30 30 32 33 22 19 23 20 19 21 20 24 23 24 18 20 22 27 27 27 23 23 34 41 42
37 29 40 41 31 29 25 21 22 22 23 24 22 17 18 19 16 14 16 22 27 31 29 35 26 18 18 21 23 21 20 22 22 24 26 23 22 26 28 27 26 26 26 34 43
33 31 42 39 24 25 25 24 24 22 21 25 25 25 24 21 21 22 20 20 23 34 33 37 32 21 19 20 21 20 22 24 28 28 25 23 23 27 28 28 28 27 26 25 34
34 28 33 36 34 28 24 25 26 30 26 25 24 25 25 22 23 23 24 25 28 34 36 36 36 32 20 19 19 20 21 23 25 23 24 26 25 26 27 27 27 27 27 26 26
35 30 33 26 29 30 26 25 25 25 30 30 28 27 26 23 23 23 23 21 27 38 34 36 32 34 28 21 20 24 24 24 23 25 23 24 26 26 26 26 26 28 28 27 26
32 31 35 30 30 31 30 27 24 25 25 25 25 24 27 26 23 19 18 18 27 37 36 37 32 35 28 25 20 18 21 25 27 27 24 24 24 28 28 28 28 26 26 26 25
38 37 35 31 28 28 28 28 27 26 25 27 26 26 25 26 26 26 26 25 27 31 35 33 33 32 27 26 26 24 24 23 23 27 24 22 25 26 26 26 27 25 26 26 27

GFSSW_sfc_30mbdewp_090.txt.gz
Dewpoint
46 46 46 46 48 48 48 49 49 48 47 48 48 48 49 51 51 47 22 23 43 47 39 34 29 28 27 26 27 23 20 18 18 16 16 17 22 41 46 44 46 49 48 51 60
47 47 46 45 47 48 48 47 48 48 48 48 48 48 50 51 48 37 36 41 47 50 33 28 29 30 29 29 27 24 21 19 19 18 18 20 21 34 41 43 43 46 50 59 59
45 45 46 46 46 46 48 48 48 46 47 48 48 48 49 51 29 8 52 49 50 45 30 30 30 28 27 28 25 23 22 22 21 20 21 20 25 40 41 39 43 43 47 51 57
46 46 46 46 46 46 47 48 47 47 47 46 47 47 49 50 -12 25 48 45 52 47 30 25 25 26 26 23 22 20 20 20 19 22 26 27 33 39 42 39 50 51 55 52 58
48 48 47 47 46 46 47 47 47 45 46 46 46 47 47 21 12 30 35 46 44 33 26 22 24 26 24 24 21 19 19 22 24 25 25 32 32 38 41 49 56 57 55 57 57
49 49 48 48 47 47 47 47 47 47 45 45 45 46 47 -3 12 29 31 43 35 27 24 22 21 26 25 25 23 24 23 25 26 25 25 27 31 38 38 54 55 55 56 55 55
49 50 50 49 48 48 48 47 47 46 46 46 44 45 43 0 13 26 28 21 31 31 25 27 28 28 27 25 28 27 25 25 24 23 23 28 28 33 38 55 53 53 54 53 53
45 46 48 49 49 49 48 47 46 47 48 47 45 44 34 35 38 36 37 33 31 25 25 32 31 28 27 28 29 27 25 22 21 25 26 30 24 28 38 51 52 53 52 52 53
45 46 47 47 48 48 48 46 46 47 46 45 45 45 17 32 36 35 38 33 32 32 28 34 32 30 31 28 27 26 21 22 21 27 28 29 27 29 40 50 51 52 50 50 51
44 45 46 46 46 47 47 43 44 47 46 47 45 34 21 9 33 37 39 34 29 30 29 31 33 31 30 28 18 22 22 24 23 26 26 27 27 28 34 41 48 51 50 49 49
44 44 45 46 46 47 43 40 36 35 38 36 37 38 37 39 39 39 39 34 28 27 18 28 27 25 26 28 26 24 24 24 24 25 24 23 24 24 29 37 41 49 50 48 50
43 43 45 45 46 45 37 38 35 37 34 37 37 37 37 36 33 31 34 31 25 21 25 27 24 24 27 27 27 26 24 24 25 23 24 24 24 25 29 34 37 44 49 49 50
44 43 44 45 44 39 37 36 38 39 35 34 36 36 35 35 29 26 28 27 25 23 22 21 23 26 27 27 26 26 25 24 23 22 25 24 23 23 28 37 43 46 48 49 49
44 43 43 44 36 41 31 39 40 40 31 27 34 32 31 32 25 30 26 20 19 22 23 21 22 21 26 26 26 24 26 25 24 24 21 24 21 23 23 28 39 43 47 48 48
43 43 42 44 41 36 37 42 41 42 -2 9 22 29 29 24 19 20 28 27 18 23 22 20 19 21 19 25 27 25 26 26 26 25 24 24 23 23 30 26 27 35 44 47 48
43 43 43 40 41 41 42 41 43 29 7 12 22 22 19 24 21 22 23 20 22 22 20 20 22 20 20 21 27 29 27 27 27 26 23 24 23 23 23 25 30 34 40 46 48
43 43 43 43 35 41 41 36 26 21 20 17 18 18 17 19 22 26 15 18 8 7 10 12 14 23 23 19 24 25 25 20 19 22 21 25 29 25 25 26 28 29 35 42 47
43 44 43 43 43 42 37 19 19 18 22 18 10 18 16 15 19 24 26 13 15 16 14 -2 -6 9 22 21 21 24 23 20 17 17 18 32 27 25 29 31 32 31 34 41 44
43 41 41 41 43 42 30 6 8 18 15 9 7 14 17 16 6 12 24 30 28 29 17 18 6 16 17 20 19 19 23 24 21 28 24 24 29 29 29 26 27 28 37 39 43
40 39 35 41 43 39 26 13 8 16 13 12 4 7 8 2 -3 3 11 30 27 31 31 29 19 19 20 22 21 17 21 18 25 19 19 24 27 22 23 24 25 25 35 38 43
38 33 35 42 41 33 20 18 18 15 19 10 18 8 7 9 14 14 16 22 29 29 33 34 30 21 22 20 19 20 19 23 23 23 18 18 21 27 24 24 27 24 27 39 41
35 28 40 42 30 29 22 22 21 20 22 22 21 18 10 12 13 13 15 17 14 14 22 37 35 27 22 22 21 21 19 20 18 20 26 22 19 26 26 28 28 25 25 31 41
31 31 41 38 23 24 23 22 23 22 20 22 25 25 25 23 20 21 19 21 29 31 32 31 32 26 22 21 22 20 20 21 25 25 20 20 21 26 27 28 27 28 27 28 36
31 26 32 35 34 25 24 23 22 26 23 23 24 24 22 22 23 23 24 24 25 22 32 32 30 28 26 29 33 30 20 20 22 23 22 23 24 26 25 26 26 28 28 27 26
33 28 30 24 28 28 27 23 22 22 27 28 26 23 22 21 23 22 22 23 23 23 33 32 26 27 30 32 32 34 27 20 19 22 22 22 24 26 26 27 27 28 28 27 26
30 29 32 26 28 27 27 24 23 23 22 28 28 27 28 26 25 22 23 21 19 32 33 37 27 30 27 30 32 31 26 23 25 24 25 26 24 28 29 29 28 28 28 27 28
36 37 33 27 26 26 25 25 25 25 28 26 28 29 28 27 29 28 29 28 27 25 24 30 31 30 25 30 31 27 23 21 21 27 26 24 24 26 26 27 27 28 28 27 27

GFSSW_sfc_30mbdewp_093.txt.gz
Dewpoint
48 47 47 47 47 47 48 48 49 47 47 47 47 48 49 50 50 45 20 24 45 49 42 37 30 30 27 26 26 24 22 19 19 18 17 18 22 36 44 43 45 47 47 50 59
46 46 46 46 46 46 46 47 47 47 47 47 47 48 49 50 48 33 34 44 49 49 30 27 27 29 28 29 27 24 22 20 21 19 19 20 22 23 39 43 43 45 50 57 58
46 46 47 47 47 47 47 47 47 46 46 46 47 47 49 49 25 1 50 49 47 51 31 31 31 30 27 28 26 24 21 23 22 21 21 22 23 33 39 34 39 39 45 54 58
48 48 48 47 47 47 48 49 47 46 46 46 45 46 48 49 4 26 46 48 51 48 31 27 28 26 26 25 25 23 23 23 21 21 25 24 29 36 41 32 50 47 54 52 53
50 49 49 48 48 47 48 48 48 46 46 46 46 45 46 19 3 22 34 45 47 38 31 25 23 25 23 25 22 21 20 20 21 22 26 28 28 31 36 42 53 56 54 53 55
47 47 46 46 47 47 47 48 48 47 46 46 47 45 46 8 -2 26 29 41 33 29 25 24 21 25 25 25 23 24 22 22 26 26 26 25 26 36 30 44 54 56 55 55 55
46 45 46 45 45 44 45 46 47 47 48 49 47 44 41 8 11 27 30 24 27 27 25 26 26 29 28 25 27 27 26 26 26 25 23 26 26 30 34 52 52 54 54 53 53
44 45 46 46 46 45 45 46 46 47 48 48 46 43 26 37 38 35 35 30 30 22 27 30 31 28 26 28 29 27 26 21 22 25 26 28 22 27 34 48 49 52 53 53 52
44 44 46 46 46 46 45 45 45 48 46 47 43 42 17 29 32 32 34 29 33 31 24 30 31 29 31 26 24 26 15 21 21 27 28 30 26 28 41 46 45 51 51 51 51
43 44 44 46 46 46 45 43 43 47 46 46 44 34 21 22 39 39 39 37 30 31 28 26 31 31 31 27 15 18 22 24 21 26 26 24 24 26 29 39 42 49 51 50 50
43 43 43 45 45 45 42 38 34 33 34 27 31 37 34 35 36 39 38 35 30 26 16 28 24 27 26 27 25 24 23 22 25 26 24 21 22 24 26 31 37 46 50 50 50
43 43 43 44 45 43 37 35 35 36 32 35 33 34 34 35 31 28 33 31 27 23 24 26 15 26 27 29 28 26 23 23 25 25 25 23 22 23 26 28 34 39 47 49 49
44 43 42 44 44 40 37 36 39 39 33 32 34 35 35 35 30 25 27 28 27 23 24 17 23 25 26 26 27 26 25 25 23 24 25 24 23 24 26 33 38 42 45 49 49
43 43 44 43 35 40 32 40 42 41 29 24 32 32 36 34 29 30 26 15 17 23 23 23 23 23 25 23 25 21 26 26 25 24 18 24 18 24 25 25 29 40 46 48 49
42 42 43 43 40 35 39 42 41 40 -17 11 25 32 29 26 24 21 28 23 14 15 21 22 20 21 21 25 27 24 27 26 26 25 24 23 23 23 27 25 26 29 44 47 48
42 43 43 39 39 40 41 40 42 23 -12 13 21 19 18 25 24 27 25 25 23 19 21 19 22 22 21 21 28 28 27 27 28 27 23 25 23 22 23 25 26 30 37 46 48
43 43 42 42 34 41 40 34 26 11 14 18 14 13 19 15 25 24 22 23 12 17 12 16 19 21 22 19 26 27 24 18 21 22 20 25 24 22 26 27 27 27 31 44 47
42 42 42 42 42 42 35 14 13 10 21 16 9 12 19 2 6 16 26 24 28 20 16 4 -3 17 18 21 20 24 22 17 14 18 19 31 25 24 30 31 32 33 33 41 47
42 40 40 40 43 41 25 2 2 16 14 10 5 5 11 8 1 1 14 27 29 27 20 22 10 21 12 21 21 23 22 22 17 26 23 23 29 29 28 29 29 27 30 36 44
39 37 36 40 43 37 23 6 4 16 13 10 2 5 4 5 2 7 1 25 28 30 31 28 25 21 21 19 19 20 26 22 23 16 13 19 24 19 23 23 25 26 28 36 42
37 32 34 42 41 32 20 17 17 17 16 13 14 12 12 11 12 6 9 19 27 14 24 31 31 27 26 20 19 20 18 20 24 23 15 14 20 29 24 25 25 27 29 30 41
34 26 38 41 29 27 21 20 21 17 18 19 23 18 11 8 4 6 3 13 15 22 22 35 32 28 27 28 26 22 21 19 17 17 26 21 18 26 28 28 29 29 28 28 39
31 28 40 39 22 23 24 21 21 21 19 19 23 24 25 21 14 18 21 20 27 24 23 21 29 24 23 24 29 28 28 29 24 22 18 19 20 27 27 28 28 27 29 30 31
31 24 31 35 32 24 21 21 21 24 22 22 22 24 23 22 24 23 23 23 24 22 25 26 26 18 16 26 28 27 30 28 32 26 21 20 19 25 24 25 27 28 30 30 29
32 27 27 23 27 28 27 24 22 21 24 25 24 21 19 18 19 20 21 23 23 23 26 31 27 28 25 23 22 25 26 25 28 31 23 20 22 24 24 25 26 29 30 29 29
28 27 31 27 25 25 25 25 22 23 21 22 22 24 25 23 21 21 24 24 25 26 29 31 29 30 26 27 27 23 25 28 30 32 29 23 21 27 28 29 29 29 30 29 28
34 35 32 24 24 25 23 24 24 23 24 24 22 29 29 29 31 31 30 29 30 29 27 26 26 28 24 27 28 25 26 30 31 30 26 23 25 27 26 27 29 29 30 30 29

GFSSW_sfc_30mbdewp_096.txt.gz
Dewpoint
46 46 46 47 47 47 48 47 47 47 47 47 47 47 48 49 48 31 19 24 38 47 47 40 34 28 26 20 24 24 15 10 8 9 9 19 21 24 33 33 37 40 39 44 53
47 47 47 47 47 48 48 48 48 47 47 47 47 47 48 48 41 22 30 40 45 51 36 31 24 24 18 18 20 19 13 10 12 12 13 18 22 23 27 27 33 35 41 48 54
48 48 48 48 47 47 48 49 48 47 47 46 47 48 48 47 24 7 45 51 50 49 31 27 26 22 19 22 21 18 15 12 16 16 19 18 20 23 25 23 23 25 29 43 52
50 49 48 47 46 47 48 49 48 46 46 46 47 48 48 41 -13 24 40 45 51 42 32 30 29 26 22 21 21 21 20 17 17 17 21 19 20 22 23 25 26 38 40 48 51
47 47 46 45 45 44 45 46 46 44 46 47 47 47 41 19 4 8 31 46 41 40 33 29 27 25 19 18 19 24 18 18 17 19 19 21 22 22 22 23 26 39 50 49 50
46 46 46 46 45 45 45 46 45 46 46 47 49 47 39 12 2 9 24 39 32 28 27 31 26 22 17 17 18 16 20 17 18 18 20 23 21 19 23 23 35 46 48 51 52
45 45 45 45 45 44 44 46 45 46 47 48 50 45 37 16 11 19 26 21 28 19 11 14 23 24 22 20 22 22 20 17 18 19 19 19 18 16 21 33 38 44 49 50 51
43 44 45 46 45 45 46 45 46 46 47 48 48 42 28 24 25 24 16 12 14 16 8 11 25 23 24 24 24 22 21 18 19 18 20 24 13 23 29 34 31 37 46 49 51
41 44 45 45 46 45 45 45 46 47 47 46 42 39 20 21 23 27 32 28 32 30 16 24 29 25 26 22 18 19 16 15 18 20 17 24 17 24 32 32 31 33 41 46 49
42 43 44 45 45 45 44 44 43 47 43 44 41 34 22 10 28 32 35 37 33 29 18 17 27 26 25 21 17 17 17 18 16 17 24 19 22 22 24 25 28 31 39 44 46
44 44 43 44 44 44 42 33 24 29 26 19 13 23 20 23 30 24 37 35 31 28 19 9 20 21 20 22 21 18 18 16 16 21 23 20 15 17 22 23 25 30 38 42 45
44 44 43 44 44 43 38 32 32 35 29 28 28 29 29 30 27 22 26 31 29 21 24 20 11 10 20 22 22 21 19 16 17 19 21 19 16 18 21 23 25 27 34 39 44
44 43 43 44 42 37 35 35 38 38 32 24 30 31 32 32 29 24 23 20 27 20 23 21 18 18 12 20 21 20 17 17 17 19 21 20 17 13 16 25 28 33 34 37 41
43 42 43 43 36 35 29 36 38 42 25 11 23 29 33 32 29 26 24 14 17 20 21 22 20 18 18 16 17 16 18 19 18 17 16 20 11 10 18 21 22 23 34 38 41
41 42 43 43 35 29 33 38 37 42 -12 13 24 31 23 27 24 24 28 21 12 7 23 21 22 21 18 20 20 19 21 18 21 19 18 18 17 13 18 22 22 22 24 38 43
42 42 43 37 37 35 38 39 41 25 -9 9 19 16 18 22 22 25 24 24 22 14 11 18 19 21 21 19 22 24 25 25 25 23 20 20 16 12 14 22 21 23 29 38 43
42 43 40 38 30 39 38 29 19 0 -0 12 14 14 17 12 20 10 25 22 15 16 11 7 12 15 20 21 21 23 24 20 21 20 18 18 19 15 22 23 24 24 25 37 42
42 41 39 36 39 39 34 15 11 -1 6 15 12 11 16 8 5 0 24 19 22 21 12 7 3 10 16 16 17 22 24 17 12 14 16 21 19 19 24 24 24 30 31 35 42
40 38 37 36 39 38 25 4 -8 1 8 8 0 -6 -3 10 3 4 2 26 24 21 20 20 15 20 12 15 16 18 20 21 16 17 19 20 23 27 25 26 26 26 26 31 39
37 36 31 37 40 35 19 3 -3 9 13 10 -4 -2 -6 1 3 3 -0 19 27 15 18 19 21 22 20 18 16 15 18 20 20 15 13 13 15 18 20 21 22 25 25 29 36
37 30 33 39 40 30 15 4 5 9 12 8 3 3 3 4 3 -3 -4 0 15 15 13 24 23 22 25 18 12 12 16 18 17 18 14 13 14 21 21 21 22 25 26 30 35
34 25 39 39 29 25 18 14 15 11 14 10 9 11 8 5 1 -5 -5 -5 4 10 8 22 23 21 23 26 28 28 20 15 13 12 18 18 16 22 23 25 26 27 30 30 36
32 27 40 38 21 20 19 18 18 16 14 9 7 9 7 6 1 1 5 13 20 25 22 22 23 18 20 24 29 26 27 28 28 24 19 17 19 22 23 25 29 28 27 30 32
32 25 31 34 31 21 16 16 17 20 19 17 16 16 15 15 16 12 16 22 26 23 26 23 19 15 10 18 21 22 25 25 26 26 21 20 19 19 19 21 23 22 26 28 31
32 23 24 23 24 28 21 19 16 17 20 21 19 17 13 10 10 13 15 17 18 20 24 22 19 17 18 16 14 15 15 17 23 24 24 25 24 21 22 21 22 25 27 29 30
29 27 26 17 19 21 22 21 19 19 20 17 19 17 20 19 15 16 24 22 22 24 27 29 20 26 22 22 21 17 15 15 17 21 22 23 24 28 26 23 23 23 24 24 29
35 31 26 18 18 19 18 21 19 19 21 21 20 19 19 23 31 34 33 31 28 25 25 26 24 23 18 22 25 22 21 18 15 17 25 26 26 26 24 22 23 27 29 27 29

GFSSW_sfc_30mbdewp_099.txt.gz
Dewpoint
47 47 48 48 48 48 48 49 49 48 48 48 47 49 49 50 49 28 15 22 34 40 48 36 35 27 22 21 19 19 12 12 12 10 9 9 16 19 22 24 23 24 31 33 46
49 49 49 49 49 48 48 48 49 48 47 47 48 48 50 50 41 23 40 43 37 46 36 31 31 25 20 19 17 16 12 11 13 11 9 10 14 18 19 19 20 23 26 33 48
49 48 48 47 45 45 45 46 46 45 45 47 48 48 49 49 33 18 42 48 50 47 35 29 27 23 19 16 15 15 13 12 13 12 12 12 12 14 15 18 20 21 24 30 39
48 47 46 46 46 46 46 47 45 44 44 45 47 48 49 43 12 28 34 46 49 42 34 28 25 22 19 16 17 16 16 15 15 14 13 13 15 13 14 16 18 20 25 36 40
46 46 46 45 46 46 45 46 45 45 45 46 47 49 43 21 19 35 33 38 35 37 31 27 26 25 22 21 18 18 17 19 17 17 16 15 14 13 14 15 17 20 25 37 44
45 45 45 45 45 44 45 46 46 46 46 47 49 50 42 20 7 5 14 14 25 18 26 28 28 26 24 21 17 16 17 19 19 17 16 15 15 16 16 16 19 23 31 40 46
43 43 44 44 44 44 44 45 45 46 47 49 48 47 33 20 10 13 14 12 19 23 17 23 27 26 23 21 20 18 17 18 17 18 17 17 16 15 16 15 15 28 34 42 45
41 42 45 45 45 45 45 45 45 46 48 48 49 41 29 19 20 13 11 9 11 13 15 13 6 7 20 23 23 22 20 18 18 19 17 17 15 15 19 20 27 28 29 40 45
42 42 45 45 45 45 44 44 45 47 47 47 44 38 26 20 16 25 32 14 18 7 11 3 3 15 15 17 17 20 17 17 18 20 18 17 17 15 24 26 26 26 26 32 42
43 43 44 45 45 44 43 42 41 45 46 41 40 33 29 10 14 24 22 32 34 32 26 11 12 11 16 16 16 17 16 17 18 19 18 18 16 17 17 22 23 23 23 29 36
43 44 44 44 44 43 41 29 22 32 27 13 9 14 10 11 19 19 20 29 33 30 23 16 9 5 9 17 18 20 17 17 18 20 18 18 19 17 16 16 20 22 22 26 34
44 44 43 43 43 42 39 26 29 31 26 23 20 20 21 25 25 21 20 24 24 21 19 18 11 11 7 11 19 20 19 19 19 20 18 20 20 19 17 15 16 21 22 24 30
43 44 42 42 41 39 29 31 32 34 27 17 20 25 28 30 25 21 18 14 15 18 17 18 19 16 15 15 12 18 20 21 20 20 18 18 19 20 19 17 15 17 24 25 28
43 42 42 39 36 32 28 31 33 39 23 13 22 27 31 30 27 23 24 19 9 8 12 14 16 20 17 15 11 11 18 19 19 17 16 18 15 17 16 12 13 22 24 26 28
42 40 41 41 32 28 30 33 33 41 -4 7 22 29 21 26 22 22 26 22 14 7 14 13 18 20 19 17 18 13 16 17 17 17 18 18 15 16 18 16 13 18 21 21 30
41 42 41 33 37 32 34 35 37 23 -3 6 15 19 13 20 20 19 24 24 22 19 14 7 13 22 21 21 20 18 18 19 21 18 17 19 18 17 17 16 21 21 20 25 30
42 41 38 33 30 36 36 30 18 3 -7 -3 9 12 11 11 15 11 16 21 20 16 14 13 8 8 18 17 20 20 18 17 16 19 19 19 18 19 18 16 22 21 23 30 34
41 41 36 34 34 34 33 18 9 -1 1 12 11 8 6 11 8 9 5 15 21 21 17 11 7 7 8 13 14 19 19 20 12 14 19 21 16 17 20 20 21 24 25 28 34
39 35 36 36 35 34 27 9 -1 1 2 2 5 -4 -12 6 8 6 6 15 22 17 19 18 15 17 7 10 15 11 19 20 20 20 21 25 21 21 25 24 23 22 23 25 33
35 37 34 34 36 31 22 11 -0 -1 9 7 -3 -12 -11 -13 -2 -2 -0 15 24 21 18 23 19 18 16 12 14 15 14 16 18 17 14 14 15 18 22 22 22 22 23 23 28
39 34 32 32 35 26 17 11 4 3 9 4 -1 -3 -2 -3 -2 1 -2 4 1 16 12 13 23 19 21 19 13 13 14 15 15 14 13 16 18 21 18 23 23 23 26 24 28
37 29 36 34 28 25 19 12 13 7 7 8 5 2 3 2 2 1 -2 -5 -2 -0 2 13 21 21 18 20 24 24 13 14 16 14 14 17 18 23 22 22 25 27 26 29 29
33 30 37 35 23 21 18 14 12 13 8 6 5 4 4 4 3 2 1 -1 -1 9 17 24 14 13 14 16 20 23 23 20 17 16 13 13 18 21 21 23 23 26 26 27 30
33 26 33 34 30 25 22 17 13 15 15 14 12 11 7 6 7 6 6 9 16 19 25 24 18 14 11 15 24 22 24 25 24 22 20 17 14 16 19 20 21 23 24 25 30
33 25 27 25 25 26 21 20 14 11 16 16 14 13 11 9 8 8 10 10 12 15 17 22 19 14 11 11 12 15 15 15 17 20 21 22 20 21 22 21 22 23 23 24 27
31 26 23 20 19 18 20 19 20 12 15 14 14 12 16 9 8 5 5 9 12 12 12 16 20 17 13 13 12 12 12 11 10 12 16 18 19 21 22 23 25 25 23 23 22
35 28 27 25 20 19 18 16 16 15 17 18 17 20 18 18 24 29 32 30 29 30 25 30 23 18 18 13 11 13 12 9 6 4 7 12 17 19 24 23 23 24 24 22 25

GFSSW_sfc_30mbdewp_102.txt.gz
Dewpoint
49 49 49 48 48 47 46 46 48 46 46 46 46 47 49 50 50 35 26 25 33 42 43 35 37 34 26 21 20 19 16 13 12 12 12 11 10 16 18 17 20 22 22 28 46
48 48 48 47 47 46 46 47 47 46 46 46 46 47 49 50 44 30 30 37 40 40 25 27 29 30 27 20 19 17 16 14 12 11 12 12 11 11 15 16 17 20 22 28 46
47 47 47 46 46 46 46 47 46 46 45 46 47 48 50 50 34 28 46 49 44 41 33 24 27 29 26 22 18 17 15 15 13 12 13 12 12 12 12 12 14 17 20 24 43
46 46 45 45 45 46 46 46 45 45 45 46 47 48 51 46 12 32 46 46 47 41 34 31 27 26 24 21 20 15 14 14 14 15 14 15 14 13 14 14 14 15 17 21 32
46 44 44 44 44 44 45 46 45 44 45 46 47 50 43 27 24 27 35 36 32 32 26 30 26 25 22 22 20 18 17 16 18 16 17 17 16 16 15 15 14 15 17 23 34
44 43 43 43 43 43 44 45 45 45 45 46 49 50 42 24 16 12 14 12 10 19 16 23 24 26 25 25 24 23 21 18 17 17 19 18 17 16 16 17 17 17 19 25 35
44 44 42 43 43 43 44 44 44 44 44 47 49 45 36 24 19 20 17 13 10 14 19 14 18 25 27 25 23 22 20 18 16 16 17 17 17 16 18 18 17 16 17 27 39
43 43 43 45 45 45 44 44 43 44 45 49 49 42 34 26 23 13 10 8 8 10 16 18 15 15 13 16 21 22 22 20 21 19 19 18 16 18 18 17 16 15 25 29 38
44 45 45 45 45 44 43 42 42 44 47 48 45 43 30 21 13 20 27 28 10 11 6 3 4 8 7 10 13 17 18 19 20 21 19 18 17 17 18 18 22 25 25 26 37
46 46 45 45 45 42 41 41 41 43 44 43 40 34 32 17 8 11 16 18 26 29 28 23 12 0 -3 5 10 12 17 18 19 20 19 18 18 18 19 18 22 25 25 24 26
44 45 45 45 43 42 39 36 22 34 35 24 21 30 19 8 9 12 15 14 28 28 26 22 11 4 5 6 8 11 14 20 25 26 24 21 19 19 20 19 18 20 21 23 24
44 44 44 44 41 42 38 30 27 29 25 22 18 15 13 14 15 20 18 14 24 22 21 21 18 15 12 10 6 6 15 19 22 25 24 23 20 19 20 20 20 17 17 20 24
44 43 43 42 41 38 30 30 29 32 27 17 14 16 18 21 19 21 17 14 16 17 17 15 13 12 14 16 14 10 8 19 23 24 26 24 21 20 19 21 21 20 19 19 23
43 42 41 40 36 34 29 32 31 36 24 3 16 16 24 26 24 25 21 15 11 8 6 8 12 12 12 17 16 14 14 14 14 17 20 23 18 19 19 19 21 21 20 18 24
44 42 41 40 32 30 29 33 31 38 5 11 18 26 24 24 21 20 21 21 17 9 5 3 6 7 10 11 17 17 16 14 17 18 18 17 16 18 19 18 19 18 17 23 27
43 42 41 34 33 35 33 35 34 25 1 1 17 19 16 19 18 18 22 24 20 16 15 11 8 6 13 16 19 19 18 18 17 16 16 18 16 17 18 18 18 19 17 22 24
43 42 40 32 30 35 36 32 21 8 -6 -6 5 11 10 7 14 14 12 17 18 14 14 13 11 10 5 12 18 20 18 16 15 17 15 18 17 18 20 20 21 19 21 26 29
42 41 37 33 33 36 33 25 14 2 2 3 9 9 7 4 2 6 10 3 4 14 13 10 5 11 12 5 10 15 20 20 19 16 20 28 28 22 21 22 21 22 23 27 31
40 35 34 33 38 39 30 18 8 3 0 -0 0 4 4 -1 6 2 3 3 2 26 19 16 10 18 12 8 9 12 17 20 21 21 21 26 26 26 24 21 21 21 23 26 33
38 36 34 34 39 37 30 20 12 6 2 5 4 3 -6 -9 -12 2 1 -3 10 23 20 17 18 18 16 10 9 10 12 14 20 19 19 19 21 27 29 28 25 24 23 25 29
37 34 32 38 39 35 23 17 14 12 9 5 6 3 -4 -6 -8 -7 -3 -1 8 10 12 9 15 14 16 19 14 10 12 15 18 20 19 18 18 26 26 28 24 28 27 27 26
36 28 33 39 32 29 21 17 16 11 6 4 6 4 2 1 -1 -0 -1 1 -1 1 -0 2 6 14 12 21 24 27 17 14 14 15 20 20 18 22 29 30 27 26 29 30 29
31 30 35 38 26 25 21 17 15 13 8 7 6 6 5 1 1 3 3 5 4 1 -2 18 16 10 8 7 10 16 21 21 16 17 16 19 21 23 26 30 28 23 25 27 30
33 25 28 36 31 24 26 20 11 13 11 10 9 8 7 4 4 3 4 5 6 8 24 24 19 19 13 8 19 22 22 22 21 28 19 15 14 16 27 27 26 23 24 25 27
31 28 22 23 26 24 22 26 26 16 15 13 11 10 9 8 7 5 6 6 7 14 17 18 14 14 12 11 9 11 15 17 18 20 26 25 23 24 26 30 27 26 27 25 24
30 30 24 24 30 27 21 18 17 17 13 21 11 9 11 8 8 6 6 8 9 11 10 14 11 10 11 12 10 7 9 13 14 14 13 14 15 17 19 20 19 21 22 23 26
36 35 33 25 20 19 17 24 15 11 19 18 19 25 21 18 25 28 28 26 26 25 26 25 18 10 12 14 11 7 7 8 10 11 11 10 12 13 16 18 20 23 25 25 24

GFSSW_sfc_30mbdewp_105.txt.gz
Dewpoint
48 48 48 48 47 47 47 47 48 47 46 46 46 47 48 50 51 43 28 32 40 44 43 35 36 36 36 32 26 22 18 17 16 15 14 14 13 19 19 17 18 20 22 26 55
47 47 47 47 46 46 46 47 47 46 46 46 46 47 49 50 48 38 36 37 42 45 29 25 27 34 33 27 23 20 18 17 18 17 16 15 15 13 15 18 18 20 24 43 55
46 46 45 45 45 45 45 45 46 45 45 46 47 48 50 51 42 30 48 44 43 42 30 30 25 28 29 29 26 21 17 18 18 18 17 17 15 16 13 13 15 16 21 48 53
45 45 42 43 44 44 45 46 44 43 43 44 45 47 51 49 2 34 45 46 46 44 36 29 27 25 25 26 27 22 21 19 17 16 15 14 16 17 17 16 17 17 16 28 48
46 45 42 41 42 43 45 45 45 44 43 43 44 48 48 36 34 31 41 46 43 38 34 32 31 29 25 26 25 23 22 21 20 18 17 18 18 19 19 18 18 17 16 17 41
46 46 45 42 42 43 44 44 44 45 43 43 45 50 47 28 26 31 31 27 21 14 18 22 24 24 24 25 25 26 25 24 24 22 19 17 18 20 20 20 18 18 19 19 28
45 45 46 44 44 43 44 44 43 43 43 43 46 48 41 26 24 23 25 12 16 13 11 18 15 16 20 22 23 22 23 24 23 22 20 19 17 17 18 19 18 19 19 22 32
47 46 46 46 46 45 45 43 42 42 43 45 49 46 35 35 33 30 21 11 9 10 11 11 13 13 15 15 15 13 14 19 23 23 23 22 18 19 20 19 19 19 19 23 32
45 46 47 47 47 45 43 42 42 43 45 47 46 44 39 35 28 26 18 23 20 14 8 8 6 4 9 8 9 12 12 13 17 22 22 22 20 22 28 20 19 19 19 24 27
46 45 46 47 46 44 42 41 40 43 43 42 43 40 40 24 13 8 10 14 16 21 24 8 7 2 4 3 4 7 12 13 15 19 24 25 25 27 28 26 18 21 26 26 26
45 45 45 46 45 42 41 37 27 30 27 34 31 35 34 25 8 8 14 14 15 22 28 27 20 13 7 1 -1 2 6 8 10 16 23 24 25 27 27 27 19 20 24 26 26
45 45 45 45 42 40 40 34 27 29 28 28 26 23 21 18 12 11 15 17 13 20 26 25 22 19 10 4 1 2 6 7 9 18 19 21 26 28 29 28 27 21 21 21 24
45 46 44 43 40 39 32 32 32 35 31 24 20 18 19 18 15 13 16 18 14 18 23 22 22 22 19 17 13 12 13 11 8 12 20 23 25 28 28 26 24 22 21 22 29
43 44 44 42 35 32 32 34 34 38 30 22 18 15 15 22 20 18 20 16 13 13 16 15 15 18 16 15 14 14 17 15 15 13 12 21 18 26 26 23 23 21 21 22 28
42 43 43 42 35 32 33 38 35 38 5 10 14 18 22 23 23 24 24 21 15 12 10 9 5 5 5 6 10 12 19 18 17 15 15 16 16 21 21 19 19 21 22 22 23
41 43 43 39 37 34 34 37 36 27 10 4 22 21 21 23 24 20 22 22 22 20 19 16 16 12 10 9 11 16 20 20 18 17 14 16 16 16 18 19 19 21 21 22 23
42 43 41 38 33 34 36 35 25 21 4 -6 8 19 16 20 21 18 19 21 20 18 16 17 15 14 13 11 10 18 18 18 16 16 15 17 17 18 22 22 20 20 22 26 28
42 42 40 38 37 36 36 29 19 12 5 1 3 6 11 10 9 10 14 14 16 19 17 14 13 13 13 11 7 16 17 18 16 16 16 22 25 25 26 28 29 22 24 33 46
40 37 37 37 38 38 34 22 11 8 9 7 5 4 6 8 6 4 7 6 7 18 20 18 15 21 21 20 9 6 14 16 20 20 19 22 24 26 36 35 34 26 23 32 43
38 36 35 37 39 35 29 21 17 14 13 15 11 5 6 4 0 -1 -3 3 9 25 18 16 15 18 17 21 19 9 13 11 18 19 19 19 18 22 29 34 36 30 30 30 40
36 31 33 37 38 34 24 21 18 18 17 14 12 6 7 5 3 2 -0 2 7 21 11 4 11 12 15 15 24 27 12 11 14 24 20 19 19 32 36 39 38 36 30 30 34
33 26 34 39 31 31 26 24 21 18 18 17 13 6 7 8 4 4 5 7 7 6 3 5 5 5 8 12 25 30 28 29 9 12 21 19 19 26 31 34 39 36 34 35 34
31 29 32 36 24 26 24 21 21 19 18 17 12 7 8 7 5 4 6 9 10 7 7 9 17 18 15 8 9 21 26 31 30 19 15 16 20 25 27 36 39 36 34 34 29
32 24 30 33 33 28 27 25 26 24 18 16 15 10 9 8 8 7 8 9 11 12 22 21 17 14 17 19 18 14 14 19 29 27 29 27 25 24 27 34 36 36 35 31 28
31 26 26 21 27 28 28 25 22 26 27 19 11 10 10 10 11 10 10 9 8 9 18 19 14 14 15 14 14 12 11 10 10 16 25 26 27 30 29 33 35 37 31 23 23
28 28 30 28 27 25 28 25 22 20 30 27 26 23 22 12 11 17 25 24 23 26 25 22 15 16 14 12 9 10 12 11 10 10 13 14 16 21 16 20 21 28 24 24 25
35 33 32 24 27 25 26 22 23 28 24 17 25 24 22 21 27 28 29 29 28 25 24 25 21 19 16 15 12 11 12 12 10 8 9 9 13 17 11 8 37 42 43 44 45

GFSSW_sfc_30mbdewp_108.txt.gz
Dewpoint
47 47 46 46 46 46 46 46 46 46 45 45 45 46 47 50 50 45 28 22 38 42 47 38 39 36 37 34 31 24 21 20 19 17 17 18 17 17 19 18 19 22 23 25 51
45 45 44 43 44 45 45 45 45 44 44 44 45 46 48 50 47 35 36 36 44 49 37 32 29 33 34 31 29 24 20 20 19 19 18 19 18 17 15 16 18 19 26 51 55
45 45 44 42 42 44 44 45 46 44 44 44 45 46 48 51 36 22 44 46 48 49 30 26 27 28 32 31 27 24 19 19 19 19 19 18 18 18 15 14 16 16 19 51 54
45 45 44 43 42 43 45 46 45 43 43 44 44 45 50 49 -10 30 45 47 45 42 36 31 29 24 23 27 29 27 26 23 21 20 19 18 17 15 15 16 18 18 18 52 54
46 45 44 44 43 44 46 45 45 45 43 43 43 45 48 36 29 32 39 51 48 40 36 35 31 29 27 27 26 25 26 26 24 22 21 21 19 18 19 20 21 21 20 41 51
47 47 47 45 45 45 46 46 45 45 44 42 43 46 46 20 25 32 31 29 34 30 21 23 25 25 23 23 25 26 25 25 25 24 24 22 22 19 19 20 20 20 20 21 39
47 47 47 45 46 46 45 45 44 43 43 43 45 47 43 22 24 21 25 27 14 15 13 13 18 16 17 15 19 18 19 19 21 23 23 23 21 19 20 22 23 22 21 21 23
45 46 46 46 47 46 45 44 43 43 44 44 46 47 34 35 36 36 34 26 16 11 12 12 12 9 14 15 14 15 17 19 23 23 23 23 20 23 24 27 27 29 27 22 21
44 46 46 45 46 45 44 42 43 44 45 46 47 44 35 42 36 32 34 18 18 19 14 8 8 5 4 10 10 12 14 17 18 16 16 18 16 22 27 27 27 28 28 25 21
45 45 46 46 45 44 43 42 42 43 44 44 43 40 38 21 24 12 10 12 13 15 20 15 6 3 5 6 9 9 11 12 11 13 17 19 21 24 26 27 28 29 29 26 25
42 45 46 45 44 43 41 38 28 27 29 28 33 36 34 33 22 11 12 13 14 15 15 26 8 6 1 5 10 9 6 3 4 4 11 15 20 21 23 24 24 28 29 28 26
41 43 45 45 44 42 35 32 32 33 29 29 27 27 23 23 22 16 12 11 16 9 16 23 25 20 14 9 5 2 0 -1 1 6 9 13 14 13 21 25 26 28 29 26 26
41 42 44 45 42 35 32 33 36 37 30 26 20 18 19 20 12 7 11 17 15 14 18 22 22 25 22 18 10 5 2 1 5 11 13 15 15 18 22 27 29 29 28 25 25
41 41 44 44 32 34 32 33 34 38 23 20 19 20 16 19 16 9 8 13 17 13 17 21 23 23 22 20 20 17 17 14 15 15 14 15 12 15 16 20 25 26 25 24 29
41 41 44 44 38 33 32 34 36 37 -17 7 16 18 17 21 22 24 16 19 15 12 14 15 10 15 17 17 18 16 16 16 17 16 16 15 14 13 17 17 19 21 21 21 22
41 41 43 39 37 36 35 37 36 16 -8 5 19 17 22 23 21 24 20 23 21 17 17 17 18 17 14 13 11 13 16 20 20 18 15 16 15 14 16 17 19 20 21 23 23
41 42 40 40 34 36 37 34 13 12 13 3 6 8 6 21 23 23 22 20 18 18 18 18 16 16 16 13 13 13 16 14 15 15 13 16 16 16 18 19 23 27 29 33 34
41 41 40 37 38 37 35 28 12 10 11 9 14 7 3 7 20 21 19 18 21 20 16 16 15 16 15 14 14 13 11 10 12 13 14 18 16 21 26 29 38 39 38 36 32
41 37 37 37 38 37 33 20 11 12 3 13 13 5 7 8 7 4 4 3 16 19 18 16 15 20 20 21 20 13 12 15 14 20 18 19 20 21 22 39 38 39 40 36 46
38 36 34 36 38 36 29 18 18 17 15 16 13 13 12 11 6 6 0 8 13 19 19 10 14 15 14 17 25 23 19 12 18 11 11 19 20 20 28 36 39 39 41 39 41
34 29 30 36 38 33 22 21 20 21 19 15 16 15 15 12 7 5 5 10 7 6 5 5 11 13 13 17 15 22 25 27 17 18 13 17 19 35 35 36 38 43 43 40 40
33 23 30 39 29 29 25 23 25 24 24 21 19 16 16 9 6 6 6 7 11 12 6 10 7 2 6 10 14 22 27 28 25 20 25 21 18 22 36 38 40 41 40 39 35
30 29 30 32 18 25 28 26 25 23 22 21 17 19 19 7 6 9 8 11 12 11 12 11 11 10 3 10 22 23 22 17 30 31 26 23 17 27 30 39 41 41 44 40 39
30 21 25 33 30 26 23 22 22 22 26 25 23 22 19 12 12 10 12 13 14 11 21 19 15 8 4 14 15 7 10 12 25 22 25 23 27 24 24 33 39 38 42 39 39
30 24 27 21 23 26 27 26 23 21 20 26 24 21 19 9 10 10 12 21 22 27 22 18 11 14 14 14 13 12 11 10 9 15 21 19 19 17 22 29 37 39 41 37 37
27 26 28 26 25 22 23 23 22 23 25 26 26 25 26 20 16 14 23 24 23 25 24 25 18 17 15 16 16 15 15 13 11 10 10 12 15 17 29 27 33 33 38 42 46
34 32 29 22 23 22 20 24 27 22 24 27 30 29 26 22 27 28 29 28 28 26 23 22 20 18 14 18 18 15 14 14 12 12 11 9 15 37 37 33 40 43 44 45 45

GFSSW_sfc_30mbdewp_111.txt.gz
Dewpoint
45 45 45 44 44 44 45 45 45 45 45 45 45 45 46 48 50 44 22 16 35 42 43 42 39 38 37 34 31 26 25 23 21 18 17 18 19 20 19 17 19 22 33 38 51
44 45 44 44 44 44 44 45 45 45 44 44 45 45 47 48 47 31 28 37 41 49 34 32 31 34 32 33 30 27 23 22 22 21 19 20 19 19 18 18 17 18 28 49 55
45 45 45 45 44 44 45 45 46 44 44 44 44 45 47 50 29 2 42 44 46 52 33 31 28 30 30 31 27 24 23 21 20 20 20 19 19 20 19 18 17 16 17 48 54
46 45 45 46 45 45 46 47 45 44 44 44 43 44 48 47 -16 18 49 50 53 50 32 32 27 25 24 26 30 26 24 23 22 24 23 21 21 19 18 17 18 18 19 47 53
46 46 46 45 44 44 46 46 46 44 44 43 44 45 46 30 17 26 32 48 48 40 34 32 28 25 23 24 26 25 26 26 27 27 25 23 21 21 21 21 21 22 22 37 52
46 46 45 45 43 43 45 45 45 45 44 44 44 45 44 12 16 27 24 26 33 36 28 32 29 28 27 25 24 25 25 26 25 25 25 24 24 23 22 22 21 23 25 29 43
45 45 45 45 44 45 45 45 44 45 45 45 45 45 42 22 25 24 27 27 23 26 16 13 17 16 16 15 19 17 16 17 20 22 23 24 23 22 22 22 27 28 29 29 29
45 45 47 47 46 45 45 44 44 45 46 46 46 44 35 38 37 36 35 33 30 26 15 14 14 11 11 14 13 13 14 14 22 23 23 22 20 22 22 25 26 27 28 29 29
44 44 46 46 45 45 44 44 44 45 47 46 46 44 28 39 39 39 39 29 21 19 17 11 10 7 6 10 12 12 10 12 15 20 20 18 12 18 23 23 26 26 27 29 29
41 42 44 45 46 45 44 43 41 43 43 45 44 38 33 22 33 28 26 22 12 13 14 17 7 4 5 8 11 11 11 12 13 13 15 15 13 12 18 23 23 25 25 26 28
41 41 42 45 46 44 42 35 33 29 32 25 32 38 34 34 28 20 14 12 14 14 10 23 13 6 3 9 13 12 10 9 8 8 4 3 5 8 11 19 21 20 21 25 27
41 41 42 45 45 44 34 33 32 34 31 32 30 29 27 23 16 13 20 7 12 7 12 15 21 17 6 4 4 5 5 4 3 2 4 5 7 10 14 15 19 23 24 27 26
41 41 41 44 44 34 33 32 34 34 31 27 26 22 20 24 18 10 12 13 10 10 13 6 13 22 24 19 14 11 8 6 5 4 9 11 13 15 17 19 24 26 27 27 28
42 41 43 44 33 37 32 34 35 37 20 10 18 23 17 19 15 11 6 5 14 4 13 14 15 16 24 23 21 20 15 12 8 12 13 15 12 14 16 16 18 20 20 24 26
41 41 42 42 39 34 33 36 36 37 -26 -1 18 20 18 18 23 21 7 9 7 12 16 11 14 20 17 19 22 19 21 19 18 16 16 14 15 13 16 15 17 18 19 22 24
42 41 41 39 38 36 36 37 35 3 -20 3 12 11 7 6 19 23 15 16 17 15 16 13 16 16 15 15 17 17 13 16 19 17 13 12 14 11 13 15 18 20 22 37 37
41 41 40 40 30 37 37 34 2 -4 4 3 10 10 5 8 10 22 21 14 19 16 16 18 17 18 18 15 15 14 14 8 5 14 12 13 14 13 17 18 25 36 38 40 41
41 42 39 38 37 37 35 24 2 0 11 12 13 7 1 11 9 7 21 18 20 20 17 15 11 17 17 16 15 14 13 10 0 4 8 16 15 16 25 30 39 40 42 42 42
40 36 36 36 38 37 30 16 5 11 12 13 12 12 11 13 14 7 6 8 12 19 18 18 17 19 16 18 21 17 12 14 11 11 15 13 18 16 24 32 36 40 43 43 42
36 34 31 36 38 35 26 18 17 19 19 18 10 14 14 13 13 9 7 9 9 10 15 18 15 13 14 20 20 24 25 13 17 10 8 11 18 16 22 33 35 37 42 43 42
32 26 27 38 38 31 20 20 21 20 21 19 20 18 16 15 13 11 7 10 12 9 12 7 10 14 14 13 9 17 24 26 26 20 16 9 10 31 34 37 37 38 41 42 42
30 19 28 38 28 26 24 23 23 23 25 24 22 21 19 17 16 13 6 12 14 13 9 10 8 4 6 13 16 24 29 30 24 23 25 25 20 27 27 39 39 40 39 42 44
28 26 33 30 17 19 25 26 26 20 25 24 22 21 21 20 20 12 10 15 16 14 9 15 10 2 2 18 18 21 18 14 27 30 21 23 21 25 26 23 40 40 41 43 46
28 17 22 31 26 26 24 22 21 25 25 23 23 22 23 22 23 19 13 16 22 19 25 23 13 4 1 11 13 7 10 8 20 16 15 19 18 22 20 19 35 38 41 43 44
29 22 25 19 22 26 24 22 20 22 24 24 23 24 26 23 22 11 15 23 22 28 24 23 10 13 14 15 14 12 14 14 12 12 10 6 13 16 17 22 25 36 39 41 44
26 24 27 26 25 23 22 21 19 20 25 25 25 26 27 26 20 19 22 23 20 24 22 23 18 19 16 17 16 16 18 17 16 15 13 11 9 11 19 27 29 36 39 41 43
34 32 28 22 21 21 19 20 24 30 27 28 30 29 28 27 25 26 28 27 26 25 23 22 19 17 9 17 16 11 10 14 13 13 13 10 10 19 34 36 37 38 40 44 45

GFSSW_sfc_30mbdewp_114.txt.gz
Dewpoint
45 45 45 45 46 46 46 46 46 46 45 45 45 45 45 47 49 45 21 15 37 40 45 44 39 38 36 33 30 27 21 20 14 16 13 18 19 21 20 19 19 20 26 32 46
46 46 46 46 46 46 46 45 46 45 45 45 45 45 45 47 47 35 30 37 45 47 37 34 33 35 30 32 31 26 23 22 22 20 17 20 20 20 19 19 20 22 23 40 53
46 46 46 46 45 45 45 45 45 44 44 44 44 45 46 48 30 -2 51 46 50 51 36 33 31 32 29 32 30 27 24 24 23 22 22 20 20 21 20 20 20 21 20 40 49
46 46 46 45 45 44 45 46 44 44 43 44 45 45 46 46 -19 13 47 47 53 52 34 28 26 23 24 24 29 24 25 24 23 23 23 22 24 23 22 22 22 21 20 26 44
46 46 46 45 45 45 46 46 45 44 44 45 46 46 44 20 3 18 32 47 46 37 32 31 27 24 22 23 25 27 27 26 27 27 27 27 25 25 22 21 21 22 23 23 36
45 45 45 45 44 44 45 45 45 45 45 45 46 46 42 1 9 23 26 25 35 37 30 34 31 28 27 27 26 27 26 25 26 26 26 24 24 24 24 24 23 23 23 27 32
44 44 44 45 45 44 45 45 45 46 46 47 47 45 42 5 25 31 34 28 26 31 24 21 17 15 17 16 19 20 16 17 18 21 22 24 23 23 24 24 23 27 28 28 30
42 42 43 44 45 46 46 45 45 46 47 47 47 44 28 35 38 38 36 31 33 32 26 18 16 13 11 12 13 13 14 13 19 20 22 23 21 23 21 22 21 20 24 27 28
42 42 42 44 45 45 45 45 44 45 46 47 44 43 19 34 36 35 39 35 30 28 21 14 13 9 10 9 12 12 11 12 13 21 22 21 17 15 19 13 13 20 23 24 25
42 41 41 43 45 45 45 43 41 42 43 46 44 37 29 26 33 29 28 35 17 17 17 12 8 5 6 10 8 11 11 13 12 13 15 15 13 13 7 10 13 16 21 22 22
41 41 41 42 43 44 41 34 30 27 32 25 23 28 31 26 25 21 21 21 12 12 13 19 14 6 4 6 11 13 12 11 11 11 8 8 5 4 6 9 12 15 18 20 22
41 42 41 41 43 42 34 32 31 32 29 32 31 30 28 27 24 18 16 10 12 8 11 12 17 18 7 5 7 9 9 9 5 5 5 4 5 9 10 12 14 15 19 21 24
42 42 41 42 43 37 34 32 35 35 31 28 27 25 25 28 25 20 14 12 8 10 10 7 9 16 18 10 6 5 3 4 4 7 8 10 12 12 15 16 19 21 23 24 23
42 41 42 43 34 38 29 35 36 36 23 5 17 22 18 20 18 20 12 9 9 6 6 9 9 8 16 21 17 15 17 16 16 11 14 16 10 11 14 16 17 16 18 19 25
41 42 41 41 37 32 33 36 36 37 -23 -7 16 21 16 16 12 19 8 6 4 11 12 6 16 13 7 14 24 22 20 18 17 17 16 15 13 11 12 11 13 18 20 31 40
41 41 40 37 37 36 37 36 32 -11 -32 -6 13 11 6 6 7 12 12 9 7 5 14 10 16 19 19 20 19 19 19 16 19 16 10 12 10 5 9 15 18 27 37 41 42
41 41 40 39 27 37 36 31 -11 -20 -7 5 11 10 3 13 9 10 9 13 14 13 13 16 15 18 17 15 16 16 13 6 1 11 5 12 13 9 13 16 33 39 41 43 43
41 40 37 38 38 37 34 16 -14 -5 5 15 13 7 10 13 12 11 8 6 11 11 19 16 13 18 18 15 13 14 13 8 -3 -1 1 16 10 14 21 32 37 40 42 44 43
40 34 33 34 37 36 25 2 -0 14 17 17 12 7 14 14 10 12 10 6 8 10 10 19 17 18 15 20 20 17 14 16 12 12 11 10 14 15 26 32 35 35 39 41 40
34 31 29 35 38 31 21 13 16 20 19 19 12 18 16 16 11 8 10 13 11 12 14 14 17 14 14 23 17 21 26 15 17 10 8 9 14 14 29 34 35 36 37 38 38
31 22 31 38 36 27 16 18 21 21 24 23 21 19 17 17 14 13 12 11 14 12 12 12 9 12 13 11 10 18 21 25 24 23 17 14 12 29 25 32 34 37 39 40 40
28 12 29 36 24 25 22 23 25 24 23 24 23 22 20 19 18 17 15 11 13 14 10 14 13 8 7 18 19 29 28 28 19 22 24 23 20 27 21 23 24 37 41 43 43
27 27 31 29 17 17 23 24 24 22 19 24 23 22 21 20 18 22 20 17 18 13 13 20 14 5 10 18 13 18 12 24 27 27 20 18 16 24 19 15 18 32 39 43 44
25 16 20 28 24 24 23 21 22 23 22 23 23 23 22 21 22 21 21 20 22 20 27 24 17 9 4 8 11 5 10 11 21 15 12 17 10 8 12 15 12 18 37 43 44
27 20 25 18 20 24 23 21 18 19 24 26 24 23 23 23 23 23 22 19 19 26 23 23 11 12 13 14 14 12 12 14 12 12 9 3 5 5 8 9 12 15 36 41 41
26 23 27 24 25 22 21 20 16 17 25 24 25 25 27 25 24 24 21 23 17 23 21 23 15 19 14 16 16 15 17 17 16 15 14 13 11 12 12 12 12 26 37 40 41
32 32 26 21 21 21 18 18 21 24 27 30 30 27 27 28 31 30 28 26 24 21 21 20 16 17 10 16 15 8 10 13 14 15 14 11 12 13 14 16 36 39 42 43 44

GFSSW_sfc_30mbdewp_117.txt.gz
Dewpoint
46 46 46 46 46 46 46 46 45 45 45 45 46 46 46 47 48 44 15 15 36 41 46 43 37 38 36 32 31 28 18 14 9 12 10 19 20 21 21 19 20 21 24 26 43
46 46 46 46 46 46 46 45 45 45 45 45 45 46 46 48 45 34 33 40 44 50 40 36 34 36 32 33 30 26 20 17 19 16 16 19 20 21 20 21 21 24 27 28 48
46 46 46 45 45 46 46 46 45 44 44 45 46 47 47 48 29 -4 50 46 46 47 37 34 35 32 27 32 30 27 20 23 22 22 23 21 20 21 21 20 24 25 25 30 37
46 46 45 45 45 45 45 46 45 44 45 46 46 47 47 45 -19 23 40 47 48 50 36 29 31 29 26 27 30 24 26 24 23 23 23 21 23 22 24 25 27 26 25 23 27
46 45 44 44 44 44 44 46 45 45 46 46 47 47 43 15 -4 11 31 33 51 44 31 28 26 24 21 23 26 27 26 25 25 24 25 26 26 26 25 25 25 24 24 26 27
44 43 43 43 43 43 43 45 46 46 46 47 48 46 41 3 1 26 32 28 32 38 33 32 27 26 24 25 25 27 27 26 26 25 26 25 25 26 25 26 25 26 27 28 30
42 42 42 42 42 43 43 45 46 46 46 48 48 45 40 9 24 31 35 23 25 28 29 30 31 21 22 18 22 21 19 19 20 22 24 25 23 23 25 26 25 26 28 26 28
42 42 42 43 42 43 44 45 46 45 47 47 47 43 26 34 36 37 38 35 33 28 26 23 17 16 14 14 13 13 15 14 18 18 21 22 19 23 23 20 13 13 18 23 25
42 42 42 43 43 44 44 45 44 44 48 47 43 41 23 29 32 34 36 32 35 32 30 21 18 14 11 8 7 13 12 14 15 21 22 23 20 21 20 12 8 10 14 19 23
42 42 42 42 43 44 44 41 40 39 41 47 44 32 27 20 30 31 26 35 20 20 22 17 13 11 9 8 1 6 11 13 12 13 16 17 18 17 14 7 7 11 15 20 23
43 42 41 41 42 44 38 32 30 25 31 24 15 23 21 23 24 20 23 19 16 15 15 15 12 10 10 9 5 11 13 12 13 13 11 11 10 9 7 7 10 14 16 19 22
43 42 41 41 42 40 33 31 32 32 29 30 31 30 30 30 26 24 22 11 14 12 12 17 18 18 11 8 7 7 8 10 12 10 9 7 8 11 11 13 14 16 18 21 24
42 41 41 41 40 37 33 33 35 35 30 25 29 26 23 29 25 20 18 12 9 13 12 8 11 16 16 10 5 6 7 8 5 6 10 11 12 13 15 15 18 20 22 23 24
41 41 41 42 30 36 29 35 36 36 16 -5 19 21 9 21 15 19 19 13 10 5 12 11 12 10 15 16 13 11 10 6 5 13 12 16 7 12 14 16 15 17 22 32 41
41 41 41 40 35 30 31 36 36 36 -38 -7 13 17 9 9 7 8 12 10 11 7 10 12 14 9 7 8 15 11 20 13 16 16 15 15 13 11 14 8 15 20 33 41 42
41 41 40 37 36 35 37 36 30 -20 -38 -5 13 9 8 13 12 13 11 10 12 14 13 13 15 18 11 11 16 23 21 20 20 18 12 13 9 5 8 13 17 33 39 43 43
40 40 39 39 27 36 37 25 -17 -32 -5 10 11 8 10 12 11 9 9 9 6 10 16 15 8 14 18 16 19 19 15 8 10 11 2 12 12 9 15 25 35 37 38 41 40
40 38 35 36 37 36 31 0 -24 2 11 17 14 8 12 15 10 6 4 8 9 8 9 17 16 15 17 15 14 18 15 6 -5 -2 -0 15 7 14 32 36 36 37 39 38 37
39 33 30 32 37 35 17 -13 -4 15 17 17 14 11 14 15 14 10 8 8 10 12 8 12 18 18 18 20 16 16 14 14 6 13 12 12 14 24 31 31 29 30 36 38 39
33 28 33 36 38 28 11 10 16 20 22 22 14 18 14 14 14 12 10 12 12 14 16 10 8 16 17 21 22 20 22 15 16 10 8 10 11 17 21 22 20 23 31 38 40
29 25 29 35 35 22 13 17 20 22 23 20 20 17 17 16 16 14 10 11 14 12 13 14 12 11 14 19 17 19 22 24 22 22 8 7 10 25 23 23 14 14 20 35 41
26 14 27 33 21 25 20 24 24 22 22 19 24 23 21 20 18 17 15 15 18 17 9 16 16 12 9 21 24 28 28 28 18 20 24 20 16 27 24 18 14 14 16 30 42
25 25 29 28 17 17 20 22 23 22 20 22 22 22 22 19 16 18 20 22 20 20 14 20 17 11 16 20 18 13 9 26 27 24 22 17 10 25 16 8 10 12 14 20 42
23 13 21 27 24 22 22 19 19 21 18 19 20 22 21 20 21 21 20 21 23 20 25 24 15 13 12 13 13 10 11 11 18 11 13 13 11 7 6 7 8 8 12 17 41
25 21 26 17 20 22 21 19 17 17 21 26 24 24 24 22 21 20 21 23 23 19 25 19 11 11 10 12 14 13 11 11 9 8 4 2 3 3 4 5 8 12 15 16 36
23 22 27 23 24 21 20 18 17 20 24 23 25 24 26 24 25 23 27 23 20 20 24 23 11 16 15 14 12 12 14 16 14 13 13 11 10 12 11 12 13 15 20 34 40
31 31 23 21 21 20 19 19 19 25 24 26 29 27 27 28 29 29 31 30 28 26 22 20 17 12 5 9 12 9 10 11 11 13 12 7 7 8 13 13 15 22 34 42 43

GFSSW_sfc_30mbdewp_120.txt.gz
Dewpoint
46 46 46 46 46 47 47 47 46 46 46 46 46 47 48 48 48 29 18 23 27 45 42 37 36 32 31 27 27 24 17 15 13 10 9 13 15 18 20 19 19 19 21 24 31
46 46 46 46 46 46 46 46 46 46 45 46 47 47 48 49 39 24 22 42 41 50 32 28 26 30 26 26 26 21 18 17 16 14 11 14 17 18 17 15 17 20 24 27 28
46 46 45 45 45 45 45 45 46 45 46 47 47 47 48 47 27 -4 42 45 50 47 31 28 25 26 21 24 25 23 19 19 18 17 15 15 14 15 15 12 15 17 21 25 29
46 45 44 44 43 43 44 44 45 45 46 47 47 48 48 39 -7 27 35 48 47 41 36 29 25 23 19 20 23 23 22 22 20 21 19 19 18 18 19 18 19 22 25 26 27
44 43 43 43 42 42 43 44 44 45 46 47 47 48 42 17 -2 10 31 31 43 40 30 28 26 23 20 20 21 24 22 21 24 23 23 22 21 21 22 23 24 23 26 28 28
43 43 43 43 42 42 42 43 45 46 46 47 49 47 37 10 -1 18 25 22 28 30 23 26 22 23 20 19 19 18 23 22 22 22 22 22 22 23 23 26 27 27 27 28 29
43 43 43 43 42 42 42 43 45 45 46 48 49 44 35 15 14 17 21 12 7 20 25 19 22 22 19 18 20 19 18 17 19 21 22 24 23 23 25 25 25 26 27 28 25
43 43 43 43 42 42 44 45 45 45 47 48 48 42 26 28 26 31 33 28 33 27 14 21 23 21 18 16 15 14 15 13 14 16 19 21 15 20 23 24 24 21 15 16 18
43 43 43 43 44 44 44 44 43 45 48 48 44 40 23 28 27 23 30 25 22 32 22 19 23 16 12 9 5 5 7 8 12 17 17 20 17 20 22 19 16 14 10 10 15
43 43 42 42 43 44 42 40 36 44 40 41 41 30 25 9 14 18 16 18 19 20 25 18 16 15 12 7 0 1 2 6 7 11 16 16 16 16 17 17 14 11 8 14 16
43 42 41 41 42 42 34 28 19 18 21 19 19 18 19 22 25 18 17 15 16 14 15 14 8 6 5 7 5 3 0 2 3 10 12 11 11 11 12 11 6 7 12 14 18
42 41 41 41 42 39 30 28 30 32 24 25 26 27 26 28 22 13 21 13 6 4 6 15 8 -1 -1 4 7 6 1 -1 -0 9 13 9 6 5 4 7 8 10 13 17 19
41 41 41 40 39 34 30 30 33 35 26 16 22 22 9 25 18 4 18 14 13 9 3 7 6 13 14 14 10 8 6 3 2 3 5 4 1 2 6 9 12 17 18 20 27
41 41 41 40 27 30 27 31 33 38 12 -5 19 12 3 2 12 8 12 16 16 11 7 7 10 9 11 15 15 11 10 7 5 6 2 4 2 6 10 11 14 14 20 30 36
41 40 40 39 30 21 29 33 36 37 -26 3 10 11 -1 2 3 -2 12 13 14 14 13 10 11 10 10 9 11 11 11 14 14 9 6 5 8 2 8 11 11 18 31 37 40
40 40 39 34 32 29 35 36 36 4 -27 2 9 5 -4 5 -0 3 4 11 12 11 15 18 18 12 11 8 9 10 13 18 18 12 10 9 8 1 6 8 12 29 36 37 36
40 40 34 34 29 36 36 29 -7 -29 -8 6 8 5 -4 7 0 1 -6 3 7 7 10 13 16 16 17 11 19 13 15 11 11 11 8 0 2 2 6 20 28 33 34 35 36
40 35 35 34 37 39 33 2 -16 -2 7 12 10 0 3 9 3 5 -1 -17 7 10 6 7 13 19 14 16 15 17 16 8 7 5 4 7 2 10 30 32 32 32 34 36 36
36 33 35 37 40 36 17 -15 -1 9 14 13 5 -0 2 5 10 8 3 -0 8 12 10 7 7 20 21 24 16 17 20 17 11 10 5 5 20 29 28 23 23 25 28 33 35
29 32 31 36 39 30 9 8 11 16 17 15 8 10 6 6 9 8 4 1 4 12 12 12 10 13 21 28 28 20 19 12 13 8 1 -1 8 10 22 15 8 4 6 18 28
30 25 29 35 37 20 10 12 14 18 16 14 11 10 10 11 12 10 9 7 10 15 13 8 13 10 14 23 27 30 24 23 20 11 6 3 4 18 21 18 12 9 7 9 19
28 24 30 34 23 22 13 17 20 14 17 15 18 17 16 14 12 10 10 11 15 17 13 10 12 11 10 16 23 26 31 32 25 17 15 11 11 21 25 22 10 11 8 11 12
27 21 30 33 18 16 19 18 19 18 17 15 14 15 14 12 12 11 13 16 18 16 17 19 10 5 3 16 25 22 17 21 26 27 19 14 11 25 26 19 9 8 6 11 11
28 21 22 26 23 20 19 15 11 15 15 14 16 19 19 17 15 16 16 18 20 20 22 22 12 9 5 17 18 14 18 15 13 14 16 14 10 13 10 4 4 6 7 12 13
30 22 22 20 19 17 16 14 16 16 18 19 19 20 20 20 16 15 17 21 23 21 19 17 9 5 4 6 8 13 14 12 10 8 6 9 5 3 3 4 4 7 9 13 17
28 24 25 19 20 16 18 15 16 17 20 21 21 27 25 22 26 25 23 24 21 18 18 16 12 9 6 6 8 9 8 8 7 9 7 5 6 6 4 3 7 10 11 17 24
32 29 24 20 18 16 17 16 18 24 21 24 28 26 19 20 22 25 26 26 26 26 23 21 15 10 7 4 3 3 4 5 5 5 6 6 4 3 4 7 11 14 15 27 35